[[{"header":{"parameterUnit":"m.s-1","parameterCategory":1,"la1":30.6,"la2":28.766,"lo1":-90.7593,"lo2":-88.6598,"dy":0.0162,"dx":0.0183,"nx":116,"ny":114,"refTime":"2023-06-01T06:00:00:Z","depth":0,"parameterNumber":2,"parameterNumberName":"U-component_of_WINDS"},"data":[0.0,0.0,0.0,0.0,0.0,0.0,0.0,0.0,0.0,0.0,0.0,0.0,0.0,0.0,0.0,0.0,0.0,0.0,0.0,0.0,0.0,0.0,0.0,0.0,0.0,0.0,0.0,0.0,0.0,0.0,0.0,0.0,0.0,0.0,0.0,0.0,0.0,0.0,0.0,0.0,0.0,0.0,0.0,0.0,0.0,0.0,0.0,0.0,0.0,0.0,0.0,0.0,0.0,0.0,0.0,0.0,0.0,0.0,0.0,0.0,0.0,0.0,0.0,0.0,0.0,0.0,0.0,0.0,0.0,0.0,0.0,0.0,0.0,0.0,0.0,0.0,0.0,0.0,0.0,0.0,0.0,0.0,0.0,0.0,0.0,0.0,0.0,0.0,0.0,0.0,0.0,0.0,0.0,0.0,0.0,0.0,0.0,0.0,0.0,0.0,0.0,0.0,0.0,0.0,0.0,0.0,0.0,0.0,0.0,0.0,0.0,0.0,0.0,0.0,0.0,0.0,0.0,0.0,0.0,0.0,0.0,0.0,0.0,0.0,0.0,0.0,0.0,0.0,0.0,0.0,0.0,0.0,0.0,0.0,0.0,0.0,0.0,0.0,0.0,0.0,0.0,0.0,0.0,0.0,0.0,0.0,0.0,0.0,0.0,0.0,0.0,0.0,0.0,0.0,0.0,0.0,0.0,0.0,0.0,0.0,0.0,0.0,0.0,0.0,0.0,0.0,0.0,0.0,0.0,0.0,0.0,0.0,0.0,0.0,0.0,0.0,0.0,0.0,0.0,0.0,0.0,0.0,0.0,0.0,0.0,0.0,0.0,0.0,0.0,0.0,0.0,0.0,0.0,0.0,0.0,0.0,0.0,0.0,0.0,0.0,0.0,0.0,0.0,0.0,0.0,0.0,0.0,0.0,0.0,0.0,0.0,0.0,0.0,0.0,0.0,0.0,0.0,0.0,0.0,0.0,0.0,0.0,0.0,0.0,0.0,0.0,0.0,0.0,0.0,0.0,0.0,0.0,0.0,0.0,0.0,0.0,0.0,0.0,0.0,0.0,0.0,0.0,0.0,0.0,0.0,0.0,0.0,0.0,0.0,0.0,0.0,0.0,0.0,0.0,0.0,0.0,0.0,0.0,0.0,0.0,0.0,0.0,0.0,0.0,0.0,0.0,0.0,0.0,0.0,0.0,0.0,0.0,0.0,0.0,0.0,0.0,0.0,0.0,0.0,0.0,0.0,0.0,0.0,0.0,0.0,0.0,0.0,0.0,0.0,0.0,0.0,0.0,0.0,0.0,0.0,0.0,0.0,0.0,0.0,0.0,0.0,0.0,0.0,0.0,0.0,0.0,0.0,0.0,0.0,0.0,0.0,0.0,0.0,0.0,0.0,0.0,0.0,0.0,0.0,0.0,0.0,0.0,0.0,0.0,0.0,0.0,0.0,0.0,0.0,0.0,0.0,0.0,0.0,0.0,0.0,0.0,0.0,0.0,0.0,0.0,0.0,0.0,0.0,0.0,0.0,0.0,0.0,0.0,0.0,0.0,0.0,0.0,0.0,0.0,0.0,0.0,0.0,0.0,0.0,0.0,0.0,0.0,0.0,0.0,0.0,0.0,0.0,0.0,0.0,0.0,0.0,0.0,0.0,0.0,0.0,0.0,0.0,0.0,0.0,0.0,0.0,0.0,0.0,0.0,0.0,0.0,0.0,0.0,0.0,0.0,0.0,0.0,0.0,0.0,0.0,0.0,0.0,0.0,0.0,0.0,0.0,0.0,0.0,0.0,0.0,0.0,0.0,0.0,0.0,0.0,0.0,0.0,0.0,0.0,0.0,0.0,0.0,0.0,0.0,0.0,0.0,0.0,0.0,0.0,0.0,0.0,0.0,0.0,0.0,0.0,0.0,0.0,0.0,0.0,0.0,0.0,0.0,0.0,0.0,0.0,0.0,0.0,0.0,0.0,0.0,0.0,0.0,0.0,0.0,0.0,0.0,0.0,0.0,0.0,0.0,0.0,0.0,0.0,0.0,0.0,0.0,0.0,0.0,0.0,0.0,0.0,0.0,0.0,0.0,0.0,0.0,0.0,0.0,0.0,0.0,0.0,0.0,0.0,0.0,0.0,0.0,0.0,0.0,0.0,0.0,0.0,0.0,0.0,0.0,0.0,0.0,0.0,0.0,0.0,0.0,0.0,0.0,0.0,0.0,0.0,0.0,0.0,0.0,0.0,0.0,0.0,0.0,0.0,0.0,0.0,0.0,0.0,0.0,0.0,0.0,0.0,0.0,0.0,0.0,0.0,0.0,0.0,0.0,0.0,0.0,0.0,0.0,0.0,0.0,0.0,0.0,0.0,0.0,0.0,0.0,0.0,0.0,0.0,0.0,0.0,0.0,0.0,0.0,0.0,0.0,0.0,0.0,0.0,0.0,0.0,0.0,0.0,0.0,0.0,0.0,0.0,0.0,0.0,0.0,0.0,0.0,0.0,0.0,0.0,0.0,0.0,0.0,0.0,0.0,0.0,0.0,0.0,0.0,0.0,0.0,0.0,0.0,0.0,0.0,0.0,0.0,0.0,0.0,0.0,0.0,0.0,0.0,0.0,0.0,0.0,0.0,0.0,0.0,0.0,0.0,0.0,0.0,0.0,0.0,0.0,0.0,0.0,0.0,0.0,0.0,0.0,0.0,0.0,0.0,0.0,0.0,0.0,0.0,0.0,0.0,0.0,0.0,0.0,0.0,0.0,0.0,0.0,0.0,0.0,0.0,0.0,0.0,0.0,0.0,0.0,0.0,0.0,0.0,0.0,0.0,0.0,0.0,0.0,0.0,0.0,0.0,0.0,0.0,0.0,0.0,0.0,0.0,0.0,0.0,0.0,0.0,0.0,0.0,0.0,0.0,0.0,0.0,0.0,0.0,0.0,0.0,0.0,0.0,0.0,0.0,0.0,0.0,0.0,0.0,0.0,0.0,0.0,0.0,0.0,0.0,0.0,0.0,0.0,0.0,0.0,0.0,0.0,0.0,0.0,0.0,0.0,0.0,0.0,0.0,0.0,0.0,0.0,0.0,0.0,0.0,0.0,0.0,0.0,0.0,0.0,0.0,0.0,0.0,0.0,0.0,0.0,0.0,0.0,0.0,0.0,0.0,0.0,0.0,0.0,0.0,0.0,0.0,0.0,0.0,0.0,0.0,0.0,0.0,0.0,0.0,0.0,0.0,0.0,0.0,0.0,0.0,0.0,0.0,0.0,0.0,0.0,0.0,0.0,0.0,0.0,0.0,0.0,0.0,0.0,0.0,0.0,0.0,0.0,0.0,0.0,0.0,0.0,0.0,0.0,0.0,0.0,0.0,0.0,0.0,0.0,0.0,0.0,0.0,0.0,0.0,0.0,0.0,0.0,0.0,0.0,0.0,0.0,0.0,0.0,0.0,0.0,0.0,0.0,0.0,0.0,0.0,0.0,0.0,0.0,0.0,0.0,0.0,0.0,0.0,0.0,0.0,0.0,0.0,0.0,0.0,0.0,0.0,0.0,0.0,0.0,0.0,0.0,0.0,0.0,0.0,0.0,0.0,0.0,0.0,0.0,0.0,0.0,0.0,0.0,0.0,0.0,0.0,0.0,0.0,0.0,0.0,0.0,0.0,0.0,0.0,0.0,0.0,0.0,0.0,0.0,0.0,0.0,0.0,0.0,0.0,0.0,0.0,0.0,0.0,0.0,0.0,0.0,0.0,0.0,0.0,0.0,0.0,0.0,0.0,0.0,0.0,0.0,0.0,0.0,0.0,0.0,0.0,0.0,0.0,0.0,0.0,0.0,0.0,0.0,0.0,0.0,0.0,0.0,0.0,0.0,0.0,0.0,0.0,0.0,0.0,0.0,0.0,0.0,0.0,0.0,0.0,0.0,0.0,0.0,0.0,0.0,0.0,0.0,0.0,0.0,0.0,0.0,0.0,0.0,0.0,0.0,0.0,0.0,0.0,0.0,0.0,0.0,0.0,0.0,0.0,0.0,0.0,0.0,0.0,0.0,0.0,0.0,0.0,0.0,0.0,0.0,0.0,0.0,0.0,0.0,0.0,0.0,0.0,0.0,0.0,0.0,0.0,0.0,0.0,0.0,0.0,0.0,0.0,0.0,0.0,0.0,0.0,0.0,0.0,0.0,0.0,0.0,0.0,0.0,0.0,0.0,0.0,0.0,0.0,0.0,0.0,0.0,0.0,0.0,0.0,0.0,0.0,0.0,0.0,0.0,0.0,0.0,0.0,0.0,0.0,0.0,0.0,0.0,0.0,0.0,0.0,0.0,0.0,0.0,0.0,0.0,0.0,0.0,0.0,0.0,0.0,0.0,0.0,0.0,0.0,0.0,0.0,0.0,0.0,0.0,0.0,0.0,0.0,0.0,0.0,0.0,0.0,0.0,0.0,0.0,0.0,0.0,0.0,0.0,0.0,0.0,0.0,0.0,0.0,0.0,0.0,0.0,0.0,0.0,0.0,0.0,0.0,0.0,0.0,0.0,0.0,0.0,0.0,0.0,0.0,0.0,0.0,0.0,0.0,0.0,0.0,0.0,0.0,0.0,0.0,0.0,0.0,0.0,0.0,0.0,0.0,0.0,0.0,0.0,0.0,0.0,0.0,0.0,0.0,0.0,0.0,0.0,0.0,0.0,0.0,0.0,0.0,0.0,0.0,0.0,0.0,0.0,0.0,0.0,0.0,0.0,0.0,0.0,0.0,0.0,0.0,0.0,0.0,0.0,0.0,0.0,0.0,0.0,0.0,0.0,0.0,0.0,0.0,0.0,0.0,0.0,0.0,0.0,0.0,0.0,0.0,0.0,0.0,0.0,0.0,0.0,0.0,0.0,0.0,0.0,0.0,0.0,0.0,0.0,0.0,0.0,0.0,0.0,0.0,0.0,0.0,0.0,0.0,0.0,0.0,0.0,0.0,0.0,0.0,0.0,0.0,0.0,0.0,0.0,0.0,0.0,0.0,0.0,0.0,0.0,0.0,0.0,0.0,0.0,0.0,0.0,0.0,0.0,0.0,0.0,0.0,0.0,0.0,0.0,0.0,0.0,0.0,0.0,0.0,0.0,0.0,0.0,0.0,0.0,0.0,0.0,0.0,0.0,0.0,0.0,0.0,0.0,0.0,0.0,0.0,0.0,0.0,0.0,0.0,0.0,0.0,0.0,0.0,0.0,0.0,0.0,0.0,0.0,0.0,0.0,0.0,0.0,0.0,0.0,0.0,0.0,0.0,0.0,0.0,0.0,0.0,0.0,0.0,0.0,0.0,0.0,0.0,0.0,0.0,0.0,0.0,0.0,0.0,0.0,0.0,0.0,0.0,0.0,0.0,0.0,0.0,0.0,0.0,0.0,0.0,0.0,0.0,0.0,0.0,0.0,0.0,0.0,0.0,0.0,0.0,0.0,0.0,0.0,0.0,0.0,0.0,0.0,0.0,0.0,0.0,0.0,0.0,0.0,0.0,0.0,0.0,0.0,0.0,0.0,0.0,0.0,0.0,0.0,0.0,0.0,0.0,0.0,0.0,0.0,0.0,0.0,0.0,0.0,0.0,0.0,0.0,0.0,0.0,0.0,0.0,0.0,0.0,0.0,0.0,0.0,0.0,0.0,0.0,0.0,0.0,0.0,0.0,0.0,0.0,0.0,0.0,0.0,0.0,0.0,0.0,0.0,0.0,0.0,0.0,0.0,0.0,0.0,0.0,0.0,0.0,0.0,0.0,0.0,0.0,0.0,0.0,0.0,0.0,0.0,0.0,0.0,0.0,0.0,0.0,0.0,0.0,0.0,0.0,0.0,0.0,0.0,0.0,0.0,0.0,0.0,0.0,0.0,0.0,0.0,0.0,0.0,0.0,0.0,0.0,0.0,0.0,0.0,0.0,0.0,0.0,0.0,0.0,0.0,0.0,0.0,0.0,0.0,0.0,0.0,0.0,0.0,0.0,0.0,0.0,0.0,0.0,0.0,0.0,0.0,0.0,0.0,0.0,0.0,0.0,0.0,0.0,0.0,0.0,0.0,0.0,0.0,0.0,0.0,0.0,0.0,0.0,0.0,0.0,0.0,0.0,0.0,0.0,0.0,0.0,0.0,3.123,3.0478,0.0,0.0,0.0,0.0,0.0,0.0,0.0,0.0,0.0,0.0,0.0,0.0,0.0,0.0,0.0,0.0,0.0,0.0,0.0,0.0,0.0,0.0,0.0,0.0,0.0,0.0,0.0,0.0,0.0,0.0,0.0,0.0,0.0,0.0,0.0,0.0,0.0,0.0,2.3572,2.3588,2.391,2.3844,2.3869,2.4017,0.0,0.0,0.0,0.0,0.0,0.0,0.0,0.0,0.0,0.0,0.0,0.0,0.0,0.0,0.0,0.0,0.0,0.0,0.0,0.0,0.0,0.0,0.0,0.0,0.0,0.0,0.0,0.0,0.0,0.0,0.0,0.0,0.0,0.0,0.0,0.0,0.0,0.0,0.0,0.0,0.0,0.0,0.0,0.0,0.0,0.0,0.0,0.0,0.0,0.0,0.0,0.0,0.0,0.0,0.0,0.0,0.0,0.0,0.0,0.0,0.0,0.0,0.0,0.0,0.0,0.0,0.0,0.0,0.0,0.0,3.3284,3.2239,0.0,0.0,0.0,0.0,0.0,0.0,0.0,0.0,0.0,0.0,0.0,0.0,0.0,0.0,0.0,0.0,0.0,0.0,0.0,0.0,0.0,0.0,0.0,2.0917,2.1273,2.181,2.2008,2.2038,0.0,0.0,0.0,0.0,0.0,0.0,0.0,2.4013,2.4079,2.4079,2.3695,2.3918,2.4723,2.5154,2.5246,2.4972,2.4504,0.0,0.0,0.0,0.0,0.0,0.0,0.0,0.0,0.0,0.0,0.0,0.0,0.0,0.0,0.0,0.0,0.0,0.0,0.0,0.0,0.0,0.0,0.0,0.0,0.0,0.0,0.0,0.0,0.0,0.0,0.0,0.0,0.0,0.0,0.0,0.0,0.0,0.0,0.0,0.0,0.0,0.0,0.0,0.0,0.0,0.0,0.0,0.0,0.0,0.0,0.0,0.0,0.0,0.0,0.0,0.0,0.0,0.0,0.0,0.0,0.0,0.0,0.0,3.7095,3.7374,3.7389,3.8403,3.8245,3.7138,3.6258,3.4964,3.3516,3.4152,0.0,0.0,0.0,0.0,0.0,0.0,0.0,0.0,0.0,0.0,0.0,0.0,0.0,0.0,0.0,0.0,0.0,0.0,0.0,0.0,0.0,2.1576,2.1842,2.2424,2.2513,2.2521,2.2482,0.0,0.0,0.0,0.0,0.0,2.474,2.5294,2.5628,2.5628,2.6119,2.706,2.8383,2.7837,2.8076,2.8855,2.6451,2.5601,2.5896,0.0,0.0,0.0,0.0,0.0,0.0,0.0,0.0,0.0,0.0,0.0,0.0,0.0,0.0,0.0,0.0,0.0,0.0,0.0,0.0,0.0,0.0,0.0,0.0,0.0,0.0,0.0,0.0,0.0,0.0,0.0,0.0,0.0,0.0,0.0,0.0,0.0,0.0,0.0,0.0,0.0,3.3001,3.3494,0.0,0.0,0.0,0.0,0.0,0.0,0.0,0.0,0.0,0.0,0.0,0.0,0.0,3.7157,3.7032,3.828,3.8958,3.9033,3.9694,3.9985,3.9985,4.0153,4.0153,3.9968,3.9818,0.0,3.6197,3.6305,0.0,0.0,0.0,0.0,0.0,0.0,0.0,0.0,0.0,0.0,0.0,0.0,0.0,0.0,0.0,0.0,0.0,0.0,0.0,0.0,0.0,2.2317,2.2608,2.3104,2.3268,2.3285,2.3161,2.3822,0.0,0.0,0.0,2.5259,2.5295,2.5994,2.6547,2.6977,2.7655,2.8306,2.8989,2.878,2.8884,2.9191,2.7721,2.709,2.7072,2.5998,0.0,0.0,0.0,0.0,0.0,0.0,0.0,0.0,0.0,0.0,0.0,0.0,0.0,0.0,0.0,0.0,0.0,0.0,0.0,0.0,0.0,0.0,0.0,0.0,0.0,0.0,0.0,0.0,0.0,0.0,0.0,0.0,0.0,0.0,0.0,0.0,0.0,0.0,0.0,3.3851,3.4822,3.4559,3.565,3.598,0.0,0.0,0.0,0.0,0.0,0.0,0.0,0.0,0.0,3.7264,3.8559,3.9235,3.9199,4.0553,4.1344,4.1587,4.2309,4.2413,4.2058,4.3232,4.3403,4.2792,4.3584,4.3069,4.1476,3.8822,3.7652,3.7437,0.0,0.0,0.0,0.0,3.6641,3.6688,0.0,0.0,0.0,0.0,0.0,0.0,0.0,0.0,0.0,0.0,0.0,0.0,2.2658,2.2946,2.3268,2.3803,2.4152,2.4177,2.3859,2.4466,2.4764,2.4569,2.5237,2.5616,2.5612,2.6338,2.7233,2.8332,2.8832,2.9383,2.9989,2.9799,2.9896,3.0171,2.9373,2.8583,2.7813,2.664,2.6324,2.6503,0.0,0.0,0.0,0.0,0.0,0.0,0.0,0.0,0.0,0.0,0.0,0.0,0.0,0.0,0.0,0.0,0.0,0.0,0.0,0.0,0.0,0.0,0.0,0.0,0.0,0.0,0.0,0.0,0.0,0.0,0.0,0.0,0.0,0.0,0.0,0.0,0.0,3.5599,3.6273,3.5584,3.6936,3.7232,0.0,0.0,0.0,0.0,0.0,0.0,3.8874,3.9057,3.931,3.9685,4.0966,4.1653,4.1725,4.2941,4.3714,4.409,4.4456,4.4366,4.3868,4.5243,4.5353,4.4556,4.5617,4.5778,4.5037,4.1321,3.9776,3.9646,3.8208,3.8071,3.8632,3.8632,3.8632,3.8709,0.0,0.0,0.0,0.0,0.0,0.0,0.0,0.0,0.0,0.0,0.0,2.2115,2.2723,2.3252,2.3803,2.4412,2.5107,2.5204,2.45,2.513,2.5297,2.4732,2.5274,2.5621,2.5691,2.6354,2.7709,2.9794,2.9826,3.0885,3.285,3.1718,3.2108,3.3674,3.1932,3.0032,2.8143,2.7349,2.7361,2.7788,2.6472,0.0,0.0,0.0,0.0,0.0,0.0,0.0,0.0,0.0,0.0,0.0,0.0,0.0,0.0,0.0,0.0,0.0,0.0,0.0,0.0,0.0,0.0,0.0,0.0,0.0,0.0,0.0,0.0,0.0,0.0,0.0,0.0,0.0,0.0,0.0,0.0,0.0,0.0,3.6651,3.8319,0.0,0.0,0.0,0.0,3.8582,3.9299,4.015,4.0987,4.1639,4.2291,4.2926,4.4076,4.4806,4.5072,4.5753,4.622,4.643,4.5809,4.5514,4.5473,4.487,4.4562,4.4482,4.4554,4.4575,4.4503,4.3689,4.2959,4.2263,4.0878,4.0355,4.0385,4.0385,4.0385,4.0385,0.0,0.0,0.0,0.0,0.0,0.0,0.0,0.0,2.2315,2.2378,2.2385,2.2885,2.4133,2.4658,2.5329,2.6458,2.6393,2.6199,2.594,2.5704,2.5723,2.5974,2.6186,2.6963,2.8376,2.9059,3.0462,3.259,3.3089,3.3781,3.4627,3.3945,3.3772,3.4012,3.3119,3.2127,3.1003,2.9524,2.8621,2.8089,2.6783,2.6293,0.0,0.0,0.0,0.0,0.0,0.0,0.0,0.0,0.0,0.0,0.0,0.0,0.0,0.0,0.0,0.0,0.0,0.0,0.0,0.0,0.0,0.0,0.0,0.0,0.0,0.0,0.0,0.0,0.0,0.0,0.0,0.0,0.0,0.0,0.0,0.0,0.0,3.9224,4.0655,0.0,3.8929,3.9917,4.0768,4.0936,4.2069,4.3089,4.3988,4.4683,4.5348,4.6004,4.7293,4.7946,4.7862,4.8546,4.8776,4.8511,4.7949,4.7206,4.6373,4.6219,4.5969,4.5632,4.6059,4.6446,4.6704,4.6042,4.4997,4.3725,4.2836,4.2756,4.3039,4.2119,4.2043,4.238,0.0,0.0,0.0,0.0,0.0,0.0,0.0,0.0,2.248,2.2508,2.269,2.3365,2.4835,2.5584,2.6448,2.7581,2.729,2.6944,2.6717,2.6222,2.6199,2.6685,2.7098,2.8262,3.0193,3.087,3.2268,3.4413,3.4878,3.5254,3.5415,3.4992,3.4669,3.4409,3.4029,3.3636,3.3231,3.198,3.0725,2.9441,2.8194,2.7845,2.7956,0.0,0.0,0.0,0.0,0.0,0.0,0.0,0.0,0.0,0.0,0.0,0.0,0.0,0.0,0.0,0.0,0.0,0.0,0.0,0.0,0.0,0.0,0.0,0.0,0.0,0.0,0.0,0.0,0.0,0.0,0.0,0.0,0.0,0.0,3.9668,4.0779,4.1586,4.2654,4.2781,4.1369,4.2382,4.3252,4.3661,4.4929,4.6064,4.6951,4.7477,4.7926,4.8406,4.9145,4.9526,4.9417,4.9835,4.9849,4.9456,4.8839,4.7961,4.6859,4.7224,4.6853,4.6022,4.7202,4.7644,4.7518,4.7619,4.6984,4.5888,4.4793,4.4668,4.4928,4.3796,4.3828,4.4246,0.0,0.0,0.0,0.0,0.0,0.0,0.0,2.2622,2.2508,2.2315,2.2739,2.3495,2.4684,2.5979,2.7041,2.7721,2.7743,2.7462,2.6824,2.6717,2.6717,2.6792,2.8027,2.9425,3.0957,3.1616,3.2972,3.5063,3.5096,3.5194,3.5359,3.4914,3.486,3.5156,3.4736,3.4563,3.4563,3.4548,3.3602,3.2019,3.0772,3.0974,3.1699,0.0,0.0,0.0,0.0,0.0,0.0,0.0,0.0,0.0,0.0,0.0,0.0,0.0,0.0,0.0,0.0,0.0,0.0,0.0,0.0,0.0,0.0,0.0,0.0,0.0,0.0,0.0,0.0,0.0,0.0,0.0,0.0,0.0,3.9269,4.0164,4.1508,4.362,4.4221,4.4454,4.4426,4.5057,4.584,4.6643,4.7791,4.8847,4.9703,4.9935,5.0089,5.0089,4.9666,4.9532,4.9711,4.9681,4.9524,4.9253,4.8463,4.7664,4.6928,4.7652,4.7031,4.5567,4.7773,4.7952,4.6751,4.8265,4.8862,4.8692,4.6749,4.6021,4.596,4.5456,4.5615,4.5968,0.0,0.0,0.0,0.0,0.0,0.0,0.0,2.1831,2.1926,2.2248,2.3137,2.4174,2.5386,2.714,2.8509,2.9232,2.88,2.8411,2.8217,2.7278,2.7407,2.894,3.031,3.1719,3.3047,3.4253,3.5345,3.6387,3.6872,3.7074,3.7048,3.6909,3.6825,3.6733,3.6184,3.5955,3.5925,3.5429,3.5079,3.4659,3.2616,3.1717,3.1442,0.0,0.0,0.0,0.0,0.0,0.0,0.0,0.0,0.0,0.0,0.0,0.0,0.0,0.0,0.0,0.0,0.0,0.0,0.0,0.0,0.0,0.0,0.0,0.0,0.0,0.0,0.0,0.0,0.0,0.0,0.0,3.8718,3.988,4.0699,4.249,4.4156,4.5385,4.6199,4.6672,4.6686,4.7316,4.8028,4.8779,4.9435,5.0098,5.0813,5.1196,5.1615,5.21,5.2439,5.2594,5.2507,5.1423,5.078,5.0493,4.8886,4.7741,4.7042,4.7119,4.6817,4.6324,4.7123,4.7453,4.7423,4.7876,4.8039,4.8032,4.8061,4.8356,4.8611,4.7126,4.644,4.6205,0.0,0.0,0.0,0.0,0.0,0.0,0.0,2.1537,2.1628,2.2116,2.322,2.4297,2.5174,2.71,2.8498,2.893,2.8573,2.8315,2.8263,2.8069,2.879,3.0632,3.1995,3.3326,3.4676,3.5732,3.6592,3.7256,3.7765,3.7883,3.7573,3.7721,3.7649,3.7387,3.7015,3.6733,3.6464,3.6088,3.6122,3.6368,3.519,3.438,3.3752,3.2658,3.2208,3.2019,3.1295,3.1508,3.2051,3.1188,0.0,0.0,0.0,0.0,0.0,0.0,0.0,0.0,0.0,0.0,0.0,0.0,0.0,0.0,0.0,0.0,0.0,0.0,0.0,0.0,0.0,0.0,0.0,0.0,4.1132,4.246,4.3523,4.461,4.5891,4.74,4.8091,4.855,4.8892,4.9251,4.9854,5.073,5.1027,5.1505,5.2337,5.2532,5.2786,5.3179,5.3134,5.2998,5.2881,5.1942,5.1251,5.0874,4.999,4.9192,4.8489,4.8726,4.8391,4.7677,4.8541,4.872,4.8467,4.9179,4.947,4.9397,0.0,0.0,0.0,0.0,4.6962,4.6335,0.0,0.0,0.0,0.0,0.0,0.0,0.0,2.1368,2.1453,2.1941,2.3119,2.4065,2.4463,2.6426,2.7743,2.7818,2.7798,2.7768,2.773,2.9037,3.0463,3.1951,3.3168,3.4481,3.5861,3.6437,3.702,3.7628,3.7992,3.7919,3.7441,3.7834,3.7862,3.7627,3.7554,3.7225,3.6703,3.6626,3.6883,3.7375,3.7903,3.7839,3.7266,3.5678,3.5209,3.5344,3.4619,3.4088,3.3719,3.3568,0.0,0.0,0.0,0.0,0.0,0.0,0.0,0.0,0.0,0.0,0.0,0.0,0.0,0.0,0.0,0.0,0.0,0.0,0.0,0.0,0.0,0.0,0.0,0.0,4.3875,4.5452,4.6907,4.6697,4.7157,4.9259,4.9688,5.0082,5.0808,5.0869,5.1344,5.2391,5.2467,5.29,5.3994,5.3899,0.0,0.0,0.0,5.2368,5.2343,5.1885,5.1346,5.0754,5.115,5.0906,5.0157,5.0988,5.0518,4.9144,5.0637,5.0567,4.9482,5.0966,5.1602,5.1499,4.9551,4.8407,4.7874,4.7929,4.7323,4.649,0.0,0.0,0.0,0.0,0.0,0.0,0.0,2.0569,2.0879,2.1881,2.3173,2.4124,2.4471,2.6426,2.7948,2.8541,2.85,2.8619,2.9065,2.9898,3.1254,3.3252,3.4097,3.5104,3.6427,3.7144,3.7366,3.7136,3.7701,3.7898,3.7814,3.8415,3.8827,3.9002,3.8452,3.8123,3.799,3.7464,3.753,3.8032,3.8569,3.8638,3.8361,3.8488,3.7852,3.6807,3.6127,3.5831,3.5648,3.4611,3.4804,3.5279,3.4516,3.3481,0.0,0.0,0.0,0.0,0.0,0.0,0.0,0.0,0.0,0.0,0.0,0.0,0.0,0.0,0.0,0.0,0.0,0.0,0.0,4.3782,4.4783,4.6159,4.8629,4.9208,4.9412,4.9481,5.0091,5.0887,5.1893,5.1992,5.2452,5.353,5.3438,5.3869,5.5118,5.5015,5.5345,5.6393,5.5745,5.5272,5.5033,5.334,5.204,5.118,5.0106,0.0,4.8654,4.909,4.9117,4.8817,4.9329,4.9434,4.9163,4.9509,4.9906,5.029,5.0452,4.98,4.872,4.8478,4.7853,4.7135,0.0,0.0,0.0,0.0,0.0,0.0,0.0,2.0335,2.0747,2.2001,2.3235,2.4017,2.4074,2.5964,2.7312,2.7627,2.8116,2.8712,2.9448,3.0755,3.2283,3.4011,3.5113,3.6094,3.7013,3.7157,3.7119,3.6984,3.7201,3.7522,3.791,3.8392,3.891,3.9391,3.905,3.8721,3.838,3.8033,3.8069,3.8347,3.887,3.9381,3.9787,3.9584,3.9264,3.8764,3.7728,3.7648,3.7837,3.6529,3.6454,3.6726,3.5773,3.4949,3.421,0.0,0.0,0.0,0.0,0.0,0.0,0.0,0.0,0.0,0.0,0.0,0.0,0.0,0.0,4.0103,4.138,0.0,4.4252,4.6749,4.7326,4.8104,4.9946,5.0812,5.1043,5.046,5.1344,5.2191,5.2612,5.2924,5.3415,5.4177,5.4449,5.4934,5.5801,5.6034,5.6105,5.5985,5.5296,5.4623,5.3995,5.2519,5.1871,5.1975,5.1242,5.0904,5.0877,5.075,5.0699,5.0699,5.0512,5.0459,5.046,5.0602,5.0626,5.0614,5.068,5.0004,4.8921,4.815,4.7647,4.7313,0.0,0.0,0.0,0.0,0.0,0.0,0.0,2.0347,2.0791,2.2146,2.3201,2.3801,2.3711,2.525,2.6377,2.6615,2.7466,2.8526,2.9751,3.1349,3.2984,3.4582,3.5883,3.6811,3.7329,3.6922,3.6693,3.6677,3.6657,3.6994,3.7724,3.8162,3.8698,3.9337,3.9373,3.9092,3.8571,3.8571,3.8571,3.8654,3.9182,3.9968,4.0755,3.9856,3.9953,4.0318,3.9055,3.8867,3.9078,3.8188,3.7925,3.7808,3.6881,3.6415,3.5988,3.4911,3.4725,0.0,0.0,0.0,0.0,0.0,0.0,0.0,0.0,3.7945,3.9016,3.9855,4.1077,4.25,4.4315,4.5484,4.6916,4.9164,4.9509,4.9874,5.0919,5.1745,5.2078,5.1781,5.2742,5.338,5.3321,5.3849,5.4419,5.4868,5.53,5.5782,5.6292,5.6611,5.6362,5.54,5.4555,5.3753,5.2936,5.2215,5.2212,5.2886,5.2886,5.3076,5.3402,5.2805,5.2504,5.2477,5.2016,5.1744,5.164,5.1869,5.1599,5.0989,5.0379,4.9681,4.8895,4.7946,4.7517,4.7464,0.0,0.0,0.0,0.0,0.0,0.0,0.0,0.0,2.0853,2.2119,2.2919,2.3474,2.3662,2.4374,2.5453,2.6998,2.7233,2.8343,3.0837,3.1216,3.2531,3.5169,3.6009,3.6548,3.6769,3.6739,3.6321,3.5577,3.6137,3.6624,3.7015,3.7842,3.8567,3.9156,3.9319,3.9361,3.9302,3.9302,3.9302,3.9326,3.9864,4.0157,4.0238,3.9818,4.0025,4.0398,3.9653,3.8616,3.7658,3.8298,3.8202,3.7938,3.8472,3.7879,3.697,3.6816,3.5437,3.4189,3.5349,3.5714,3.5934,3.6584,3.6936,3.7726,0.0,4.0753,4.1387,4.3226,4.4228,4.5049,4.6039,4.7173,4.8149,4.8856,4.9274,5.0024,5.1561,5.1896,5.2297,5.3235,5.3644,5.3994,5.4388,5.4973,5.5536,5.5974,5.5874,5.604,5.6717,5.6034,5.6021,5.6995,5.6442,5.5883,5.5498,5.5389,5.4709,5.351,5.351,5.3266,5.2805,5.2178,5.1907,5.1907,5.1826,5.1473,5.0987,5.1047,5.0695,5.0096,4.9498,4.9171,4.9036,4.868,4.8353,4.8165,0.0,0.0,0.0,0.0,0.0,0.0,0.0,0.0,0.0,2.2303,2.2945,2.3496,2.3998,2.5077,2.6147,2.7126,2.7507,2.8709,3.1053,3.1969,3.3309,3.53,3.6437,3.6942,3.6708,3.6399,3.5944,3.54,3.5416,3.5912,3.691,3.7263,3.7967,3.8925,3.9156,3.9228,3.9228,3.9337,3.9391,3.9409,3.9631,3.9932,4.0117,3.9479,3.9172,3.8941,3.8229,3.7975,0.0,3.7778,3.7671,3.7804,3.8728,3.8374,3.7661,3.7739,3.7102,3.6506,3.7122,3.7522,3.7846,3.8282,3.9585,4.1083,4.2319,4.3484,4.4679,4.5816,4.6367,4.701,4.8339,4.8616,4.9019,5.0283,5.0704,5.1234,5.2157,5.2388,5.2522,5.287,5.2857,5.341,5.48,5.5535,5.591,5.5966,5.6214,5.6395,5.6503,5.6509,5.6504,5.6514,5.6216,5.5795,5.5099,5.4743,5.4583,5.465,5.3944,5.3646,5.3727,5.313,5.2859,5.2859,5.2859,5.2506,5.1964,5.1964,5.1394,5.0498,5.0254,4.9956,4.9521,4.8709,4.8328,4.8219,0.0,0.0,0.0,0.0,0.0,0.0,0.0,0.0,0.0,0.0,2.2739,2.3392,2.4147,2.5491,2.6598,2.7232,2.7433,2.8505,3.0768,3.2032,3.3369,3.4834,3.6249,3.6781,3.629,3.5927,3.5619,3.5485,3.5133,3.5703,3.7105,3.714,3.7835,3.9006,3.9069,3.9208,3.9387,3.939,3.9391,3.9391,3.9391,3.9522,3.9599,3.8742,3.8057,3.7437,3.7066,3.7042,3.7158,3.6833,3.6772,3.6983,3.7969,3.8018,3.7748,3.8071,3.8295,3.8414,3.8414,3.8968,3.9676,4.0216,4.2151,4.4019,4.446,4.5846,4.7257,4.7987,4.8081,4.8467,4.9943,4.9717,4.9753,5.1364,5.1987,5.2426,5.2984,5.3079,5.2959,5.2603,5.2223,5.2642,5.4351,5.5256,5.5731,5.57,5.6209,5.6451,5.6189,5.6547,5.6523,5.6022,5.6022,5.5603,5.4762,5.4487,5.4623,5.5138,5.427,5.408,5.4491,5.4053,5.3836,5.3836,5.3836,5.3402,5.2723,5.2723,5.2099,5.115,5.115,5.0878,5.0388,4.9521,4.9005,4.8707,0.0,0.0,0.0,0.0,0.0,0.0,0.0,0.0,0.0,0.0,0.0,0.0,0.0,2.5029,2.6128,2.7387,2.6628,2.7241,3.0046,3.0875,3.1984,3.3579,3.4988,3.5585,3.5237,3.5234,3.5379,3.5703,3.5685,3.6312,3.7572,3.7781,3.8458,3.9465,3.9221,3.9476,4.0021,3.9569,3.9391,3.9391,3.9391,3.902,3.8377,3.7574,3.6823,3.6306,3.6745,3.5749,3.4414,3.5486,3.5492,3.5246,3.6267,3.6725,3.7063,3.7801,3.848,3.8993,3.8993,3.9921,4.1282,4.2657,4.4081,4.5473,4.6711,4.7588,4.8529,4.9746,4.9486,4.936,5.0396,5.0337,5.0479,5.143,5.2467,5.3378,5.4042,5.3989,5.3649,5.3055,5.2252,5.1988,5.2699,5.3846,5.4792,5.5365,5.5724,5.592,5.589,5.5617,5.5717,5.6256,5.6283,5.5984,5.5351,5.5925,5.5654,5.4545,5.4491,5.4491,5.4518,5.4491,5.4491,5.4491,5.4491,5.3782,5.2723,5.2723,5.2314,5.1772,5.1772,5.1772,5.1744,5.169,5.0958,4.9956,0.0,0.0,0.0,0.0,0.0,0.0,0.0,0.0,0.0,0.0,0.0,0.0,0.0,0.0,0.0,0.0,2.7042,2.7796,2.9681,3.1136,3.2359,3.3352,3.4885,3.5492,3.4994,3.5126,3.5139,3.5036,3.4901,3.556,3.6921,3.6868,3.7467,3.8635,3.8692,3.8907,3.9232,3.9227,3.9283,3.9361,3.8931,3.8601,3.8252,3.7024,3.5946,3.5029,0.0,3.452,3.4401,3.4723,3.4955,3.5286,3.6215,3.6548,3.6842,3.8147,3.9387,4.0535,4.1486,4.2661,4.4136,4.6192,4.7679,4.9046,5.0536,5.0968,5.1039,5.1089,4.9871,4.8828,4.9037,4.9093,4.9483,5.0499,5.2085,5.3588,5.47,5.398,5.3079,5.2546,5.1491,5.0933,5.1127,5.2452,5.3803,5.5048,5.5231,5.5534,5.6127,5.606,5.6088,5.6278,5.6685,5.6604,5.6007,5.6604,5.6685,5.631,5.5871,5.5491,5.5111,5.5111,5.4867,5.4518,5.4518,5.4026,5.3293,5.3293,5.294,5.2395,5.2395,5.2151,5.1799,5.1799,5.1527,5.1175,0.0,0.0,0.0,0.0,0.0,0.0,0.0,0.0,0.0,0.0,0.0,0.0,0.0,0.0,0.0,0.0,0.0,2.7945,2.901,3.0628,3.1773,3.2285,3.3394,3.3949,3.3908,3.3876,3.4061,3.4446,3.4485,3.5156,3.6336,3.6376,3.6921,3.7883,3.7908,3.8256,3.8804,3.8567,3.8567,3.8614,3.7973,3.7302,3.6527,3.5316,3.4394,0.0,3.2963,3.3355,3.4096,3.3896,3.438,3.5175,3.5825,3.656,3.7446,3.8804,4.0387,4.2108,4.402,4.5293,4.6674,4.9186,5.0438,5.1359,5.2691,5.2494,5.1907,5.1261,4.9529,4.8106,4.7967,4.7858,4.8301,4.9942,5.1708,5.3384,5.497,5.4042,5.3089,5.274,5.1459,5.0591,5.0591,5.1655,5.305,5.4692,5.5019,5.5459,5.6256,5.6495,5.6604,5.6604,5.6984,5.6902,5.6305,5.6685,5.6766,5.6549,5.617,5.5898,5.5735,5.5735,5.5518,5.5111,5.4921,5.446,5.389,5.3673,5.3375,5.3022,5.3022,5.2715,5.2301,5.2393,5.2363,5.222,0.0,0.0,0.0,0.0,0.0,0.0,0.0,0.0,0.0,0.0,0.0,0.0,0.0,0.0,0.0,0.0,0.0,0.0,2.8077,2.9405,3.0263,3.0487,3.0771,3.1289,3.2019,3.1698,3.2324,3.3906,3.4374,3.502,3.5836,3.623,3.6697,3.7165,3.6893,3.747,3.8557,3.7679,3.7298,3.7255,3.6626,3.5266,3.3455,3.2751,3.237,3.2127,3.1616,3.2279,3.3403,3.3158,3.3908,3.4971,3.5363,3.6961,3.8893,3.9901,4.1606,4.378,4.6595,4.7807,4.8933,5.1685,5.2333,5.2495,5.3148,5.2264,5.1081,5.0341,4.8607,4.7201,4.7129,4.6713,4.7198,4.9777,5.1385,5.3025,5.5059,5.4407,5.3707,5.3706,5.2154,5.1068,5.1041,5.1582,5.2696,5.4464,5.5084,5.5654,5.6305,5.6902,5.7233,5.7206,5.7233,5.6956,5.6359,5.6359,5.6061,5.5491,5.5491,5.579,5.6359,5.6359,5.6305,5.6224,5.5654,5.503,5.4436,5.3836,5.3592,5.3561,5.3592,5.3379,5.3163,5.347,5.3379,5.3001,0.0,0.0,0.0,0.0,0.0,0.0,0.0,0.0,0.0,0.0,0.0,0.0,0.0,0.0,0.0,0.0,0.0,0.0,2.7881,2.9079,2.9905,3.0256,3.0946,3.1308,3.1213,3.1679,3.2133,3.2503,3.2865,3.3602,3.4639,3.4392,3.4731,3.5502,3.5275,3.5528,3.6094,3.5869,3.5836,3.5938,3.5266,3.4697,3.41,3.2716,3.2175,3.2085,3.1805,3.211,3.2857,3.3985,3.5393,3.6952,3.862,3.9538,4.0572,4.3458,4.5454,4.7301,5.0121,5.1413,5.2378,5.4126,5.4211,5.3768,5.3466,5.2336,5.0893,4.9149,4.723,4.5665,4.5142,4.6158,4.7736,4.9837,5.2163,5.4551,5.7008,5.6364,5.5452,5.505,5.4179,5.3402,5.2968,5.3456,5.4379,5.5735,5.5138,5.5383,5.6875,5.7559,5.7667,5.7233,5.764,5.7586,5.6956,5.6956,5.6875,5.6739,5.6739,5.6821,5.6956,5.6956,5.6468,5.5627,5.5491,5.4813,5.3809,5.3646,5.344,5.3227,5.3501,5.3379,5.3163,5.347,5.3531,5.3443,0.0,0.0,0.0,0.0,0.0,0.0,0.0,0.0,0.0,0.0,0.0,0.0,0.0,0.0,0.0,0.0,0.0,0.0,0.0,2.851,2.9216,2.943,2.9997,3.0287,3.0309,3.0511,3.0725,3.098,3.1278,3.1938,3.2925,3.2864,3.327,3.4064,3.4015,3.4276,3.4753,3.455,3.4558,0.0,0.0,3.3427,3.2824,3.1744,3.1453,3.1588,3.1325,3.2328,3.4162,3.6588,3.7787,3.8699,4.1128,4.2132,4.2941,4.5888,4.8026,4.9936,5.2495,5.3673,5.4442,5.5336,5.4771,5.3731,5.2846,5.1316,4.9467,4.7435,4.5879,4.4568,4.3648,4.5095,4.716,4.9434,5.1798,5.4461,5.7636,5.719,5.6563,5.668,5.6039,5.5255,5.4464,5.4921,5.5573,5.6251,5.5654,5.5952,5.7532,5.7912,5.8075,5.7988,5.8313,5.821,5.7613,5.7342,5.7206,5.7206,5.7206,5.7206,5.7206,5.7206,5.6821,5.617,5.5925,5.541,5.4758,5.4514,5.4283,5.4129,5.4313,5.419,5.3916,5.4283,5.4286,5.4132,0.0,0.0,0.0,0.0,0.0,0.0,0.0,0.0,0.0,0.0,0.0,0.0,0.0,0.0,0.0,0.0,0.0,0.0,0.0,0.0,2.8404,2.8522,2.8634,2.8924,2.9428,2.9053,2.9143,2.9682,2.9905,3.0403,3.1142,3.1619,3.2091,3.2549,3.2761,3.3105,3.3597,3.3185,3.3081,3.32,3.2611,3.1819,3.0945,0.0,3.0585,3.0933,3.0802,3.2853,3.6122,3.9569,4.0398,4.049,4.3281,4.4658,4.5712,4.7931,5.002,5.2093,5.4244,5.5247,5.5707,5.5911,5.4687,5.3078,5.1748,4.9698,4.7497,4.5539,4.4548,4.3718,4.262,4.4068,4.6322,4.9097,5.1133,5.3743,5.7786,5.7488,5.7217,5.8225,5.7491,5.6624,5.5717,5.6115,5.6414,5.6414,5.6495,5.6984,5.8047,5.8265,5.8563,5.8992,5.8992,5.8666,5.7993,5.7477,5.7206,5.7206,5.7206,5.7206,5.7206,5.7206,5.7146,5.7038,5.6522,5.6251,5.6142,5.5627,5.5347,5.5284,5.5297,5.5055,5.4746,5.5037,5.4943,5.4556,0.0,0.0,0.0,0.0,0.0,0.0,0.0,0.0,0.0,0.0,2.3594,2.3271,0.0,0.0,0.0,0.0,0.0,0.0,0.0,0.0,0.0,2.8618,2.8705,2.8804,2.8995,2.9462,2.9645,2.9545,2.9959,3.0224,3.0323,3.0689,3.0598,3.0213,3.0623,3.0708,3.0557,3.0465,3.0623,3.0886,3.0763,3.0803,3.0885,3.0511,0.0,0.0,3.1723,3.3597,3.6135,3.9743,4.166,4.3021,4.575,4.7117,4.8224,5.0922,5.2708,5.4308,5.6466,5.7147,5.7139,5.6798,5.5165,5.3002,5.0611,4.844,4.6341,4.4117,4.3158,4.268,4.244,4.4436,4.7168,5.0361,5.2067,5.4581,5.9099,5.8225,5.7567,5.8792,5.7883,5.7099,5.6907,5.6956,5.7038,5.7038,5.7532,5.7885,5.8102,5.9052,5.9399,5.9019,5.8992,5.8476,5.7396,5.726,5.7206,5.7206,5.7206,5.7206,5.7206,5.7206,5.6929,5.6441,5.6359,5.6034,5.5573,5.5464,5.5064,5.46,5.4623,5.4278,5.3757,5.3866,5.3604,5.3144,0.0,0.0,0.0,0.0,0.0,0.0,0.0,0.0,2.2478,2.3227,2.3593,2.3643,2.3307,2.3699,0.0,0.0,0.0,0.0,0.0,0.0,0.0,0.0,2.8493,2.8759,2.8638,2.9255,2.9474,2.9296,0.0,2.9583,2.9891,3.0076,3.0169,3.0191,3.0417,3.0466,3.0356,3.0356,3.0549,3.0798,3.0658,3.0773,3.0941,0.0,0.0,0.0,3.2533,3.3997,3.5778,3.932,4.1551,4.3475,4.7273,4.8692,4.9541,5.2398,5.3688,5.4677,5.6807,5.7152,5.6752,5.629,5.4228,5.1612,4.9057,4.6722,4.4541,4.2382,4.2199,4.2291,4.1942,4.4287,4.7048,4.9314,5.1079,5.3773,5.8411,5.7832,5.76,5.9424,5.8609,5.7757,5.7238,5.7206,5.7342,5.764,5.8237,5.8557,5.8557,5.9399,5.9887,5.9914,5.9317,5.872,5.8123,5.783,5.7532,5.7206,5.7206,5.7206,5.7206,5.7206,5.7038,5.6766,5.6766,5.6604,5.6305,5.6007,5.5871,5.5805,5.5528,5.5249,5.4934,5.4712,5.4118,5.3286,0.0,0.0,0.0,0.0,0.0,0.0,0.0,2.1178,2.2006,2.2735,2.3544,2.3971,2.3714,2.4022,2.4489,0.0,0.0,0.0,0.0,0.0,0.0,0.0,0.0,0.0,2.8329,0.0,0.0,2.879,2.8597,0.0,0.0,0.0,0.0,0.0,3.0479,3.0535,3.0546,3.0546,3.0717,0.0,0.0,3.0826,3.0955,0.0,0.0,0.0,0.0,3.4154,3.5506,3.8891,4.0936,4.2837,4.721,4.9029,5.0005,5.2478,5.361,5.451,5.6444,5.6572,5.6024,5.5422,5.304,5.0224,4.7845,4.5403,4.3056,4.1145,4.155,4.2109,4.155,4.3888,4.639,4.8027,4.9703,5.2408,5.703,5.6998,5.7307,5.9535,5.8974,5.8111,5.7367,5.7238,5.745,5.8047,5.8774,5.9236,5.9371,5.9833,6.0274,6.06,5.967,5.9127,5.8992,5.8503,5.8042,5.7581,5.7445,5.7396,5.7396,5.7287,5.7206,5.7206,5.7206,5.7206,5.7146,5.6685,5.6653,5.6833,5.63,5.6002,5.5731,5.5096,5.4214,5.31,0.0,0.0,0.0,0.0,0.0,0.0,0.0,2.1442,2.223,2.2875,2.3732,2.4191,2.3986,2.4416,2.4871,0.0,0.0,0.0,0.0,0.0,0.0,0.0,0.0,0.0,0.0,0.0,0.0,2.7811,2.779,0.0,0.0,0.0,0.0,0.0,0.0,2.9832,2.9445,2.9445,0.0,0.0,0.0,0.0,0.0,0.0,0.0,0.0,0.0,3.4041,3.5725,3.8743,4.0154,4.1244,4.4359,4.7161,4.953,5.0515,5.2498,5.4624,5.5863,5.6177,5.5847,5.4857,5.2463,4.9823,4.7763,4.5225,4.2889,4.1304,4.1405,4.1739,4.1678,4.3208,4.5313,4.7878,4.8947,5.1094,5.5732,5.6021,5.6566,5.8604,5.8189,5.7752,5.7656,5.7367,5.745,5.8047,5.9188,6.0084,6.0627,6.0708,6.0491,5.9996,5.986,5.9534,5.9019,5.8937,5.8883,5.8829,5.8292,5.802,5.7993,5.745,5.7206,5.7206,5.7206,5.7206,5.7206,5.7119,5.666,5.5885,5.5609,5.4978,5.4069,5.285,5.205,5.1311,0.0,0.0,0.0,0.0,0.0,0.0,0.0,2.0792,2.1589,2.2259,2.3064,2.3704,2.4034,2.4252,2.4529,0.0,0.0,0.0,0.0,0.0,0.0,0.0,0.0,0.0,0.0,0.0,2.798,2.7871,2.7871,0.0,0.0,0.0,0.0,0.0,0.0,2.9642,2.9957,3.0011,0.0,0.0,0.0,0.0,0.0,0.0,0.0,0.0,0.0,0.0,3.5559,3.7154,3.8141,3.8815,3.9556,4.2201,4.5782,4.93,5.1361,5.2961,5.4929,5.5985,5.6053,5.4148,5.2098,4.98,4.6913,4.4412,4.2279,4.0876,4.1274,4.1903,4.1903,4.3313,4.4949,4.6422,4.7126,4.8865,5.2762,5.301,5.4021,5.724,5.7171,5.7056,5.7665,5.756,5.7808,5.859,5.9785,6.0545,6.079,6.0464,6.0328,6.0464,6.0111,5.9778,5.9534,5.9182,5.8992,5.8992,5.8015,5.7749,5.8075,5.7504,5.7206,5.7174,5.6821,5.6848,5.7124,5.6007,5.5781,5.5996,5.4868,5.4213,5.371,5.2251,5.1147,5.022,0.0,0.0,0.0,0.0,0.0,1.9719,1.9672,2.0409,2.1209,2.1901,2.2679,2.3414,2.4089,2.4156,2.4194,2.4409,0.0,0.0,0.0,0.0,0.0,0.0,0.0,0.0,0.0,0.0,2.7637,2.7513,2.7427,2.7476,0.0,0.0,2.8296,2.9184,0.0,0.0,0.0,0.0,0.0,0.0,0.0,0.0,0.0,0.0,0.0,0.0,0.0,0.0,0.0,0.0,0.0,3.7151,3.6856,3.8824,4.2109,4.6682,4.9418,5.1396,5.3234,5.4868,5.5521,5.3086,5.1336,4.9386,4.6284,4.3924,4.2003,4.0624,4.1278,4.2077,4.2077,4.3546,4.4911,4.5484,4.6211,4.7716,5.0642,5.1083,5.2351,5.5766,5.5847,5.6129,5.7347,5.7926,5.8494,5.9104,6.0009,6.0627,6.079,6.0247,6.0192,6.079,6.041,6.0192,6.0192,5.9724,5.9426,5.9236,5.8205,5.7885,5.8075,5.7504,5.7206,5.7174,5.6739,5.6794,5.7092,5.5474,5.5212,5.5649,5.3983,5.3217,5.2893,5.133,5.0265,4.9397,0.0,0.0,0.0,0.0,0.0,0.0,0.0,2.0583,2.1368,2.2089,2.2828,2.3537,2.4233,2.4247,2.4151,2.4006,0.0,0.0,0.0,0.0,0.0,0.0,0.0,0.0,0.0,0.0,2.6312,2.6312,2.6059,2.6274,2.692,2.7179,2.8068,2.9407,0.0,0.0,0.0,0.0,0.0,0.0,0.0,0.0,0.0,0.0,0.0,0.0,0.0,0.0,0.0,0.0,0.0,0.0,0.0,3.8136,3.9207,4.204,4.6349,5.0288,5.0625,5.2565,5.3883,5.1596,5.0018,4.8418,4.6128,4.4048,4.2184,4.0799,4.1457,4.2297,4.2297,4.3777,4.5142,4.5534,4.6728,4.8199,5.0064,5.1,5.2206,5.4195,5.426,5.4887,5.6726,5.8484,5.9489,5.9489,5.9763,6.0192,6.0762,6.0247,6.0192,6.079,6.079,6.079,6.079,6.079,6.0491,5.986,5.9263,5.8666,5.8075,5.7504,5.7206,5.7206,5.7174,5.7174,5.7109,5.6045,5.5241,5.453,5.2886,5.1863,5.1138,4.9604,4.9015,4.8853,0.0,0.0,0.0,0.0,0.0,0.0,0.0,2.0163,2.0782,2.2024,2.2394,2.301,2.4169,2.4266,2.4196,2.4066,0.0,0.0,0.0,0.0,0.0,0.0,0.0,0.0,0.0,0.0,2.7045,2.6915,2.6649,2.6891,2.7555,2.6994,2.7542,2.891,2.8977,2.9255,0.0,0.0,0.0,0.0,0.0,0.0,3.0764,0.0,0.0,0.0,0.0,0.0,0.0,0.0,0.0,0.0,0.0,0.0,0.0,3.838,4.2591,4.7158,4.7952,4.9844,5.1025,4.8549,4.7395,4.6342,4.4192,4.2785,4.1648,4.0707,4.1563,4.2511,4.2511,4.362,4.5177,4.7138,4.6846,4.7266,4.9809,5.0973,5.2168,5.3725,5.588,5.7478,5.8063,5.9179,5.9759,5.9522,6.0319,6.0838,6.079,6.0627,6.06,6.079,6.0817,6.0817,6.0817,6.041,6.0301,6.0518,5.9079,5.8476,5.8666,5.7635,5.7206,5.7114,5.5971,5.5732,5.5986,5.4026,5.3325,5.3388,5.1731,5.0972,5.0614,4.9065,4.8528,4.8412,0.0,0.0,0.0,0.0,0.0,0.0,0.0,2.0192,2.0858,2.2093,2.2494,2.3086,2.4275,2.4379,2.4325,2.4275,0.0,0.0,0.0,0.0,0.0,0.0,0.0,0.0,0.0,2.7602,2.7469,2.7353,2.7093,2.7112,2.7462,2.6962,2.7298,2.837,2.8416,2.8679,0.0,0.0,0.0,0.0,0.0,0.0,3.0562,0.0,0.0,0.0,0.0,0.0,0.0,0.0,0.0,0.0,0.0,0.0,0.0,0.0,3.9696,4.3005,4.474,4.687,4.8187,4.6535,4.5734,4.4899,4.3169,4.2226,4.1476,4.0749,4.1683,4.262,4.2674,4.4023,4.5699,4.7283,4.6858,4.7184,4.9628,5.0518,5.1701,5.3782,5.6497,5.8305,5.8529,5.9551,6.0202,6.0221,6.067,6.0954,6.0995,6.0668,6.0572,6.079,6.0817,6.0817,6.0817,6.0219,5.9941,6.0111,5.8753,5.8183,5.8286,5.7526,5.6979,5.6563,5.5477,5.5011,0.0,5.2951,5.2405,5.259,5.0981,5.0219,4.9931,4.8971,4.8561,4.8493,0.0,0.0,0.0,0.0,0.0,0.0,0.0,0.0,0.0,2.2205,2.2947,2.3703,2.4513,2.4555,2.4508,2.4508,0.0,0.0,0.0,0.0,0.0,0.0,0.0,0.0,0.0,2.7725,2.7649,2.7649,2.7384,2.7152,2.6934,2.7071,2.7366,2.7841,2.7955,2.8049,0.0,0.0,0.0,0.0,0.0,0.0,0.0,0.0,0.0,0.0,0.0,0.0,0.0,0.0,0.0,0.0,0.0,0.0,0.0,0.0,0.0,0.0,0.0,4.3622,4.5282,4.5177,4.4652,4.3854,4.2918,4.2178,0.0,4.0938,4.1771,4.2638,4.2819,4.4871,4.6513,4.6528,4.6924,4.7843,4.9548,5.0006,5.1333,5.4485,5.6423,5.7744,5.8306,5.9707,6.0765,6.129,6.0805,6.0706,6.122,6.0416,6.0247,6.079,6.0762,6.0762,6.0817,6.0247,5.967,5.9127,5.8482,5.7885,5.7309,5.7163,5.653,5.5584,5.5419,5.476,5.3691,5.2623,5.2174,5.202,5.0499,4.96,4.9167,4.9177,4.9044,4.8965,0.0,0.0,0.0,0.0,0.0,0.0,0.0,0.0,0.0,0.0,2.3005,2.378,2.4522,2.4605,2.4597,0.0,0.0,0.0,0.0,0.0,0.0,0.0,0.0,0.0,0.0,2.7768,2.8053,2.8053,2.7854,2.7915,2.8252,2.7557,2.752,2.8041,2.8066,2.8126,0.0,0.0,0.0,0.0,0.0,0.0,0.0,0.0,0.0,0.0,3.1806,3.2449,0.0,0.0,0.0,0.0,0.0,0.0,0.0,0.0,3.6952,3.7544,3.906,0.0,4.0594,4.1524,4.1517,4.1321,0.0,4.1344,4.1,4.0845,4.1771,4.2774,4.3322,4.4733,4.6511,4.8593,4.8028,4.8181,5.0583,5.2399,5.4458,5.7128,5.8221,5.884,5.898,6.0177,6.0918,6.0738,6.1171,6.1222,6.0645,6.058,6.0654,6.0817,6.0355,6.0355,6.0817,6.0654,6.0518,6.0382,5.929,5.872,5.8497,5.6762,5.5842,5.5485,5.3818,5.2932,5.2588,5.1527,5.106,5.1011,5.021,4.9817,4.9707,4.9596,4.9548,4.9519,0.0,0.0,0.0,0.0,0.0,0.0,0.0,0.0,0.0,0.0,0.0,0.0,0.0,0.0,0.0,0.0,0.0,0.0,0.0,0.0,0.0,0.0,0.0,0.0,2.7069,2.7521,2.7915,2.8273,2.8136,2.8116,2.8288,2.7734,2.7585,2.7795,2.7827,2.7844,0.0,0.0,0.0,0.0,2.7673,0.0,0.0,0.0,0.0,0.0,3.1724,3.2234,0.0,3.3784,3.4342,3.4778,0.0,0.0,0.0,0.0,3.6408,3.6423,3.7785,3.842,3.9006,4.0341,4.0561,4.0605,4.1166,4.1105,4.1027,4.1324,4.2058,4.2835,4.3544,4.4999,4.6634,4.845,4.8241,4.8793,5.1565,5.3465,5.5524,5.7997,5.8587,5.9121,5.9992,6.0694,6.1103,6.1161,6.1725,6.1669,6.0694,6.0872,6.0852,6.041,6.0084,6.0192,6.079,6.0274,5.9941,5.9941,5.9019,5.8257,5.7629,5.6398,5.5313,5.4283,5.3094,5.2199,5.1527,5.0943,5.0696,5.0672,5.0359,5.0129,4.9924,5.0281,5.0352,5.0318,0.0,0.0,0.0,0.0,0.0,0.0,0.0,0.0,0.0,0.0,0.0,0.0,0.0,0.0,0.0,0.0,0.0,0.0,0.0,0.0,0.0,0.0,0.0,2.5434,2.6805,2.6949,2.7423,2.8226,2.8224,2.8081,2.7832,2.7865,2.7745,2.7419,2.7488,2.7488,0.0,0.0,0.0,0.0,2.795,0.0,0.0,0.0,0.0,0.0,0.0,0.0,0.0,3.3763,3.4245,3.447,3.5882,0.0,0.0,0.0,0.0,0.0,3.7268,3.8305,3.9208,4.0372,4.0626,4.0718,4.1233,4.1237,4.1307,4.2011,4.2412,4.289,4.3796,4.5488,4.6973,4.765,4.8519,5.0081,5.2766,5.4203,5.5833,5.8053,5.8474,5.9205,6.0807,6.1031,6.134,6.1959,6.2162,6.1825,6.0966,6.1066,6.0777,5.9948,5.9697,5.9853,6.0347,5.9474,5.8925,5.8825,5.8235,5.7273,5.604,5.5796,5.4679,5.2879,5.2707,5.19,5.0696,5.0696,5.0696,5.0696,5.0696,5.0442,5.0186,5.0995,5.1258,5.126,0.0,0.0,0.0,0.0,0.0,0.0,0.0,0.0,0.0,0.0,0.0,0.0,0.0,0.0,0.0,0.0,0.0,0.0,0.0,0.0,0.0,0.0,2.4688,2.4931,2.5147,2.5829,2.6621,2.7487,2.8011,2.8178,2.7989,2.8539,2.8318,2.7488,2.7557,2.7579,2.7579,0.0,0.0,0.0,2.7932,0.0,0.0,0.0,0.0,0.0,0.0,0.0,0.0,3.3271,3.3921,3.4507,3.5367,0.0,0.0,0.0,0.0,0.0,3.7737,3.9121,4.004,3.9973,4.0277,4.0767,4.1398,4.1406,4.1493,4.2214,4.2576,4.3177,4.4471,4.6217,4.7681,4.8337,5.0647,5.3001,5.4826,5.617,5.7294,5.8193,5.9174,5.9932,6.0213,6.0778,6.134,6.1959,6.171,6.1353,6.0905,6.0654,6.0346,5.9921,5.8916,5.8346,5.8333,5.8772,5.8691,5.8066,5.7478,5.6731,5.5887,5.4455,5.347,5.2845,5.1876,5.1165,5.0696,5.0696,5.0696,5.0696,5.0696,5.08,5.1079,5.1527,5.1921,5.2149,0.0,0.0,0.0,0.0,0.0,0.0,0.0,0.0,0.0,0.0,0.0,0.0,0.0,0.0,0.0,0.0,0.0,0.0,0.0,0.0,0.0,2.4518,2.4522,2.4673,2.499,2.5793,2.6649,2.7477,2.8517,2.8951,2.8889,2.8975,2.8601,2.7773,2.7795,2.7817,2.7817,2.7889,0.0,0.0,0.0,0.0,0.0,0.0,0.0,0.0,0.0,0.0,0.0,0.0,3.3992,3.4644,3.539,0.0,0.0,0.0,0.0,0.0,3.6734,3.8079,3.921,3.9312,4.0578,4.1799,4.1653,4.1754,4.2185,4.3253,4.3421,4.3802,4.5203,4.6927,4.8802,5.0757,5.2729,5.4347,5.5361,5.6283,5.735,5.8643,5.9258,5.9876,6.0582,6.0919,6.1228,6.1481,6.1655,6.1328,6.0468,6.0579,6.0137,5.8943,5.7977,5.7323,5.6904,5.6871,5.683,5.6811,5.6547,5.5887,5.4831,5.4099,5.3325,5.2594,5.1866,5.1306,5.0954,5.0767,5.0696,5.0696,5.0696,5.0884,5.1282,5.19,5.2377,5.2585,0.0,0.0,0.0,0.0,0.0,0.0,0.0,0.0,0.0,0.0,0.0,0.0,0.0,0.0,0.0,0.0,0.0,0.0,0.0,0.0,2.4685,2.4666,2.4505,2.47,2.5278,2.5878,2.664,2.7675,2.8778,2.9379,2.9475,2.9048,2.8563,2.8011,2.8053,2.806,2.8067,2.8081,2.8116,0.0,0.0,0.0,0.0,0.0,0.0,0.0,0.0,0.0,0.0,0.0,0.0,0.0,0.0,0.0,0.0,3.6156,3.5622,3.5167,3.5744,3.7124,3.8387,3.8424,4.0561,4.2564,4.2176,4.2404,4.3165,4.4863,4.4929,4.5104,4.6458,4.8101,5.0213,5.317,5.4548,5.5451,5.6063,5.6676,5.7629,5.9202,5.9539,6.0048,6.1003,6.1088,6.1172,6.1312,6.1481,6.1189,6.0378,6.0413,5.9786,5.826,5.7282,5.6458,5.5842,5.512,5.4987,5.5463,5.5463,5.4849,5.3759,5.3759,5.3247,5.2352,5.2064,5.1656,5.1176,5.0919,5.0767,5.0696,5.0696,5.0978,5.1446,5.2144,5.2585,5.2688,0.0,0.0,0.0,0.0,0.0,0.0,0.0,0.0,0.0,0.0,0.0,0.0,0.0,0.0,0.0,0.0,0.0,0.0,0.0,0.0,2.4943,2.4881,2.4863,2.5059,2.5465,2.5483,2.6276,2.788,2.8269,2.873,2.9123,2.8472,2.8145,2.8081,2.8219,2.828,2.8286,2.834,2.8367,2.8445,0.0,0.0,0.0,0.0,0.0,0.0,0.0,0.0,0.0,0.0,0.0,0.0,0.0,0.0,3.6273,3.6273,3.5622,3.506,3.5719,3.7216,3.833,3.7309,3.9524,4.2246,4.3332,4.3597,4.4369,4.71,4.7263,4.7399,4.8792,5.0249,5.2007,5.4465,5.5827,5.6937,5.795,5.8643,5.9258,5.996,6.0582,6.1003,6.1088,6.1088,6.134,6.1902,6.0859,6.0558,6.1262,5.9991,5.9031,5.8591,5.6977,5.5829,5.5087,5.441,5.4098,5.415,5.415,5.3742,5.2998,5.2998,5.2792,5.2412,5.2377,5.1935,5.1211,5.1176,5.0989,5.0696,5.0696,5.1119,5.182,5.2238,5.2412,5.2317,0.0,0.0,0.0,0.0,0.0,0.0,0.0,0.0,0.0,0.0,0.0,0.0,0.0,0.0,0.0,0.0,0.0,0.0,0.0,0.0,2.505,2.5028,2.4898,2.5156,2.5802,2.6176,2.6879,2.7916,2.8833,2.9303,2.9412,2.9161,2.8781,2.828,2.8333,2.8386,2.8432,2.8458,2.8517,2.8666,2.9452,0.0,0.0,0.0,0.0,0.0,0.0,0.0,0.0,0.0,3.3917,3.4435,3.4801,3.5219,3.5656,3.6051,3.5949,3.5729,3.5824,3.7872,3.9787,3.871,4.0923,4.3397,4.3634,4.4703,4.6297,4.8667,4.8808,4.896,5.0503,5.1386,5.259,5.4733,5.5873,5.6807,5.7636,5.8924,5.9988,6.0666,6.0947,6.1088,6.1088,6.0722,6.055,6.0803,6.0381,6.0138,6.0264,5.9552,5.8562,5.7402,5.608,5.5087,5.4376,5.3691,5.3316,5.3316,5.3316,5.3145,5.2895,5.2895,5.2826,5.2688,5.2481,5.2213,5.19,5.1411,5.1106,5.1025,5.1295,5.1376,5.1516,5.2144,5.2238,5.196,0.0,0.0,0.0,0.0,0.0,0.0,0.0,0.0,0.0,0.0,0.0,0.0,0.0,0.0,0.0,0.0,0.0,0.0,2.5129,2.5129,2.5135,2.5144,2.498,2.527,2.6042,2.6685,2.7331,2.7943,2.9028,2.9445,2.9287,2.9314,2.9032,2.8497,2.8517,2.8549,2.86,2.86,2.8656,2.8816,2.9883,3.0667,0.0,0.0,0.0,0.0,0.0,0.0,0.0,0.0,3.3931,3.4187,3.4861,3.5132,3.5314,3.5958,3.6197,3.6204,3.5947,3.7814,3.9822,3.9469,4.1689,4.4172,4.5031,4.6375,4.8149,5.0517,5.0952,5.119,5.2195,5.2624,5.3367,5.5174,5.6165,5.7013,5.7856,5.9174,6.0269,6.075,6.0975,6.1031,6.0807,6.0353,6.01,6.01,5.9904,5.9809,5.9755,5.8948,5.7937,5.679,5.5419,5.4477,5.3997,5.3247,5.2895,5.2895,5.2895,5.2895,5.2895,5.2895,5.2895,5.2895,5.2654,5.2515,5.2377,5.1796,5.1516,5.1411,5.1551,5.1516,5.1446,5.1866,5.1831,5.1551,0.0,0.0,0.0,0.0,0.0,0.0,0.0,0.0,0.0,0.0,0.0,0.0,0.0,0.0,0.0,0.0,0.0,0.0,2.5187,2.5193,2.5204,2.519,2.5138,2.5428,2.6184,2.6775,2.7433,2.8098,2.864,2.8804,2.86,2.8681,2.8712,2.8718,2.8773,2.8798,2.8798,2.8798,2.8834,2.8943,3.0554,3.121,3.1472,0.0,0.0,0.0,0.0,0.0,0.0,0.0,3.3585,3.4329,3.4989,3.5302,3.5501,3.6129,3.6355,3.6358,3.607,3.6865,3.8019,3.9159,4.146,4.4327,4.775,4.8739,4.9789,5.2792,5.3951,5.4309,5.3989,5.4022,5.4557,5.5971,5.6848,5.78,5.9036,5.9707,6.01,6.01,6.0694,6.0835,6.0157,6.01,6.01,6.01,5.9539,5.9455,6.0044,5.8182,5.7114,5.7082,5.508,5.3997,5.3997,5.3247,5.2895,5.2895,5.2895,5.2895,5.2895,5.2895,5.2895,5.2895,5.2895,5.2723,5.2412,5.2412,5.2169,5.1751,5.1376,5.1446,5.1751,5.1376,5.1211,5.1141,0.0,0.0,0.0,0.0,0.0,0.0,0.0,0.0,0.0,0.0,0.0,0.0,0.0,0.0,0.0,0.0,0.0,0.0,2.519,2.5193,2.5176,2.5133,2.5063,2.5104,2.5298,2.6397,2.758,2.8792,2.883,2.8798,2.8737,2.8761,2.8773,2.881,2.9381,2.9679,2.9728,2.9765,3.0113,3.0674,3.1188,3.172,3.2304,0.0,0.0,0.0,0.0,0.0,0.0,0.0,0.0,0.0,3.499,3.5302,3.5625,3.6032,3.665,3.7139,3.6978,3.8784,4.0925,4.1784,4.3832,4.6342,4.901,5.0109,5.1265,5.3622,5.5416,5.6194,5.4848,5.494,5.543,5.6113,5.668,5.7394,5.8421,5.9426,6.01,6.01,6.0269,6.0325,6.0129,5.9707,5.9455,5.9455,5.9286,5.8948,5.836,5.755,5.6536,5.5319,5.4443,5.3759,5.3213,5.3033,5.2895,5.2895,5.2895,5.2895,5.2895,5.2895,5.2895,5.2895,5.2895,5.2826,5.2723,5.2515,5.2005,5.1411,5.1551,5.1401,5.1049,5.1165,5.106,5.0837,0.0,0.0,0.0,0.0,0.0,0.0,0.0,0.0,0.0,0.0,0.0,0.0,0.0,0.0,0.0,0.0,0.0,0.0,0.0,2.5217,2.5212,2.5181,2.5072,2.5222,2.5692,2.65,2.7756,2.9528,2.9411,2.9351,2.9351,2.9351,2.9539,2.9838,3.0021,3.0283,3.0687,3.1011,3.1268,3.155,3.2176,3.2532,3.2807,0.0,0.0,0.0,0.0,0.0,0.0,0.0,0.0,0.0,3.5252,3.5425,3.5486,3.6045,3.6797,3.7552,3.7711,3.9643,4.1987,4.3542,4.5552,4.801,5.1192,5.2537,5.3639,5.5627,5.6809,5.7146,5.5976,5.5936,5.6102,5.627,5.6622,5.7231,5.817,5.9149,5.9735,5.9735,5.996,6.0016,5.9763,5.9398,5.9174,5.9174,5.8802,5.827,5.7638,5.6607,5.5584,5.4518,5.3869,5.335,5.2895,5.2895,5.2895,5.2895,5.2895,5.2895,5.2895,5.2895,5.2895,5.2895,5.2895,5.2895,5.2861,5.255,5.2179,5.1866,5.1656,5.1401,5.1119,5.1025,5.0873,5.0696,0.0,0.0,0.0,0.0,0.0,0.0,0.0,0.0,0.0,0.0,0.0,0.0,0.0,0.0,0.0,0.0,0.0,0.0,0.0,0.0,2.5316,2.5295,2.5174,2.5646,2.6781,2.6925,2.8005,2.9989,3.0136,3.021,3.0216,3.0289,3.0662,3.1262,3.0705,3.0931,3.1765,3.239,3.236,3.204,3.3295,3.3449,3.3087,3.4639,0.0,0.0,0.0,0.0,0.0,0.0,0.0,0.0,3.5812,3.5744,3.5563,3.6286,3.7001,3.7778,3.8514,3.991,4.1856,4.4687,4.6936,4.9563,5.3734,5.5314,5.6342,5.8059,5.8009,5.7621,5.723,5.6928,5.665,5.6509,5.6703,5.7231,5.817,5.8783,5.9121,5.9121,5.9651,5.9763,5.9205,5.9177,5.9174,5.9174,5.8206,5.7574,5.7478,5.5558,5.4477,5.4376,5.3418,5.2895,5.2895,5.2895,5.2895,5.2895,5.2895,5.2895,5.2895,5.2895,5.2895,5.2895,5.2895,5.2895,5.2895,5.2585,5.2619,5.2757,5.1691,5.1446,5.1681,5.0943,5.0696,5.0696,0.0,0.0,0.0,0.0,0.0,0.0,0.0,0.0,0.0,0.0,0.0,0.0,0.0,0.0,0.0,0.0,0.0,0.0,0.0,0.0,2.5293,2.522,2.5691,2.5933,2.5964,2.7266,2.8056,2.8306,2.9586,3.0233,3.0293,3.0918,3.0991,3.0669,3.1764,3.273,3.3493,3.3044,3.3487,3.4405,3.3469,3.3383,3.3869,3.4896,3.5256,0.0,0.0,0.0,0.0,0.0,0.0,0.0,3.6744,3.7268,3.7925,3.7831,3.8072,3.8627,3.9893,4.1418,4.3329,4.6209,4.9448,5.2409,5.4289,5.5538,5.661,5.7543,5.8503,5.8935,5.8053,5.7703,5.7438,5.7225,5.7017,5.7231,5.817,5.8418,5.8502,5.8502,5.9036,5.9177,5.8559,5.8924,5.9174,5.9174,5.8206,5.7253,5.6444,5.5187,5.4106,5.3282,5.3033,5.2895,5.2895,5.2895,5.2895,5.2895,5.2895,5.2895,5.2895,5.2895,5.2895,5.2895,5.2895,5.2895,5.2895,5.2826,5.2688,5.2446,5.1866,5.1516,5.1271,5.0873,5.0696,5.0696,0.0,0.0,0.0,0.0,0.0,0.0,0.0,0.0,0.0,0.0,0.0,0.0,0.0,0.0,0.0,0.0,0.0,0.0,0.0,0.0,2.5436,2.5718,2.6063,2.6458,2.6898,2.775,2.8449,2.8962,2.9804,3.0465,3.0905,3.1746,3.2109,3.2145,3.3025,3.3672,3.4111,3.4474,3.4678,3.479,3.471,3.4685,3.4757,3.5581,3.5816,3.5821,3.6227,0.0,0.0,0.0,0.0,0.0,0.0,0.0,3.745,3.7627,3.7855,3.8447,4.0227,4.2131,4.459,4.8683,5.1375,5.3379,5.4898,5.5899,5.6626,5.705,5.8233,5.8996,5.8237,5.8028,5.7786,5.7024,5.6763,5.6955,5.7748,5.7856,5.7969,5.8278,5.8587,5.8531,5.7912,5.8137,5.8149,5.7657,5.6872,5.5982,5.4998,5.4188,5.3487,5.2929,5.2895,5.2895,5.2895,5.2895,5.2895,5.2895,5.2895,5.2895,5.2895,5.2895,5.2895,5.2895,5.2895,5.2895,5.2895,5.2895,5.2792,5.2619,5.2238,5.1831,5.1446,5.106,5.0837,5.0696,0.0,0.0,0.0,0.0,0.0,0.0,0.0,0.0,0.0,0.0,0.0,0.0,0.0,0.0,0.0,0.0,0.0,0.0,0.0,0.0,0.0,2.627,2.6571,2.7203,2.8212,2.8356,2.8968,3.0048,3.0384,3.0929,3.1752,3.2496,3.3266,3.4055,3.4098,3.4277,3.4618,3.5658,3.5519,3.4736,3.5928,3.6087,3.571,3.6472,3.6692,0.0,3.6735,3.6825,3.6905,3.6822,0.0,0.0,0.0,0.0,3.6737,3.7308,3.7697,3.8372,4.0541,4.2991,4.6061,5.0658,5.2385,5.3351,5.4974,5.5821,5.6248,5.621,5.7451,5.8446,5.8045,5.7974,5.7612,5.6566,5.6337,5.6561,5.73,5.7294,5.7463,5.8053,5.8137,5.7884,5.7266,5.7171,5.6829,5.6111,5.529,5.4524,5.3756,5.3182,5.2795,5.2619,5.2795,5.2845,5.2744,5.2845,5.2895,5.2895,5.2895,5.2895,5.2895,5.2895,5.2895,5.2895,5.2895,5.2895,5.2895,5.2895,5.2895,5.2861,5.255,5.2169,5.1751,5.1376,5.0989,5.0696,0.0,0.0,0.0,0.0,0.0,0.0,0.0,0.0,0.0,0.0,0.0,0.0,0.0,0.0,0.0,0.0,0.0,0.0,2.5303,0.0,0.0,2.6308,2.7742,2.8495,2.8378,2.8989,2.9367,2.9418,3.0781,0.0,0.0,0.0,0.0,3.4154,3.4191,3.4983,3.6253,3.5014,3.5243,3.6303,3.5844,3.5993,3.6617,3.7428,0.0,0.0,0.0,3.8426,3.8226,3.7982,3.8071,0.0,0.0,0.0,3.9042,3.9086,3.9306,4.0021,4.2122,4.5256,4.8315,4.9963,5.154,5.276,5.327,5.4307,5.5031,5.4396,5.621,5.782,5.7455,5.7231,5.6936,5.6451,5.6221,5.6356,5.727,5.6901,5.6788,5.7435,5.7519,5.7266,5.662,5.6257,5.6228,5.6561,5.4887,5.3855,5.3723,5.3182,5.2443,5.1523,5.2427,5.2669,5.2226,5.2644,5.2895,5.2895,5.2895,5.2895,5.2895,5.2895,5.2895,5.2895,5.2895,5.2895,5.2895,5.2895,5.2895,5.2861,5.255,5.2169,5.1751,5.1376,5.0989,5.0696,0.0,0.0,0.0,0.0,0.0,0.0,0.0,0.0,0.0,0.0,0.0,0.0,0.0,0.0,0.0,2.519,2.5228,2.526,2.5288,2.613,2.6732,2.7017,2.8213,2.8973,2.9121,2.9415,2.9483,2.9317,3.0484,0.0,0.0,3.3419,3.434,0.0,0.0,3.6191,3.6042,3.6191,3.6191,3.6086,3.66,3.7013,0.0,0.0,0.0,0.0,0.0,0.0,3.8396,3.8176,3.825,3.8386,3.8174,0.0,0.0,0.0,3.9331,3.9915,4.2862,4.5435,4.7923,5.0612,5.1455,5.2075,5.3734,5.4357,5.451,5.4086,5.5385,5.6631,5.6678,5.6649,5.6561,5.6394,5.6308,5.6502,5.73,5.6816,5.6648,5.7322,5.7069,5.6592,5.5973,5.525,5.4736,5.4421,5.3328,5.2471,5.1882,5.1942,5.1774,5.1297,5.1749,5.2026,5.2101,5.2352,5.2594,5.2895,5.2895,5.2895,5.2895,5.2895,5.2895,5.2895,5.2895,5.2895,5.2895,5.2895,5.2895,5.2895,5.2757,5.2342,5.181,5.1929,5.1627,5.1177,0.0,0.0,0.0,0.0,0.0,0.0,0.0,0.0,0.0,0.0,0.0,0.0,0.0,0.0,0.0,0.0,2.5234,2.5344,2.5613,2.6643,2.7443,2.794,2.8768,2.9429,2.9805,2.9708,2.965,2.9697,0.0,0.0,3.3592,3.4457,3.5708,0.0,3.7529,3.7046,0.0,0.0,3.7009,3.6191,3.7417,0.0,0.0,0.0,0.0,0.0,0.0,0.0,3.8801,3.8779,3.8789,3.8773,3.8561,3.8684,0.0,0.0,0.0,3.9945,4.2837,4.4801,4.6828,5.0269,5.087,5.124,5.351,5.388,5.3735,5.3674,5.4463,5.5332,5.5886,5.6213,5.6412,5.6394,5.6394,5.6619,5.73,5.6816,5.6704,5.7519,5.6901,5.6108,5.5453,5.4309,5.3315,5.2492,5.1849,5.1208,5.0451,5.1096,5.1297,5.087,5.1272,5.1624,5.19,5.2176,5.2494,5.2895,5.2895,5.2895,5.2895,5.2895,5.2895,5.2895,5.2895,5.2895,5.2895,5.2895,5.2895,5.2895,5.2895,5.2446,5.187,5.2228,5.2012,5.1537,0.0,0.0,0.0,0.0,0.0,0.0,0.0,0.0,0.0,0.0,0.0,0.0,0.0,2.5198,2.519,2.519,2.5275,2.5651,2.6464,2.8049,2.898,2.8938,2.9684,0.0,3.0065,2.9893,3.0122,0.0,0.0,0.0,3.5374,3.6191,3.7417,3.8897,3.7417,3.7157,3.7714,0.0,0.0,0.0,0.0,0.0,0.0,0.0,0.0,0.0,0.0,3.9969,3.9992,4.051,4.0329,3.9866,3.9615,3.9659,3.979,0.0,0.0,0.0,4.1855,4.364,4.5718,4.7707,4.9079,5.0202,5.1173,5.1819,5.2276,5.2452,5.31,5.3989,5.5211,5.5968,5.6412,5.6394,5.6394,5.6619,5.73,5.6816,5.6843,5.8109,5.7182,5.6037,5.5105,5.3585,5.2461,5.1972,5.102,5.0451,5.0386,5.1473,5.1322,4.9741,5.1222,5.1825,5.1356,5.2352,5.287,5.2895,5.2895,5.2895,5.2895,5.2895,5.2895,5.2895,5.2895,5.2895,5.2895,5.2895,5.2895,5.2895,5.2895,5.2446,5.182,5.1845,5.1696,5.1489,0.0,0.0,0.0,0.0,0.0,0.0,0.0,0.0,0.0,0.0,0.0,0.0,0.0,2.602,2.6244,2.68,2.6935,2.7082,2.7393,2.8524,2.9121,2.9057,2.98,3.0418,3.0906,3.0764,3.1284,0.0,0.0,3.3738,3.5522,3.6303,3.7269,3.8346,3.8272,3.8123,3.79,3.816,0.0,0.0,0.0,0.0,0.0,0.0,0.0,3.9991,4.0644,4.0834,4.0814,4.0664,4.0745,4.0802,4.0297,4.041,4.0608,4.0027,4.0648,4.1569,4.192,4.3231,4.5016,4.693,4.7713,4.8596,5.0774,5.1136,5.1402,5.2766,5.2986,5.3297,5.4604,5.5358,5.592,5.6308,5.6394,5.6477,5.6737,5.6534,5.6732,5.7603,5.6598,5.5615,5.5069,5.3151,5.18,5.1416,5.0447,4.9891,4.9891,5.0268,5.0218,4.9615,5.0519,5.1096,5.1306,5.2026,5.2402,5.2402,5.2719,5.2895,5.2895,5.2895,5.2895,5.2895,5.2895,5.2895,5.2895,5.2895,5.2895,5.2895,5.2895,5.2619,5.2243,5.2678,5.2594,5.2393,0.0,0.0,0.0,0.0,0.0,0.0,0.0,0.0,0.0,0.0,0.0,0.0,0.0,0.0,2.7103,2.7647,2.803,2.8219,2.8192,2.9051,2.966,2.9848,3.0327,3.0951,3.1751,3.1674,3.2165,0.0,0.0,0.0,0.0,3.6451,3.7269,3.8346,3.8859,3.8785,0.0,0.0,3.9238,3.8829,3.961,3.9937,4.0011,4.0576,4.0784,4.0844,4.1487,4.162,4.1523,4.1642,4.1624,4.1512,0.0,0.0,4.0848,4.0254,4.0772,4.1616,4.192,4.281,4.422,4.65,4.6611,4.6936,4.9916,5.0146,5.027,5.2034,5.2314,5.263,5.3936,5.449,5.5021,5.5791,5.5851,5.5794,5.5926,5.6032,5.6334,5.6964,5.6126,5.5276,5.4697,5.2793,5.1377,5.081,5.004,4.959,4.959,4.9766,4.9866,4.9866,5.0218,5.0594,5.0996,5.1724,5.2101,5.2126,5.2619,5.2895,5.2895,5.2895,5.2895,5.2895,5.2895,5.2895,5.2895,5.2895,5.2895,5.292,5.3096,5.2938,5.2715,5.3242,5.3264,5.3108,0.0,0.0,0.0,0.0,0.0,0.0,0.0,0.0,0.0,0.0,0.0,0.0,0.0,0.0,0.0,2.7566,2.8442,2.8934,2.889,2.9802,3.0657,3.1306,3.1332,3.1707,3.2534,3.2543,3.2807,3.3403,3.346,3.4575,3.6748,0.0,3.7566,3.9082,3.912,3.9157,3.9194,4.0055,4.0427,4.0538,4.1311,4.1646,4.1653,4.1646,4.1631,4.1659,4.2335,4.2331,4.2195,4.3553,4.3089,4.2061,0.0,0.0,0.0,0.0,0.0,4.1015,0.0,0.0,0.0,4.6148,4.5672,4.5295,4.8424,4.8775,4.8826,5.0129,5.1032,5.1965,5.3239,5.3471,5.3801,5.4774,5.4675,5.4626,5.4941,5.5276,5.5681,5.6157,5.5767,5.5046,5.3954,5.2471,5.1157,5.0168,4.9783,4.9622,4.959,5.0092,5.0361,5.0386,5.0361,5.0361,5.0386,5.1523,5.2076,5.2076,5.2619,5.2895,5.2895,5.2895,5.2895,5.2895,5.2895,5.2895,5.2895,5.2895,5.2895,5.2945,5.3482,5.3498,5.3211,5.3329,5.3509,5.3582,0.0,0.0,0.0,0.0,0.0,0.0,0.0,0.0,0.0,0.0,0.0,0.0,0.0,0.0,2.9378,2.9303,3.0125,3.0639,3.0685,3.1481,3.208,3.2286,3.2274,3.261,3.3426,3.3383,3.4201,3.5987,3.5409,3.5964,3.7566,3.7566,3.7826,3.8265,3.9498,3.9983,3.9925,4.025,4.1059,4.2166,4.2328,4.241,4.253,4.2992,4.3191,4.3317,4.3931,4.4289,4.4506,4.4626,4.4171,4.3504,4.3242,0.0,0.0,0.0,0.0,0.0,4.2246,0.0,0.0,0.0,0.0,0.0,4.6571,4.71,4.7759,4.9952,5.0681,5.1349,5.2626,5.2859,5.2949,5.3219,5.3951,5.4511,5.4655,5.4771,5.4817,5.4715,5.4339,5.3738,5.2757,5.1805,5.0931,5.0161,5.0033,4.9873,4.9622,4.9741,5.0017,5.0393,5.0017,5.0017,5.0386,5.1147,5.1498,5.1523,5.2477,5.2895,5.2895,5.2895,5.2895,5.2895,5.2895,5.2895,5.2895,5.2895,5.2895,5.2895,5.3046,5.3312,5.3538,5.3436,5.3654,5.3986,0.0,0.0,0.0,0.0,0.0,0.0,0.0,0.0,0.0,0.0,0.0,0.0,0.0,0.0,3.0442,3.0422,3.1223,3.1716,3.1741,3.2269,3.2682,3.3016,3.3367,3.3923,3.4726,3.5088,3.5821,3.7049,3.6567,3.6887,3.79,3.79,3.8272,3.8978,0.0,0.0,4.1275,4.1327,4.2098,4.3254,4.3648,4.3926,4.4153,4.4566,4.4671,4.4693,4.4903,4.5081,4.5222,4.5147,4.4747,4.4189,4.339,0.0,0.0,0.0,0.0,0.0,0.0,0.0,0.0,4.342,0.0,0.0,4.5398,4.6048,4.6675,4.8443,4.9185,4.9809,5.0772,5.1203,5.1465,5.1755,5.2759,5.3474,5.3339,5.3388,5.3353,5.3141,5.2615,5.2097,5.1659,5.1101,5.0601,5.0218,5.0136,4.9944,4.9622,4.959,4.9741,5.0067,4.9766,4.9741,5.0067,5.087,5.1306,5.1297,5.2402,5.2895,5.2895,5.2895,5.2895,5.2895,5.2895,5.2895,5.2895,5.2895,5.2895,5.2945,5.3432,5.3808,5.4089,5.4065,5.4267,5.4451,0.0,0.0,0.0,0.0,0.0,0.0,0.0,0.0,0.0,0.0,3.0342,3.0451,0.0,0.0,0.0,0.0,3.1939,3.2449,3.2475,3.2746,3.3133,3.3775,3.4585,3.5376,3.6099,3.6843,3.7246,3.7223,3.7194,3.7474,3.8042,3.8123,3.8971,4.0368,0.0,0.0,0.0,4.2897,4.3356,4.4061,4.5,4.5614,4.6039,4.603,4.5975,4.5859,4.5556,4.541,4.5409,4.5538,4.5159,4.4476,4.3459,4.3049,4.2854,0.0,4.2783,0.0,0.0,0.0,0.0,4.3794,4.2983,0.0,4.4688,4.5306,4.5585,4.6344,4.7079,4.7753,4.8368,4.903,4.9693,5.0274,5.1208,5.1765,5.1597,5.165,5.1647,5.1392,5.0732,5.0394,5.0551,5.0322,5.0162,5.0157,5.0046,4.9893,4.9654,4.9622,4.959,4.959,4.959,4.959,4.959,5.0645,5.1222,5.1297,5.2327,5.2845,5.2895,5.2895,5.2895,5.2895,5.2895,5.2895,5.2895,5.2895,5.292,5.3071,5.4084,5.4572,5.4716,5.4855,5.4955,5.4892,0.0,0.0,0.0,0.0,0.0,0.0,0.0,0.0,0.0,0.0,3.1695,0.0,0.0,0.0,0.0,0.0,3.2666,3.3471,3.4179,3.485,3.5344,3.5594,3.5766,3.5952,3.6187,3.62,3.6797,3.8075,3.7897,3.8173,3.8897,3.9572,4.002,4.0318,4.1637,4.2229,4.2359,4.3894,4.4735,4.5042,4.5581,4.6223,4.6809,4.6422,4.6633,4.7202,4.6913,4.7454,4.8128,4.7056,4.618,4.5445,4.4931,4.4651,4.447,4.3996,4.4313,0.0,0.0,0.0,0.0,4.3513,4.2752,0.0,4.4098,4.4267,4.4377,4.5556,4.6056,4.6446,4.7062,4.7724,4.8212,4.8357,4.9383,5.0298,5.0613,5.1087,5.0851,4.946,4.9522,4.9512,4.9045,4.9369,4.9475,4.9168,4.9302,4.9558,4.9976,4.9751,4.959,4.959,4.959,4.959,4.959,5.0243,5.082,5.1331,5.195,5.2468,5.2895,5.2895,5.2895,5.2895,5.2895,5.2895,5.2895,5.2895,5.3146,5.3582,5.3783,5.4436,5.5193,5.4559,5.4635,5.4892,0.0,0.0,0.0,0.0,0.0,0.0,0.0,0.0,0.0,0.0,0.0,0.0,0.0,0.0,0.0,0.0,0.0,0.0,0.0,3.6308,3.6583,3.6707,3.7111,3.7385,3.7452,3.8153,3.8655,3.8846,3.9233,3.9462,3.965,4.0095,4.0667,4.1314,4.2075,4.2498,4.2739,4.4149,4.4931,4.5329,4.609,4.6662,4.7115,4.7237,4.7513,4.783,4.7856,4.812,4.8364,4.7335,4.6652,4.6073,4.5327,4.5042,4.4879,4.4369,4.4423,4.4493,4.3787,4.3143,4.2859,4.3769,4.2942,0.0,0.0,4.4082,4.3992,4.4545,4.4885,4.5156,4.5366,4.5924,4.6469,4.6818,4.7921,4.8557,4.799,4.9099,4.9474,4.8211,4.7874,4.78,4.7938,4.8458,4.8881,4.9142,4.8962,4.8988,4.9241,4.9229,4.922,4.922,4.9464,4.959,4.959,5.0142,5.072,5.1331,5.185,5.2402,5.2895,5.2895,5.2895,5.2895,5.2895,5.2895,5.2895,5.2895,5.3231,5.3733,5.4009,5.4522,5.4967,5.4682,5.4758,5.4892,2.7897,0.0,0.0,0.0,0.0,0.0,0.0,0.0,0.0,0.0,0.0,0.0,0.0,0.0,0.0,0.0,0.0,0.0,0.0,3.7639,3.7615,3.7521,3.8336,3.885,3.8915,4.0029,4.0293,3.9657,4.0338,4.0483,4.0193,4.0504,4.1286,4.2435,4.2374,4.273,4.3433,4.4254,4.4876,4.5374,4.6606,4.7098,4.7169,4.7911,4.8199,4.8294,4.8742,4.8596,4.8091,4.7421,4.7045,4.6638,4.5377,4.5091,4.507,4.4318,4.4298,4.4397,4.38,4.3212,4.2937,4.3913,4.3099,4.2429,0.0,0.0,0.0,4.3555,4.3738,4.3879,4.3673,4.4146,4.4727,4.5249,4.6527,4.6879,4.5302,4.6663,4.7566,4.6941,4.6163,4.6028,4.6958,4.7484,4.8153,4.9114,4.8645,4.8411,4.8497,4.8743,4.8806,4.8642,4.9238,4.954,4.9439,4.9992,5.0594,5.1331,5.1724,5.2302,5.2895,5.2895,5.2895,5.2895,5.2895,5.2895,5.2895,5.2895,5.3231,5.3758,5.4371,5.4672,5.4766,5.4929,5.5004,5.4892,2.884,2.9003,0.0,0.0,0.0,0.0,0.0,0.0,0.0,0.0,0.0,0.0,0.0,0.0,0.0,0.0,0.0,3.7636,3.9214,3.9332,0.0,3.8313,3.9093,3.9609,3.9677,3.8876,3.9151,4.0538,4.0293,4.0178,4.0163,4.1673,4.2427,4.2508,4.2949,4.3497,4.4139,4.4772,4.5213,4.5695,4.719,4.7474,4.7069,4.7631,4.8194,4.8796,4.995,4.992,4.9162,4.8145,4.7781,4.743,4.5589,4.5467,4.5718,4.4452,4.502,4.5742,4.4244,4.4397,4.4626,4.3221,4.2886,4.283,4.2638,0.0,4.3039,4.2867,0.0,4.2564,4.2337,0.0,0.0,4.3333,4.4901,4.5601,4.4088,4.4502,4.4979,4.4992,4.4685,4.4934,4.6052,4.6207,4.6812,4.8244,4.8025,4.8107,4.881,4.9056,4.8793,4.8008,4.9038,4.9364,4.8894,4.9414,5.0218,5.1306,5.1348,5.1925,5.2895,5.2895,5.2895,5.2895,5.2895,5.2895,5.2895,5.2895,5.3231,5.3758,5.4371,5.4898,5.5293,5.5078,5.5004,5.4892,2.8975,2.9508,0.0,0.0,0.0,0.0,0.0,0.0,0.0,0.0,0.0,0.0,0.0,0.0,0.0,0.0,0.0,3.9251,4.0891,4.0553,0.0,4.0528,4.0897,4.1147,4.1248,4.1123,4.1155,4.1326,4.1564,4.1584,4.1443,4.2224,4.2713,4.2955,4.3095,4.3402,4.3913,4.4623,4.5114,4.5587,4.7311,4.769,4.7367,4.8491,4.9214,4.9759,5.0279,5.0161,4.9659,4.8882,4.8467,4.8084,4.6719,4.6442,4.6374,4.511,4.547,4.5942,4.4344,4.4283,4.4432,4.3505,4.3155,4.2982,4.2948,4.3041,4.313,4.293,0.0,0.0,0.0,0.0,0.0,0.0,4.366,4.395,4.3284,4.3059,4.3047,4.3345,4.289,4.3022,4.4141,4.4706,4.533,4.6105,4.6329,4.6666,4.7214,4.8166,4.8564,4.8187,4.9108,4.949,4.9296,4.949,5.0167,5.1306,5.1306,5.185,5.2895,5.2895,5.2895,5.2895,5.2895,5.2895,5.2895,5.2895,5.3231,5.3758,5.4371,5.4949,5.5393,5.5102,5.5004,5.4892,2.9581,0.0,0.0,0.0,0.0,0.0,0.0,3.4905,3.567,3.5912,3.7118,3.8068,3.835,3.9362,4.0518,0.0,4.1066,4.1198,4.2605,4.1936,4.1662,4.2045,4.2347,4.2498,4.2536,4.2713,4.255,4.2045,4.2478,4.2596,4.2386,4.2681,4.302,4.3383,4.3379,4.3623,4.4094,4.4768,4.5401,4.607,4.7594,4.8238,4.8377,4.9328,5.0163,5.0788,5.0711,5.0679,5.0532,4.9593,4.9243,4.8992,4.7577,4.7208,4.7053,4.5716,4.6003,4.6337,4.4578,4.4483,4.464,4.3523,4.3257,4.3194,4.2839,4.319,4.3459,4.31,4.2998,0.0,0.0,0.0,4.2237,4.2673,0.0,4.2909,4.266,4.2171,4.1943,4.2129,4.1799,4.1949,4.2967,4.3597,4.4088,4.446,4.4858,4.5335,4.5969,4.7231,4.8024,4.8176,4.904,4.946,4.9364,4.9515,5.0167,5.1306,5.1306,5.185,5.2895,5.2895,5.2895,5.2895,5.2895,5.2895,5.2895,5.3046,5.3457,5.4009,5.4773,5.5265,5.5594,5.5299,5.5078,5.4892,3.107,3.0681,0.0,0.0,3.2339,3.3444,3.5089,3.5448,3.5763,3.6495,3.7334,3.8198,3.8978,4.0649,4.2382,4.402,4.3556,4.352,4.4376,4.367,4.2844,4.2042,4.2931,4.3326,4.3079,4.2254,4.2112,4.2676,4.2487,4.2386,4.2331,4.3179,4.358,4.3592,4.4144,4.465,4.5182,4.5602,4.6458,4.7585,4.8234,4.9284,5.0451,4.9885,5.0568,5.1717,5.154,5.1882,5.2137,5.0307,5.0203,5.0384,4.7817,4.7495,4.7755,4.6162,4.671,4.7374,4.5182,4.5615,4.5976,4.2854,4.3005,4.3527,4.1828,4.291,4.4047,4.3189,4.3373,4.3413,4.257,4.2257,4.2121,0.0,4.2615,0.0,0.0,4.2031,4.187,4.1558,4.193,4.2465,4.3222,4.3147,4.3284,4.3886,4.3938,4.456,4.5917,4.6533,4.7093,4.7597,4.8652,4.9103,4.8818,4.9339,5.0167,5.1306,5.1306,5.185,5.2895,5.2895,5.2895,5.2895,5.2895,5.2895,5.2945,5.3457,5.4009,5.4672,5.5742,5.6168,5.612,5.5717,5.5337,5.493,0.0,0.0,0.0,0.0,3.3925,3.4822,3.6,3.6709,3.7596,3.8936,4.0777,4.2486,4.3915,4.5086,4.6058,4.6764,4.5589,4.5125,4.579,4.5229,4.4913,4.4969,4.5504,4.5479,4.4757,4.4274,4.4143,4.4275,4.352,4.3642,4.4672,4.4466,4.4658,4.5103,4.5,4.5243,4.5826,4.6065,4.6706,4.7601,4.9223,5.0773,5.199,5.0669,5.0384,5.0785,5.1113,5.1001,5.0612,5.0542,5.0176,4.9638,4.8734,4.8501,4.8262,4.6723,4.7194,4.7774,4.5696,4.6183,4.6761,4.4522,4.4341,4.4314,4.2959,4.3519,4.4097,4.3329,4.3586,4.3649,4.2745,4.2433,0.0,0.0,0.0,0.0,0.0,4.1673,4.1451,4.1786,4.1909,4.1673,4.1059,4.2026,4.2373,4.1636,4.3023,4.4094,4.4586,4.6391,4.7634,4.8202,4.9117,4.9728,4.999,5.0162,5.0727,5.1613,5.1613,5.2085,5.2895,5.2895,5.2895,5.2895,5.2895,5.3096,5.3457,5.3632,5.426,5.5189,5.5917,5.6219,5.6171,5.6141,5.5633,5.4892,3.42,3.4534,3.466,3.4857,3.5316,3.5915,3.6796,3.8215,3.9664,4.1015,4.3361,4.5422,4.6847,4.7677,4.8289,4.8696,4.7702,4.7115,4.7185,4.6627,4.6315,4.6376,4.66,4.6282,4.5323,4.544,4.5345,4.4969,4.4539,4.4901,4.5883,4.5423,4.5369,4.5735,4.5695,4.591,4.6257,4.6732,4.7394,4.8225,5.0132,5.1667,5.2654,5.1558,5.1402,5.182,5.1849,5.1615,5.1325,5.1458,5.1033,5.0339,4.9958,4.9623,4.9122,4.7786,4.8063,4.835,4.6472,4.6733,4.7184,4.5715,4.5445,4.5284,4.4258,4.4715,4.5104,4.4207,4.4193,4.4187,4.3619,4.289,0.0,0.0,0.0,0.0,0.0,4.1689,4.1531,4.1981,4.1485,4.0927,4.0535,4.1096,4.1154,4.046,4.1794,4.3023,4.386,4.5651,4.7192,4.8476,4.9245,5.0041,5.0896,5.0921,5.1388,5.2315,5.2315,5.2565,5.3101,5.3101,5.3033,5.2895,5.3096,5.3381,5.3733,5.4135,5.4737,5.5491,5.6445,5.657,5.6232,5.6488,5.5918,5.4892,3.5877,3.614,3.625,3.6494,3.6544,3.68,3.7507,3.9903,4.1903,4.2691,4.5041,4.6995,4.785,4.848,4.9186,4.9982,4.9861,4.9417,4.8633,4.7905,4.7103,4.6291,4.635,4.5918,4.4942,4.5712,4.5705,4.4792,4.5535,4.5948,4.603,4.5984,4.5818,4.5537,4.6325,4.6636,4.6624,4.757,4.8546,4.9527,5.0996,5.1987,5.2597,5.2582,5.3467,5.4579,5.3613,5.3613,5.3937,5.2931,5.2563,5.2328,5.1291,5.0693,5.0172,4.9162,4.9116,4.9006,4.7391,4.7267,4.7425,4.6387,4.6403,4.6425,4.5585,4.6411,4.695,4.5574,4.5198,4.5081,4.5021,4.3602,4.2667,0.0,0.0,0.0,4.2092,4.2092,4.2121,4.215,4.0791,4.0358,4.163,4.0572,3.9983,4.038,4.0461,4.1481,4.3729,4.4434,4.5887,4.8402,4.9101,5.0111,5.1524,5.155,5.2114,5.3218,5.3218,5.3324,5.3512,5.3512,5.3332,5.3005,5.3517,5.3733,5.3858,5.4938,5.5415,5.5641,5.7223,5.7198,5.6282,5.6747,5.6079,5.4855,3.6737,3.7992,3.9059,3.9621,3.9373,3.9126,3.9332,4.1596,4.3778,4.5169,4.7527,4.9656,5.1184,5.1191,5.1259,5.1703,5.0917,5.0241,4.9988,5.0022,4.9572,4.8505,4.8743,4.8135,4.6553,4.6719,4.6663,4.6272,4.5861,4.6347,4.7614,4.7018,4.6883,4.7191,4.7619,4.7662,4.745,4.8508,4.9713,5.1065,5.2478,5.3417,5.3989,5.3814,5.4287,5.4859,5.3584,5.274,5.2247,5.2509,5.2077,5.1309,5.0744,5.0274,4.9709,4.8551,4.8573,4.8728,4.7694,4.7875,4.8326,4.8253,4.7922,4.7492,4.6916,4.7429,4.7519,4.5663,4.604,4.6373,4.5221,4.4235,4.3608,0.0,0.0,0.0,4.2113,4.2092,4.2266,4.2702,4.1452,4.0719,4.1165,4.2021,4.2012,4.0645,4.128,4.216,4.318,4.459,4.626,4.8212,4.9255,5.058,5.223,5.223,5.2699,5.355,5.355,5.3693,5.3861,5.3861,5.3886,5.3974,5.41,5.4456,5.4988,5.5265,5.5867,5.6609,5.706,5.7035,5.6685,5.5819,5.5102,5.4496,3.8093,3.9325,4.043,4.0774,4.1212,4.1503,4.1544,4.3148,4.5065,4.7059,4.9039,5.083,5.2239,5.2234,5.2206,5.2485,5.1782,5.1333,5.138,5.1224,5.0853,5.0189,5.0002,4.9159,4.7434,4.7772,4.7597,4.6815,4.6706,4.7136,4.8092,4.7643,4.7723,4.8206,4.8153,4.8318,4.863,4.9673,5.0991,5.2493,5.3464,5.429,0.0,5.5032,5.5227,5.5349,5.4312,5.3111,5.2117,5.2488,5.2,5.1255,5.0959,5.0502,4.9941,4.9063,4.8859,4.8758,4.8193,4.8245,4.8559,4.89,4.8628,4.8184,4.7815,4.8259,4.8259,4.6531,4.677,4.7027,4.6173,4.5173,4.4285,4.3803,4.2966,4.2351,4.2257,4.2154,4.2324,4.2934,4.2281,4.1794,4.1881,4.1869,4.1504,4.0663,4.1352,4.216,4.2945,4.4643,4.6421,4.812,4.9557,5.1126,5.2877,5.3138,5.359,5.4304,5.4304,5.4259,5.4233,5.4491,5.4569,5.4583,5.4892,5.5274,5.5667,5.5713,5.6118,5.6634,5.6449,5.6451,5.6377,5.5176,5.4719,5.457,3.9746,4.043,4.1009,4.1237,4.2566,4.3806,4.4299,4.5084,4.6396,4.8541,5.0144,5.1385,5.2122,5.2375,5.2552,5.2702,5.2604,5.2618,5.2771,5.2131,5.1636,5.1477,5.0789,4.9699,4.8151,4.8753,4.8405,4.7094,4.763,4.7931,4.7972,4.802,4.8291,4.8687,4.8435,4.8843,4.9827,5.0815,5.214,5.3579,5.4129,5.4808,5.5513,5.5894,5.5961,5.5735,5.5082,5.4084,5.3033,5.2822,5.2392,5.188,5.1657,5.1185,5.0657,5.0164,4.9673,4.9213,4.8902,4.8693,4.8666,4.9088,4.9021,4.8793,4.8513,4.8947,4.9007,4.7608,4.7369,4.7399,4.7309,4.6143,4.4861,4.4022,4.3234,4.2737,4.2676,4.249,4.2598,4.3187,4.3081,0.0,4.3224,4.1279,4.02,4.0729,4.111,4.1795,4.2945,4.4512,4.6264,4.812,4.977,5.1518,5.3478,5.3896,5.4497,5.5334,5.5255,5.5062,5.4811,5.5329,5.5443,5.5219,5.5877,5.6122,5.6116,5.6236,5.6255,5.6182,5.589,5.5831,5.5755,5.4816,5.4682,5.4794,4.1189,4.1578,4.2212,4.3543,4.4403,4.5794,4.8546,4.9273,4.962,4.9878,5.1865,5.3114,5.2726,5.2903,5.3159,5.3385,5.3686,5.397,5.4242,5.411,5.3508,5.2335,5.2154,5.1332,4.9724,4.9217,4.8807,4.8539,4.7778,4.7578,4.7912,4.8135,4.8432,4.8712,4.9241,4.9678,5.0051,5.142,5.2452,5.3307,5.4667,5.5448,5.5859,5.5388,5.51,5.4847,5.4237,5.4165,5.4283,5.378,5.3403,5.3077,5.255,5.2193,5.1821,5.1048,5.0733,5.0542,5.0125,4.9996,5.0018,5.0275,5.0268,5.005,4.9314,4.9613,4.9531,4.7698,4.7728,4.7959,4.7399,4.6638,4.5785,4.4911,4.4641,4.4414,4.4014,4.3929,4.4078,4.4516,4.3543,4.3297,4.4458,4.3074,4.1922,4.1521,4.1377,4.1795,4.2945,4.3755,4.5429,4.8123,4.8956,5.089,5.4027,5.3713,5.455,5.651,5.6013,5.5979,5.6407,5.6512,5.6591,5.6718,5.6855,5.6826,5.6649,5.6678,5.651,5.6269,5.661,5.6301,5.5608,5.5065,5.4719,5.4459,4.281,4.3347,4.4038,4.5141,4.5936,4.7136,4.9309,5.0805,5.1738,5.1876,5.2096,5.2471,5.3047,5.3397,5.3677,5.3878,5.415,5.4558,5.5191,5.4941,5.4472,5.3784,5.3349,5.2371,5.0753,5.0343,4.9878,4.9322,4.8814,4.862,4.8847,4.8767,4.9055,4.9695,5.004,5.03,5.0548,5.2047,5.3004,5.3752,5.5534,5.6198,5.606,5.6032,5.5757,5.5301,5.4678,5.4658,5.4711,5.3292,5.2706,5.2464,5.1778,5.1578,5.1539,5.1095,5.0934,5.0753,5.0376,5.0289,5.0271,5.0117,5.0095,4.9937,4.9434,4.9516,4.9374,4.8087,4.8079,4.8199,4.7878,4.701,4.6279,4.6203,4.5501,4.4908,4.4676,4.4443,4.4485,4.504,4.4109,4.3811,4.4799,4.3868,4.312,4.287,4.2528,4.2723,4.3625,4.4123,4.5534,4.8123,4.9064,5.089,5.3766,5.3792,5.4654,5.6327,5.604,5.6223,5.6824,5.7111,5.7329,5.7415,5.749,5.7348,5.7091,5.6656,5.6365,5.6207,5.6237,5.5855,5.5226,5.4831,5.4421,5.4109,4.4291,4.4941,4.5632,4.6474,4.7405,4.8444,4.9708,5.164,5.3028,5.3302,5.2365,5.216,5.3396,5.3969,5.4304,5.4386,5.4681,5.5181,5.5959,5.5555,5.5244,5.516,5.4544,5.353,5.2093,5.1731,5.1087,5.0161,4.9744,4.9554,4.9507,4.9264,4.9649,5.051,5.0535,5.0777,5.1218,5.2511,5.3599,5.4547,5.6231,5.6651,5.6322,5.6525,5.6257,5.5721,5.5081,5.4811,5.4523,5.2649,5.2075,5.202,5.1341,5.1265,5.1453,5.1389,5.1259,5.1085,5.0813,5.0673,5.0571,5.0147,4.999,4.987,4.9561,4.9486,4.9307,4.8648,4.8528,4.8468,4.8349,4.7549,4.704,4.7279,4.6501,4.5837,4.5645,4.5296,4.5214,4.5654,4.4865,4.448,4.5075,4.4455,4.4117,4.4345,4.3737,4.3625,4.4176,4.4624,4.5878,4.8053,4.9172,5.0917,5.3373,5.3818,5.4785,5.6275,5.6144,5.6484,5.719,5.7634,5.7878,5.7869,5.7995,5.7784,5.7343,5.6547,5.6219,5.6182,5.5852,5.5485,5.5078,5.4804,5.4442,5.4176,4.5381,4.5617,4.615,4.7753,4.8971,5.0323,5.1938,5.2864,5.3227,5.2837,5.3847,5.4443,5.3969,5.4647,5.5098,5.5111,5.5767,5.6367,5.6668,5.6672,5.6428,5.5921,5.5824,5.5377,5.4569,5.3132,5.2124,5.1609,4.9971,4.9064,4.8903,4.9179,4.9603,5.0237,5.0363,5.0974,5.1943,5.2625,5.4001,5.5739,5.6071,5.6479,5.6792,5.5688,5.5246,5.5081,5.4231,5.3919,5.3772,5.2688,5.2897,5.3536,5.3028,5.2883,5.2878,5.2603,5.2513,5.2446,5.2191,5.1964,5.1766,5.1461,5.1229,5.087,5.0249,5.0129,4.9949,4.9337,4.9187,4.9007,4.8409,4.8708,4.8648,4.7489,4.8207,4.8596,4.7748,4.7592,4.7421,4.7076,4.5925,4.5347,4.5766,4.5183,4.5088,4.5764,4.447,4.3714,4.3825,4.4679,4.5997,4.7788,4.8711,5.0524,5.3373,5.3452,5.4837,5.7512,5.6981,5.7294,5.8366,5.8418,5.8444,5.8444,5.8461,5.806,5.7343,5.6547,5.6219,5.6219,5.6182,5.5889,5.5534,5.5619,5.5415,5.5086,4.6955,4.782,4.8829,4.9834,5.0819,5.1772,5.2786,5.3486,5.3922,5.3849,5.4524,5.5073,5.5306,5.5686,5.5919,5.5919,5.6286,5.6559,5.668,5.6773,5.6505,5.5792,5.5756,5.5395,5.4613,5.3815,5.3003,5.2161,5.1518,5.0806,4.9987,5.0139,5.007,4.9933,5.0439,5.1038,5.1799,5.3356,5.4652,5.5661,5.6352,5.6459,5.6119,5.5409,5.477,5.4274,5.3941,5.3702,5.3487,5.2987,5.3059,5.3258,5.2635,5.2802,5.3108,5.2618,5.291,5.323,5.2345,5.2229,5.2232,5.1739,5.1386,5.1116,5.0877,5.0488,5.0129,4.989,4.9546,4.9337,4.9434,4.9015,4.8768,4.8992,4.8835,4.8716,4.8723,4.8588,4.8282,4.7695,4.7435,4.7204,4.6952,4.6553,4.644,4.6826,4.5349,4.462,4.5049,4.494,4.5792,4.774,4.8808,5.0472,5.2825,5.353,5.4968,5.7137,5.6928,5.7399,5.8523,5.8523,5.8523,5.8487,5.8025,5.7667,5.7343,5.6801,5.6438,5.6219,5.6474,5.6383,5.6054,5.5866,5.5784,5.5696,4.8579,4.9695,5.0783,5.1573,5.2406,5.307,5.3408,5.4144,5.4694,5.4859,5.5051,5.5446,5.6112,5.6294,5.6377,5.6383,5.6478,5.6559,5.66,5.6909,5.6805,5.6178,5.6393,5.6183,5.5504,5.4853,5.4112,5.3231,5.262,5.1844,5.0879,5.0837,5.0826,5.0872,5.1192,5.1849,5.2901,5.4347,5.5306,5.5905,5.6402,5.6251,5.566,5.5183,5.4581,5.3962,5.3897,5.364,5.333,5.3281,5.3276,5.313,5.2427,5.2723,5.3208,5.2742,5.3198,5.3708,5.2822,5.2725,5.2724,5.2054,5.1837,5.1738,5.1558,5.1116,5.0727,5.0548,5.0152,4.9912,5.0159,4.962,4.9254,4.9591,4.9202,4.8955,4.9247,4.9141,4.8886,4.8528,4.86,4.8486,4.7945,4.7499,4.7282,4.7394,4.6115,4.5536,4.6015,4.576,4.6355,4.7995,4.9446,5.0955,5.2617,5.3954,5.5356,5.6798,5.6981,5.7582,5.8523,5.8523,5.8523,5.8452,5.7703,5.7379,5.7379,5.6982,5.6583,5.6255,5.6656,5.6692,5.6526,5.6175,5.6129,5.6141,5.0221,5.0721,5.1302,5.2641,5.3651,5.4221,5.4095,5.4863,5.5493,5.5493,5.5604,5.5822,5.6169,5.6197,5.6267,5.6369,5.6383,5.6451,5.66,5.7366,5.7677,5.7497,5.8246,5.8459,5.8072,5.6551,5.5572,5.5179,5.2871,5.1497,5.108,5.0882,5.1778,5.3537,5.2867,5.3803,5.5841,5.5542,5.6005,5.6896,5.606,5.5716,5.5634,5.5005,5.4639,5.4385,5.4168,5.3667,5.3157,5.3567,5.3691,5.3568,5.2914,5.2955,5.3299,5.3299,5.3593,5.3891,5.3891,5.3754,5.3441,5.2754,5.2888,5.3019,5.2336,5.2187,5.2007,5.1325,5.1176,5.0966,5.0315,5.0727,5.0541,4.8626,4.9351,4.9979,4.9366,4.9277,4.9426,4.9829,4.9301,4.8816,4.8617,4.787,4.7399,4.7399,4.6711,4.6323,4.6399,4.7269,4.805,4.8669,5.0687,5.2169,5.2997,5.4733,5.5984,5.6824,5.7407,5.7983,5.8523,5.8523,5.8523,5.8452,5.7703,5.7379,5.7379,5.6982,5.6583,5.6255,5.6656,5.6875,5.6949,5.6708,5.6562,5.6486,5.1772,5.2445,5.3006,5.345,5.4226,5.479,5.485,5.5104,5.5529,5.616,5.6079,5.6259,5.7012,5.6443,5.6276,5.6936,5.6551,5.6175,5.5986,5.6702,5.6938,5.6495,5.7272,5.7631,5.7471,5.6365,5.5475,5.4865,5.3788,5.2945,5.2347,5.236,5.261,5.3109,5.3781,5.4906,5.63,5.6404,5.6948,5.7665,5.6792,5.6274,5.592,5.5418,5.5079,5.4851,5.4814,5.4521,5.4183,5.4113,5.4105,5.4027,5.3626,5.4046,5.4484,5.3567,5.4138,5.4909,5.417,5.3996,5.389,5.3423,5.3248,5.3139,5.2929,5.2875,5.2815,5.2606,5.2187,5.1828,5.1618,5.0996,5.0458,5.0301,5.0219,5.0308,5.0571,5.0601,5.0465,5.0133,5.0335,5.0259,4.9743,4.884,4.847,4.8934,4.7313,4.6298,4.6323,4.7456,4.8459,4.9289,5.1511,5.297,5.363,5.5314,5.6412,5.6824,5.7407,5.7983,5.8523,5.8523,5.8523,5.8452,5.7703,5.7379,5.7379,5.6982,5.6583,5.628,5.7024,5.7456,5.7588,5.7276,5.7166,5.7088,5.2839,5.341,5.3902,5.412,5.4876,5.5425,5.5471,5.5787,5.6217,5.6578,5.6492,5.6662,5.736,5.6636,5.626,5.677,5.6658,5.6373,5.5844,5.6781,5.7176,5.6699,5.7429,5.7814,5.7682,5.6889,5.6268,5.5784,5.4981,5.4311,5.3698,5.3776,5.4143,5.4691,5.5519,5.6405,5.733,5.7467,5.7634,5.7797,5.7034,5.6449,5.6071,5.5765,5.5542,5.5333,5.5333,5.5062,5.469,5.467,5.4691,5.4643,5.4381,5.4861,5.5341,5.4243,5.4674,5.5325,5.4782,5.4573,5.4426,5.3939,5.3895,5.3887,5.3623,5.3563,5.3414,5.2905,5.2665,5.2486,5.2247,5.1738,5.1295,5.1206,5.0847,5.0637,5.0817,5.0817,5.0757,5.0607,5.0936,5.1026,5.0637,4.9671,4.9173,4.9371,4.7905,4.7007,4.7007,4.7974,4.9112,5.0403,5.2506,5.4065,5.4943,5.6293,5.7082,5.7345,5.7782,5.8157,5.8523,5.8523,5.8523,5.8452,5.7703,5.7379,5.7379,5.6982,5.6583,5.628,5.6999,5.7532,5.7788,5.7078,5.6983,5.7029,5.3517,5.3762,5.4051,5.4726,5.5513,5.6046,5.5974,5.6786,5.7254,5.6838,5.6836,5.7031,5.7397,5.6884,5.6452,5.6213,5.6795,5.6861,5.6097,5.7401,5.8071,5.7756,5.8513,5.8771,5.8472,5.7878,5.7535,5.7518,5.6276,5.545,5.5104,5.5183,5.6165,5.7825,5.7735,5.8089,5.8767,5.8594,5.8136,5.7474,5.6824,5.6387,5.6138,5.6138,5.5997,5.5776,5.5776,5.5376,5.4906,5.5252,5.5394,5.5315,5.508,5.5432,5.5827,5.5214,5.5118,5.528,5.5531,5.5406,5.5029,5.4431,5.473,5.5029,5.4431,5.4281,5.3922,5.2665,5.2845,5.3079,5.2456,5.2779,5.2749,5.1498,5.1259,5.099,5.0368,5.0255,5.0518,5.1116,5.1236,5.1265,5.1265,5.0352,4.9544,4.8966,4.8499,4.8219,4.83,4.8951,5.009,5.188,5.3727,5.5334,5.6741,5.7491,5.7971,5.8235,5.8438,5.8523,5.8523,5.8523,5.8523,5.8452,5.7703,5.7379,5.7379,5.6946,5.6547,5.6255,5.6695,5.7305,5.7713,5.6411,5.6245,5.6489,5.4231,5.4297,5.4554,5.5267,5.5575,5.595,5.6635,5.668,5.6876,5.7462,5.709,5.7218,5.8449,5.8211,5.7953,5.8043,5.738,5.678,5.6327,5.7155,5.7484,5.7049,5.7745,5.8117,5.8027,5.7492,5.7072,5.6763,5.6435,5.6261,5.6155,5.6474,5.7154,5.8109,5.8349,5.8882,5.9571,5.8832,5.8312,5.7979,5.7276,5.6838,5.6635,5.6635,5.6587,5.6539,5.6539,5.6447,5.6276,5.6188,5.6152,5.6103,5.5834,5.5703,5.561,5.5141,5.5241,5.5506,5.5581,5.5406,5.5149,5.4999,5.5089,5.5149,5.4999,5.497,5.485,5.4551,5.4192,5.3922,5.3773,5.317,5.2581,5.2061,5.1693,5.1403,5.099,5.0966,5.1026,5.1176,5.1648,5.1977,5.1977,5.1071,5.0398,5.028,4.897,4.8598,4.9521,5.0578,5.1772,5.313,5.5383,5.6795,5.73,5.8112,5.8477,5.8419,5.848,5.8523,5.8523,5.8523,5.8523,5.8452,5.7703,5.7379,5.7343,5.662,5.6292,5.6294,5.7284,5.775,5.7813,5.7328,5.6923,5.6611,5.4996,5.5547,5.6081,5.6134,5.672,5.7151,5.7154,5.7311,5.7467,5.7545,5.7293,5.734,5.7886,5.7835,5.7835,5.8043,5.8165,5.8027,5.7632,5.7955,5.8069,5.7814,5.7881,5.79,5.79,5.7708,5.736,5.6884,5.7227,5.7227,5.6867,5.7717,5.8323,5.8728,5.9313,5.9677,5.9857,5.9144,5.8611,5.8142,5.7393,5.6971,5.681,5.681,5.681,5.6785,5.6664,5.6689,5.6737,5.6348,5.6383,5.6578,5.6359,5.6295,5.6242,5.6033,5.5712,5.5491,5.5917,5.5646,5.5179,5.5179,5.5179,5.5179,5.5179,5.5179,5.5089,5.479,5.48,5.47,5.4306,5.3819,5.3315,5.2744,5.2216,5.1723,5.1259,5.1206,5.1295,5.1594,5.1977,5.2306,5.2606,5.1711,5.0997,5.0738,4.991,4.9819,5.0768,5.2235,5.3456,5.4406,5.6224,5.7678,5.8616,5.8929,5.8989,5.877,5.8594,5.8523,5.8523,5.8523,5.8523,5.8452,5.7703,5.7379,5.7343,5.6547,5.6369,5.6609,5.7273,5.7675,5.7826,5.7056,5.6554,5.6243,5.5789,5.684,5.7564,5.7047,5.7962,5.8462,5.7602,5.8047,5.8191,5.742,5.7402,5.7304,5.6923,5.7019,5.7244,5.7605,5.905,5.966,5.9028,5.9013,5.9013,5.9013,5.8389,5.8035,5.79,5.8217,5.8106,5.7618,5.8421,5.8437,5.7771,5.8921,5.9457,5.9571,6.0211,6.0257,5.9837,5.9349,5.8714,5.798,5.7322,5.6985,5.6891,5.6891,5.6904,5.6947,5.6727,5.6776,5.6898,5.6456,5.6616,5.7021,5.6849,5.6959,5.7146,5.7146,5.6368,5.5649,5.6474,5.6101,5.5478,5.5478,5.5478,5.5448,5.5359,5.5329,5.5174,5.4541,5.5015,5.533,5.456,5.4439,5.4181,5.3337,5.2594,5.1905,5.1289,5.1295,5.1535,5.2127,5.2366,5.2755,5.3438,5.2654,5.19,5.1452,5.1377,5.162,5.2181,5.3754,5.5003,5.579,5.6875,5.8286,5.9928,5.972,5.9438,5.9114,5.87,5.8523,5.8523,5.8523,5.8523,5.8487,5.7852,5.7528,5.7369,5.6797,5.6733,5.701,5.7085,5.7474,5.775,5.6388,5.5914,5.5875,5.6598,5.6805,5.7116,5.7633,5.7638,5.7722,5.8234,5.7868,5.7476,5.7327,5.7025,5.7028,5.7561,5.7647,5.8088,5.9092,5.9954,6.0082,5.9062,5.9013,5.9013,5.9013,5.8878,5.8558,5.7934,5.8708,5.9089,5.8971,5.9738,6.0044,5.9923,5.9975,6.0226,6.0641,6.0191,5.9885,5.961,5.8741,5.7956,5.7227,5.6947,5.7002,5.7222,5.7222,5.7439,5.7725,5.7674,5.7699,5.7725,5.7623,5.7658,5.7749,5.7698,5.7553,5.7437,5.7437,5.7157,5.6851,5.6967,5.6937,5.6795,5.6795,5.6795,5.6645,5.6162,5.6042,5.5939,5.5451,5.532,5.5275,5.5386,5.4501,5.364,5.3253,5.2347,5.1576,5.1253,5.1708,5.2097,5.2187,5.3204,5.4162,5.482,5.4573,5.4492,5.4651,5.4006,5.3718,5.406,5.484,5.6007,5.764,5.834,5.9183,6.0146,5.9804,5.9438,5.9114,5.87,5.8523,5.8523,5.8523,5.8523,5.8513,5.8553,5.8141,5.7456,5.7927,5.7671,5.7035,5.7575,5.7826,5.775,5.6388,5.616,5.6363,5.7391,5.8047,5.8548,5.8273,5.8408,5.8382,5.7918,5.7868,5.7816,5.7606,5.809,5.8601,5.8933,5.933,5.9877,6.0611,6.1006,6.1085,6.0854,6.0452,6.025,6.025,5.9825,5.9438,5.9099,5.9531,5.9738,5.9738,6.0077,6.0246,6.0246,6.0444,6.0661,6.0881,6.0344,6.0128,6.0081,5.9003,5.8161,5.7649,5.766,5.7511,5.7306,5.7522,5.773,5.7875,5.7747,5.7772,5.7875,5.7721,5.7911,5.8239,5.8239,5.8298,5.8361,5.8361,5.8011,5.7573,5.7184,5.7363,5.7573,5.7184,5.7094,5.7034,5.6761,5.6805,5.6874,5.6492,5.6289,5.6124,5.5946,5.4939,5.4037,5.3792,5.2702,5.2,5.224,5.2247,5.2606,5.3683,5.4371,5.5119,5.6107,5.5768,5.5432,5.5394,5.4869,5.4693,5.4979,5.5871,5.7038,5.853,5.9514,6.0145,6.0515,5.9927,5.9508,5.9368,5.877,5.8523,5.8523,5.8836,5.8967,5.9019,5.9196,5.8729,5.7866,5.8343,5.8074,5.7524,5.7801,5.7901,5.7763,5.6671,5.6207,5.6143,5.815,5.9013,5.9492,5.878,5.8955,5.881,5.7821,5.8063,5.8321,5.823,5.9183,5.9997,6.0204,6.0755,6.1231,6.1621,6.1628,6.179,6.2223,6.1717,6.1351,6.1298,6.052,6.0114,6.0114,6.0283,6.0385,6.0385,6.0554,6.0603,6.0545,6.1147,6.1365,6.124,6.0828,6.064,6.0622,5.9428,5.8591,5.8196,5.8321,5.8161,5.7806,5.7966,5.8196,5.836,5.8,5.7992,5.8148,5.7944,5.8223,5.8674,5.8824,5.9081,5.9368,5.9518,5.9219,5.8683,5.8171,5.8291,5.8441,5.7932,5.7663,5.7539,5.7472,5.7599,5.7617,5.7389,5.7144,5.6914,5.6586,5.5556,5.4679,5.4456,5.3294,5.2606,5.3139,5.3049,5.3473,5.4999,5.5448,5.6137,5.7423,5.6998,5.6555,5.6394,5.6106,5.5942,5.5947,5.6885,5.7933,5.9182,6.0247,6.0817,6.0817,5.9996,5.9613,5.9578,5.8876,5.8523,5.8523,5.9133,5.9395,5.9411,5.9851,5.9396,5.843,5.885,5.8554,5.7901,5.7901,5.7901,5.7763,5.6782,5.633,5.6192,5.8926,5.8545,5.8445,5.9037,5.8427,5.8037,5.8608,5.8411,5.8503,5.9346,5.9585,5.9977,6.0933,6.1086,6.1202,6.1396,6.1437,6.1506,6.1729,6.1716,6.1561,6.1313,6.052,6.0114,6.0114,6.0825,6.1231,6.1231,6.1907,6.208,6.1902,6.2603,6.2749,6.2349,6.1829,6.1344,6.0901,5.968,5.8875,5.8374,5.841,5.8784,5.9255,5.8686,5.9068,5.9842,5.9216,5.8976,5.9003,5.8976,5.9006,5.9156,5.9785,5.9994,6.0146,6.0775,6.0896,6.0867,6.0835,6.0386,5.9937,5.9877,5.9398,5.888,5.8576,5.8267,5.8031,5.7975,5.748,5.7165,5.7376,5.6166,5.5144,5.5119,5.4007,5.3139,5.3198,5.4246,5.5029,5.5179,5.6226,5.7483,5.883,5.8901,5.8985,5.9271,5.8995,5.8426,5.7588,5.7857,5.859,5.9812,6.0464,6.0817,6.0817,5.9996,5.9613,5.9578,5.8876,5.8523,5.8523,5.9133,5.9395,5.9473,6.0525,6.0239,5.9108,6.0135,5.949,5.7901,5.7901,5.7901,5.7713,5.6362,5.6478,5.7197,5.9108,5.8943,5.8835,5.8935,5.864,5.8547,5.9041,5.9359,5.9896,6.084,6.175,6.255,6.3085,6.3107,6.3358,6.406,6.3715,6.3521,6.3731,6.3296,6.2608,6.1595,6.1278,6.109,6.109,6.1413,6.1547,6.1547,6.185,6.1911,6.183,6.1957,6.2215,6.2453,6.1148,6.099,6.1542,6.0147,5.9358,5.9032,5.9279,5.9451,5.9506,5.9495,5.9989,6.0685,6.0446,6.0356,6.0356,6.0356,6.0356,6.0386,6.0655,6.0715,6.0864,6.1523,6.1732,6.1822,6.2211,6.1553,6.0715,6.0715,6.0344,5.9883,5.9588,5.9389,5.9161,5.8757,5.8471,5.8195,5.7937,5.7213,5.6638,5.6402,5.5653,5.5204,5.5593,5.5743,5.6282,5.7483,5.8052,5.9039,6.0805,6.0606,6.0297,6.0222,5.9521,5.8856,5.83,5.8864,5.9622,6.0437,6.0681,6.0817,6.0817,5.9996,5.9613,5.9578,5.8876,5.8706,5.9072,5.9647,6.0091,6.0509,6.1293,6.0872,5.9609,6.0045,5.9477,5.8378,5.8027,5.7951,5.7921,5.7087,5.6875,5.7019,5.9534,5.9265,5.9007,5.9012,5.9058,5.9237,5.9695,6.0467,6.1284,6.2245,6.3122,6.3837,6.431,6.4332,6.4597,6.5304,6.4893,6.4559,6.4455,6.3775,6.287,6.1756,6.1923,6.1923,6.1709,6.2158,6.2291,6.2057,6.2291,6.2217,6.1955,6.2278,6.2414,6.2306,6.1329,6.1303,6.1948,6.0786,6.014,5.9914,6.0323,6.0391,6.0303,6.0409,6.0835,6.1403,6.1194,6.1076,6.1076,6.1076,6.1076,6.1164,6.1373,6.1553,6.1822,6.2271,6.2391,6.251,6.2988,6.2421,6.1642,6.1224,6.0816,6.0409,6.0117,6.0026,5.9906,5.9583,5.9327,5.9021,5.8627,5.8113,5.7689,5.745,5.6885,5.6701,5.7334,5.7244,5.7689,5.9219,5.9787,6.0595,6.1972,6.1674,6.1225,6.0775,5.9896,5.9248,5.9008,5.956,6.0192,6.079,6.0817,6.0817,6.0817,6.0135,5.9833,5.9879,5.9245,5.9179,5.9647,6.0248,6.0645,6.0951,6.1674,6.1146,5.9703,5.9853,5.9325,5.8428,5.8052,5.7962,5.804,5.7591,5.7262,5.7027,6.034,5.9368,5.87,5.9383,5.9609,5.9976,6.0688,6.1593,6.2523,6.3467,6.3198,6.3276,6.4189,6.4332,6.4387,6.442,6.4387,6.4089,6.336,6.2631,6.2058,6.1736,6.2425,6.2459,6.1722,6.3141,6.3543,6.2806,6.3543,6.3438,6.2549,6.3993,6.376,6.2148,6.2801,6.2695,6.2004,6.1559,6.1203,6.0964,6.1358,6.1743,6.2032,6.1373,6.1523,6.2032,6.1373,6.1134,6.1134,6.1134,6.1134,6.1225,6.1912,6.254,6.3108,6.3108,6.3108,6.3108,6.3108,6.3108,6.2778,6.1463,6.0789,6.0428,6.0088,6.0016,6.0096,6.0355,5.9929,5.9503,5.9503,5.8751,5.8115,5.8115,5.7573,5.7363,5.8025,5.871,5.9368,6.0054,6.1283,6.2091,6.2121,6.2112,6.1821,6.1166,6.0458,5.9963,5.9873,5.9887,6.0192,6.079,6.0817,6.0817,6.0817,6.0411,6.0299,6.0501,6.011,6.0007,6.0211,6.0812,6.0888,6.0579,6.1562,6.0996,5.9325,5.974,5.9096,5.7901,5.7901,5.7987,5.804,5.7591,5.7482,5.7537,5.9758,5.9473,5.9455,6.0261,6.0021,6.0182,6.156,6.1562,6.1828,6.2946,6.2991,6.3276,6.4244,6.3923,6.4023,6.5028,6.4664,6.4321,6.4089,6.3857,6.3491,6.2855,6.2523,6.229,6.2058,6.249,6.2855,6.3154,6.3387,6.3344,6.3048,6.3513,6.343,6.2864,6.2479,6.248,6.2631,6.1774,6.1504,6.1659,6.1539,6.1743,6.2061,6.1882,6.2211,6.2778,6.2599,6.248,6.248,6.248,6.248,6.254,6.2748,6.2958,6.3108,6.3108,6.3108,6.3108,6.3108,6.3108,6.3018,6.26,6.2198,6.1881,6.178,6.1385,6.108,6.1162,6.1025,6.0834,6.0671,6.0546,6.0396,6.0264,6.0057,5.9997,6.0179,6.0386,6.0745,6.1403,6.1852,6.245,6.3348,6.3031,6.2881,6.3172,6.2022,6.0885,5.9961,6.0301,6.0627,6.079,6.0817,6.0817,6.0817,6.0411,6.0111,5.9879,5.9863,6.0007,6.0211,6.0812,6.1271,6.1562,6.1857,6.1342,6.0265,6.0033,5.9528,5.8981,5.8629,5.8345,5.8221,5.8079,5.7667,5.718,5.996,5.9753,5.9728,6.0269,6.0235,6.0496,6.1617,6.1729,6.196,6.2793,6.3012,6.3286,6.3902,6.3824,6.4089,6.4929,6.4597,6.4465,6.4763,6.4553,6.4188,6.3758,6.3294,6.2929,6.2631,6.3194,6.3559,6.3725,6.4023,6.399,6.3725,6.3705,6.3367,6.2719,6.2508,6.2405,6.2333,6.2101,6.2074,6.2193,6.2156,6.2292,6.248,6.248,6.2748,6.3108,6.3108,6.3108,6.3108,6.3108,6.3108,6.3108,6.3108,6.3108,6.3108,6.3108,6.3108,6.3108,6.3108,6.3108,6.3137,6.3223,6.2884,6.2425,6.2152,6.1873,6.1654,6.1654,6.1572,6.1463,6.1299,6.1297,6.1299,6.1132,6.1076,6.1194,6.1463,6.1493,6.1732,6.2421,6.269,6.3139,6.3917,6.3654,6.3557,6.3835,6.3054,6.2015,6.0929,6.1218,6.1207,6.0817,6.0817,6.0898,6.1081,6.0874,6.0626,6.0332,6.0677,6.0862,6.0927,6.1293,6.1558,6.1785,6.1935,6.129,6.015,5.9969,5.9604,5.9156,5.8855,5.8517,5.831,5.831,5.7734,5.6981,6.0569,6.0098,5.9727,5.9792,6.0299,6.0787,6.1139,6.1927,6.2617,6.2881,6.3142,6.3327,6.3393,6.399,6.442,6.4487,6.4432,6.4697,6.5337,6.4829,6.4487,6.4487,6.4487,6.4188,6.3493,6.4697,6.5028,6.4487,6.5094,6.5094,6.4498,6.4374,6.3547,6.2229,6.275,6.2441,6.1638,6.25,6.2768,6.2608,6.2954,6.3108,6.3108,6.3108,6.3108,6.3108,6.3108,6.3108,6.3108,6.3108,6.3108,6.3108,6.3108,6.3108,6.3108,6.3108,6.3108,6.3108,6.3108,6.3108,6.3194,6.3453,6.3116,6.2544,6.1939,6.1954,6.215,6.221,6.1989,6.1795,6.1795,6.1601,6.1405,6.1373,6.1373,6.1553,6.2121,6.2181,6.2421,6.3048,6.3617,6.4006,6.4006,6.4159,6.4081,6.3607,6.363,6.3311,6.2559,6.2448,6.2001,6.1124,6.0987,6.1162,6.1678,6.1732,6.1644,6.1397,6.2019,6.2175,6.1932,6.1984,6.1823,6.1457,6.186,6.1022,5.9439,5.9817,5.9503,5.8742,5.8703,5.8567,5.831,5.8246,5.7695,5.6981,5.9913,5.9804,5.9856,6.0461,6.0235,6.0398,6.1747,6.1829,6.2027,6.2782,6.3142,6.3526,6.4089,6.4288,6.4597,6.516,6.5171,6.5204,6.537,6.526,6.5194,6.5194,6.5194,6.5127,6.4962,6.4697,6.4763,6.5194,6.5304,6.5304,6.5171,6.4571,6.4065,6.3611,6.2934,6.2729,6.2948,6.27,6.2873,6.327,6.3163,6.3108,6.3108,6.3108,6.3108,6.3108,6.3108,6.3108,6.3108,6.3108,6.3108,6.3108,6.3108,6.3108,6.3108,6.3108,6.3108,6.3108,6.3108,6.3252,6.3453,6.351,6.3981,6.4423,6.4213,6.404,6.4107,6.462,6.4449,6.4244,6.4244,6.4215,6.3977,6.3468,6.3378,6.3258,6.2928,6.2898,6.2958,6.3078,6.3617,6.4006,6.4006,6.4964,6.5225,6.4264,6.4668,6.4775,6.4363,6.3493,6.3171,6.3438,6.2594,6.2185,6.2294,6.2755,6.248,6.1406,6.2019,6.1963,6.1319,6.1764,6.1973,6.1898,6.1973,6.1405,6.0405,6.0481,6.0062,5.9294,5.8984,5.8656,5.8271,5.7892,5.7418,5.6981,5.9694,5.9694,5.9921,6.0656,6.0494,6.0658,6.2008,6.2001,6.2058,6.264,6.3243,6.3782,6.4178,6.4597,6.5028,6.537,6.5403,6.5403,6.5403,6.5403,6.5403,6.5403,6.5403,6.5403,6.5403,6.537,6.537,6.5403,6.5403,6.5389,6.5322,6.4545,6.4167,6.4019,6.3261,6.3025,6.3155,6.3014,6.3093,6.3309,6.3165,6.3108,6.3108,6.3108,6.3108,6.3108,6.3108,6.3108,6.3108,6.3108,6.3287,6.3528,6.3528,6.3737,6.4006,6.4006,6.4006,6.3976,6.3792,6.4116,6.444,6.4395,6.5049,6.5561,6.5054,6.4947,6.5076,6.5437,6.5232,6.4994,6.4994,6.4994,6.4934,6.4751,6.4721,6.4631,6.427,6.424,6.4182,6.4036,6.4306,6.4605,6.4934,6.5892,6.6247,6.5664,6.6256,6.6317,6.5643,6.5372,6.492,6.4205,6.3612,6.3183,6.2918,6.3243,6.3019,6.2206,6.2525,6.2281,6.1529,6.188,6.201,6.201,6.201,6.1521,6.0698,6.0698,6.024,5.9419,5.8782,5.843,5.8222,5.7496,5.7136,5.6981,5.9694,5.9792,6.0073,6.0688,6.0882,6.1274,6.2168,6.2366,6.2489,6.2766,6.3592,6.411,6.411,6.4838,6.5358,6.5358,6.5381,6.5403,6.5403,6.5403,6.5403,6.5403,6.5502,6.5546,6.5501,6.6229,6.6285,6.5569,6.5589,6.5532,6.5491,6.452,6.4108,6.4058,6.3564,6.3185,6.3003,6.3295,6.3309,6.3108,6.3108,6.3108,6.3108,6.3108,6.3108,6.3108,6.3108,6.3108,6.3108,6.3227,6.3588,6.4006,6.4126,6.4545,6.4994,6.4994,6.5024,6.5023,6.4747,6.5134,6.564,6.5582,6.612,6.6459,6.5681,6.5637,6.5768,6.5829,6.5562,6.5323,6.5323,6.5383,6.5472,6.5619,6.5737,6.5707,6.5528,6.5498,6.538,6.5024,6.5084,6.5413,6.6101,6.6759,6.7148,6.7148,6.7808,6.7821,6.7086,6.736,6.6764,6.5056,6.4678,6.4269,6.3729,6.3613,6.3424,6.3111,6.3111,6.2731,6.201,6.201,6.1973,6.1898,6.1898,6.1382,6.0584,6.0584,6.0112,5.9269,5.8356,5.7981,5.7888,5.6931,5.6671,5.6861,5.9694,6.0202,6.0688,6.0785,6.1271,6.1919,6.2677,6.2991,6.3356,6.3965,6.4391,6.4617,6.4617,6.492,6.5144,6.5144,6.5291,6.5403,6.5403,6.5403,6.5403,6.5403,6.5999,6.6217,6.6012,6.6737,6.6862,6.6363,6.6279,6.6261,6.6239,6.4734,6.4194,6.4462,6.3421,6.3124,6.3416,6.325,6.3137,6.3108,6.3108,6.3108,6.3108,6.3108,6.3108,6.3108,6.3108,6.3108,6.3197,6.3707,6.3917,6.4096,6.4665,6.4934,6.4994,6.4994,6.5202,6.5408,6.5378,6.5817,6.6282,6.6277,6.6999,6.7664,6.7514,6.7108,6.682,6.7155,6.6973,6.6729,6.6729,6.6973,6.7005,6.6462,6.661,6.6487,6.5617,6.5498,6.538,6.5024,6.5503,6.6131,6.6789,6.7479,6.7868,6.7868,6.8465,6.903,6.947,6.8658,6.8194,6.8176,6.6599,6.5541,6.5127,6.45,6.3828,6.3111,6.3111,6.2731,6.201,6.201,6.1823,6.1457,6.1457,6.1003,6.0201,6.0201,5.9654,5.8753,5.7899,5.7281,5.6707,5.5878,5.5881,5.6356,6.0235,6.0591,6.1044,6.1821,6.221,6.2663,6.3408,6.3631,6.3798,6.4067,6.4333,6.4495,6.4495,6.4725,6.494,6.5076,6.5189,6.5269,6.5403,6.5801,6.5999,6.5999,6.6591,6.6816,6.67,6.7274,6.7361,6.6844,6.6411,6.616,6.6103,6.5057,6.4519,6.4447,6.3815,6.352,6.3481,6.3223,6.3108,6.3108,6.3108,6.3317,6.3587,6.3227,6.3317,6.3588,6.3588,6.3827,6.4216,6.4485,6.4814,6.5173,6.5473,6.5832,6.6161,6.6342,6.6523,6.6612,6.6574,6.702,6.7468,6.7275,6.785,6.8458,6.8458,6.8076,6.7754,6.7759,6.7669,6.7517,6.7335,6.7548,6.7728,6.7575,6.7693,6.763,6.7178,6.7,6.6703,6.6192,6.637,6.6819,6.7508,6.7838,6.8167,6.8525,6.9183,6.9662,6.9961,6.9838,6.9479,6.8837,6.7346,6.6195,6.5407,6.4428,6.369,6.3111,6.3111,6.2731,6.201,6.201,6.1785,6.1382,6.1382,6.0927,6.0125,6.0125,5.9527,5.8565,5.7476,5.6396,5.5498,5.5405,5.5746,5.6173]},{"header":{"parameterUnit":"m.s-1","parameterCategory":1,"la1":30.6,"la2":28.766,"lo1":-90.7593,"lo2":-88.6598,"dy":0.0162,"dx":0.0183,"nx":116,"ny":114,"refTime":"2023-06-01T06:00:00:Z","depth":0,"parameterNumber":3,"parameterNumberName":"V-component_of_WINDS"},"data":[0.0,0.0,0.0,0.0,0.0,0.0,0.0,0.0,0.0,0.0,0.0,0.0,0.0,0.0,0.0,0.0,0.0,0.0,0.0,0.0,0.0,0.0,0.0,0.0,0.0,0.0,0.0,0.0,0.0,0.0,0.0,0.0,0.0,0.0,0.0,0.0,0.0,0.0,0.0,0.0,0.0,0.0,0.0,0.0,0.0,0.0,0.0,0.0,0.0,0.0,0.0,0.0,0.0,0.0,0.0,0.0,0.0,0.0,0.0,0.0,0.0,0.0,0.0,0.0,0.0,0.0,0.0,0.0,0.0,0.0,0.0,0.0,0.0,0.0,0.0,0.0,0.0,0.0,0.0,0.0,0.0,0.0,0.0,0.0,0.0,0.0,0.0,0.0,0.0,0.0,0.0,0.0,0.0,0.0,0.0,0.0,0.0,0.0,0.0,0.0,0.0,0.0,0.0,0.0,0.0,0.0,0.0,0.0,0.0,0.0,0.0,0.0,0.0,0.0,0.0,0.0,0.0,0.0,0.0,0.0,0.0,0.0,0.0,0.0,0.0,0.0,0.0,0.0,0.0,0.0,0.0,0.0,0.0,0.0,0.0,0.0,0.0,0.0,0.0,0.0,0.0,0.0,0.0,0.0,0.0,0.0,0.0,0.0,0.0,0.0,0.0,0.0,0.0,0.0,0.0,0.0,0.0,0.0,0.0,0.0,0.0,0.0,0.0,0.0,0.0,0.0,0.0,0.0,0.0,0.0,0.0,0.0,0.0,0.0,0.0,0.0,0.0,0.0,0.0,0.0,0.0,0.0,0.0,0.0,0.0,0.0,0.0,0.0,0.0,0.0,0.0,0.0,0.0,0.0,0.0,0.0,0.0,0.0,0.0,0.0,0.0,0.0,0.0,0.0,0.0,0.0,0.0,0.0,0.0,0.0,0.0,0.0,0.0,0.0,0.0,0.0,0.0,0.0,0.0,0.0,0.0,0.0,0.0,0.0,0.0,0.0,0.0,0.0,0.0,0.0,0.0,0.0,0.0,0.0,0.0,0.0,0.0,0.0,0.0,0.0,0.0,0.0,0.0,0.0,0.0,0.0,0.0,0.0,0.0,0.0,0.0,0.0,0.0,0.0,0.0,0.0,0.0,0.0,0.0,0.0,0.0,0.0,0.0,0.0,0.0,0.0,0.0,0.0,0.0,0.0,0.0,0.0,0.0,0.0,0.0,0.0,0.0,0.0,0.0,0.0,0.0,0.0,0.0,0.0,0.0,0.0,0.0,0.0,0.0,0.0,0.0,0.0,0.0,0.0,0.0,0.0,0.0,0.0,0.0,0.0,0.0,0.0,0.0,0.0,0.0,0.0,0.0,0.0,0.0,0.0,0.0,0.0,0.0,0.0,0.0,0.0,0.0,0.0,0.0,0.0,0.0,0.0,0.0,0.0,0.0,0.0,0.0,0.0,0.0,0.0,0.0,0.0,0.0,0.0,0.0,0.0,0.0,0.0,0.0,0.0,0.0,0.0,0.0,0.0,0.0,0.0,0.0,0.0,0.0,0.0,0.0,0.0,0.0,0.0,0.0,0.0,0.0,0.0,0.0,0.0,0.0,0.0,0.0,0.0,0.0,0.0,0.0,0.0,0.0,0.0,0.0,0.0,0.0,0.0,0.0,0.0,0.0,0.0,0.0,0.0,0.0,0.0,0.0,0.0,0.0,0.0,0.0,0.0,0.0,0.0,0.0,0.0,0.0,0.0,0.0,0.0,0.0,0.0,0.0,0.0,0.0,0.0,0.0,0.0,0.0,0.0,0.0,0.0,0.0,0.0,0.0,0.0,0.0,0.0,0.0,0.0,0.0,0.0,0.0,0.0,0.0,0.0,0.0,0.0,0.0,0.0,0.0,0.0,0.0,0.0,0.0,0.0,0.0,0.0,0.0,0.0,0.0,0.0,0.0,0.0,0.0,0.0,0.0,0.0,0.0,0.0,0.0,0.0,0.0,0.0,0.0,0.0,0.0,0.0,0.0,0.0,0.0,0.0,0.0,0.0,0.0,0.0,0.0,0.0,0.0,0.0,0.0,0.0,0.0,0.0,0.0,0.0,0.0,0.0,0.0,0.0,0.0,0.0,0.0,0.0,0.0,0.0,0.0,0.0,0.0,0.0,0.0,0.0,0.0,0.0,0.0,0.0,0.0,0.0,0.0,0.0,0.0,0.0,0.0,0.0,0.0,0.0,0.0,0.0,0.0,0.0,0.0,0.0,0.0,0.0,0.0,0.0,0.0,0.0,0.0,0.0,0.0,0.0,0.0,0.0,0.0,0.0,0.0,0.0,0.0,0.0,0.0,0.0,0.0,0.0,0.0,0.0,0.0,0.0,0.0,0.0,0.0,0.0,0.0,0.0,0.0,0.0,0.0,0.0,0.0,0.0,0.0,0.0,0.0,0.0,0.0,0.0,0.0,0.0,0.0,0.0,0.0,0.0,0.0,0.0,0.0,0.0,0.0,0.0,0.0,0.0,0.0,0.0,0.0,0.0,0.0,0.0,0.0,0.0,0.0,0.0,0.0,0.0,0.0,0.0,0.0,0.0,0.0,0.0,0.0,0.0,0.0,0.0,0.0,0.0,0.0,0.0,0.0,0.0,0.0,0.0,0.0,0.0,0.0,0.0,0.0,0.0,0.0,0.0,0.0,0.0,0.0,0.0,0.0,0.0,0.0,0.0,0.0,0.0,0.0,0.0,0.0,0.0,0.0,0.0,0.0,0.0,0.0,0.0,0.0,0.0,0.0,0.0,0.0,0.0,0.0,0.0,0.0,0.0,0.0,0.0,0.0,0.0,0.0,0.0,0.0,0.0,0.0,0.0,0.0,0.0,0.0,0.0,0.0,0.0,0.0,0.0,0.0,0.0,0.0,0.0,0.0,0.0,0.0,0.0,0.0,0.0,0.0,0.0,0.0,0.0,0.0,0.0,0.0,0.0,0.0,0.0,0.0,0.0,0.0,0.0,0.0,0.0,0.0,0.0,0.0,0.0,0.0,0.0,0.0,0.0,0.0,0.0,0.0,0.0,0.0,0.0,0.0,0.0,0.0,0.0,0.0,0.0,0.0,0.0,0.0,0.0,0.0,0.0,0.0,0.0,0.0,0.0,0.0,0.0,0.0,0.0,0.0,0.0,0.0,0.0,0.0,0.0,0.0,0.0,0.0,0.0,0.0,0.0,0.0,0.0,0.0,0.0,0.0,0.0,0.0,0.0,0.0,0.0,0.0,0.0,0.0,0.0,0.0,0.0,0.0,0.0,0.0,0.0,0.0,0.0,0.0,0.0,0.0,0.0,0.0,0.0,0.0,0.0,0.0,0.0,0.0,0.0,0.0,0.0,0.0,0.0,0.0,0.0,0.0,0.0,0.0,0.0,0.0,0.0,0.0,0.0,0.0,0.0,0.0,0.0,0.0,0.0,0.0,0.0,0.0,0.0,0.0,0.0,0.0,0.0,0.0,0.0,0.0,0.0,0.0,0.0,0.0,0.0,0.0,0.0,0.0,0.0,0.0,0.0,0.0,0.0,0.0,0.0,0.0,0.0,0.0,0.0,0.0,0.0,0.0,0.0,0.0,0.0,0.0,0.0,0.0,0.0,0.0,0.0,0.0,0.0,0.0,0.0,0.0,0.0,0.0,0.0,0.0,0.0,0.0,0.0,0.0,0.0,0.0,0.0,0.0,0.0,0.0,0.0,0.0,0.0,0.0,0.0,0.0,0.0,0.0,0.0,0.0,0.0,0.0,0.0,0.0,0.0,0.0,0.0,0.0,0.0,0.0,0.0,0.0,0.0,0.0,0.0,0.0,0.0,0.0,0.0,0.0,0.0,0.0,0.0,0.0,0.0,0.0,0.0,0.0,0.0,0.0,0.0,0.0,0.0,0.0,0.0,0.0,0.0,0.0,0.0,0.0,0.0,0.0,0.0,0.0,0.0,0.0,0.0,0.0,0.0,0.0,0.0,0.0,0.0,0.0,0.0,0.0,0.0,0.0,0.0,0.0,0.0,0.0,0.0,0.0,0.0,0.0,0.0,0.0,0.0,0.0,0.0,0.0,0.0,0.0,0.0,0.0,0.0,0.0,0.0,0.0,0.0,0.0,0.0,0.0,0.0,0.0,0.0,0.0,0.0,0.0,0.0,0.0,0.0,0.0,0.0,0.0,0.0,0.0,0.0,0.0,0.0,0.0,0.0,0.0,0.0,0.0,0.0,0.0,0.0,0.0,0.0,0.0,0.0,0.0,0.0,0.0,0.0,0.0,0.0,0.0,0.0,0.0,0.0,0.0,0.0,0.0,0.0,0.0,0.0,0.0,0.0,0.0,0.0,0.0,0.0,0.0,0.0,0.0,0.0,0.0,0.0,0.0,0.0,0.0,0.0,0.0,0.0,0.0,0.0,0.0,0.0,0.0,0.0,0.0,0.0,0.0,0.0,0.0,0.0,0.0,0.0,0.0,0.0,0.0,0.0,0.0,0.0,0.0,0.0,0.0,0.0,0.0,0.0,0.0,0.0,0.0,0.0,0.0,0.0,0.0,0.0,0.0,0.0,0.0,0.0,0.0,0.0,0.0,0.0,0.0,0.0,0.0,0.0,0.0,0.0,0.0,0.0,0.0,0.0,0.0,0.0,0.0,0.0,0.0,0.0,0.0,0.0,0.0,0.0,0.0,0.0,0.0,0.0,0.0,0.0,0.0,0.0,0.0,0.0,0.0,0.0,0.0,0.0,0.0,0.0,0.0,0.0,0.0,0.0,0.0,0.0,0.0,0.0,0.0,0.0,0.0,0.0,0.0,0.0,0.0,0.0,0.0,0.0,0.0,0.0,0.0,0.0,0.0,0.0,0.0,0.0,0.0,0.0,0.0,0.0,0.0,0.0,0.0,0.0,0.0,0.0,0.0,0.0,0.0,0.0,0.0,0.0,0.0,0.0,0.0,0.0,0.0,0.0,0.0,0.0,0.0,0.0,0.0,0.0,0.0,0.0,0.0,0.0,0.0,0.0,0.0,0.0,0.0,0.0,0.0,0.0,0.0,0.0,0.0,0.0,0.0,0.0,0.0,0.0,0.0,0.0,0.0,0.0,0.0,0.0,0.0,0.0,0.0,0.0,0.0,0.0,0.0,0.0,0.0,0.0,0.0,0.0,0.0,0.0,0.0,0.0,0.0,0.0,0.0,0.0,0.0,0.0,0.0,0.0,0.0,0.0,0.0,0.0,0.0,0.0,0.0,0.0,0.0,0.0,0.0,0.0,0.0,0.0,0.0,0.0,0.0,0.0,0.0,0.0,0.0,0.0,0.0,0.0,0.0,0.0,0.0,0.0,0.0,0.0,0.0,0.0,0.0,0.0,0.0,0.0,0.0,0.0,0.0,0.0,0.0,0.0,0.0,0.0,0.0,0.0,0.0,0.0,0.0,0.0,0.0,0.0,0.0,0.0,0.0,0.0,0.0,0.0,0.0,0.0,0.0,0.0,0.0,0.0,0.0,0.0,0.0,0.0,0.0,0.0,0.0,0.0,0.0,0.0,0.0,0.0,0.0,0.0,0.0,0.0,0.0,0.0,0.0,0.0,0.0,0.0,0.0,0.0,0.0,0.0,0.0,0.0,0.0,0.0,0.0,0.0,0.0,0.0,0.0,0.0,0.0,0.0,0.0,0.0,0.0,0.0,0.0,0.0,0.0,0.0,0.0,0.0,0.0,0.0,0.0,0.0,0.0,0.0,0.0,0.0,0.0,0.0,0.0,0.0,0.0,0.0,0.0,0.0,0.0,0.0,0.0,0.0,0.0,0.0,0.0,0.0,0.0,0.0,0.0,0.0,0.0,0.0,0.0,0.0,0.0,0.0,0.0,0.0,0.0,0.0,0.0,0.0,0.0,0.0,0.0,0.0,0.0,0.0,0.0,0.0,0.0,0.0,0.0,0.0,0.0,0.0,0.0,0.0,0.0,0.0,0.0,0.0,0.0,0.0,0.0,0.0,0.0,0.0,0.0,0.0,0.0,0.0,0.0,0.0,0.0,0.0,0.0,0.0,0.0,0.0,0.0,0.0,0.0,0.0,0.0,0.0,0.0,0.0,0.0,0.0,0.0,0.0,2.3268,2.2578,0.0,0.0,0.0,0.0,0.0,0.0,0.0,0.0,0.0,0.0,0.0,0.0,0.0,0.0,0.0,0.0,0.0,0.0,0.0,0.0,0.0,0.0,0.0,0.0,0.0,0.0,0.0,0.0,0.0,0.0,0.0,0.0,0.0,0.0,0.0,0.0,0.0,0.0,1.4909,1.4883,1.5104,1.5135,1.5096,1.5007,0.0,0.0,0.0,0.0,0.0,0.0,0.0,0.0,0.0,0.0,0.0,0.0,0.0,0.0,0.0,0.0,0.0,0.0,0.0,0.0,0.0,0.0,0.0,0.0,0.0,0.0,0.0,0.0,0.0,0.0,0.0,0.0,0.0,0.0,0.0,0.0,0.0,0.0,0.0,0.0,0.0,0.0,0.0,0.0,0.0,0.0,0.0,0.0,0.0,0.0,0.0,0.0,0.0,0.0,0.0,0.0,0.0,0.0,0.0,0.0,0.0,0.0,0.0,0.0,0.0,0.0,0.0,0.0,0.0,0.0,2.5281,2.4267,0.0,0.0,0.0,0.0,0.0,0.0,0.0,0.0,0.0,0.0,0.0,0.0,0.0,0.0,0.0,0.0,0.0,0.0,0.0,0.0,0.0,0.0,0.0,1.3039,1.3132,1.3894,1.3652,1.3604,0.0,0.0,0.0,0.0,0.0,0.0,0.0,1.5595,1.5637,1.5637,1.5223,1.5311,1.5864,1.6277,1.6278,1.5909,1.5554,0.0,0.0,0.0,0.0,0.0,0.0,0.0,0.0,0.0,0.0,0.0,0.0,0.0,0.0,0.0,0.0,0.0,0.0,0.0,0.0,0.0,0.0,0.0,0.0,0.0,0.0,0.0,0.0,0.0,0.0,0.0,0.0,0.0,0.0,0.0,0.0,0.0,0.0,0.0,0.0,0.0,0.0,0.0,0.0,0.0,0.0,0.0,0.0,0.0,0.0,0.0,0.0,0.0,0.0,0.0,0.0,0.0,0.0,0.0,0.0,0.0,0.0,0.0,2.8464,2.8807,2.8852,2.9903,2.9914,2.8983,2.7759,2.6557,2.5428,2.5882,0.0,0.0,0.0,0.0,0.0,0.0,0.0,0.0,0.0,0.0,0.0,0.0,0.0,0.0,0.0,0.0,0.0,0.0,0.0,0.0,0.0,1.3679,1.3915,1.4528,1.4533,1.4521,1.4582,0.0,0.0,0.0,0.0,0.0,1.5837,1.6348,1.6623,1.6623,1.6942,1.7573,1.8476,1.8099,1.8517,1.9532,1.7716,1.737,1.8112,0.0,0.0,0.0,0.0,0.0,0.0,0.0,0.0,0.0,0.0,0.0,0.0,0.0,0.0,0.0,0.0,0.0,0.0,0.0,0.0,0.0,0.0,0.0,0.0,0.0,0.0,0.0,0.0,0.0,0.0,0.0,0.0,0.0,0.0,0.0,0.0,0.0,0.0,0.0,0.0,0.0,1.9707,2.0701,0.0,0.0,0.0,0.0,0.0,0.0,0.0,0.0,0.0,0.0,0.0,0.0,0.0,2.8641,2.8802,2.9807,3.0335,3.0428,3.0978,3.124,3.124,3.1406,3.1406,3.1262,3.1074,0.0,2.7775,2.7826,0.0,0.0,0.0,0.0,0.0,0.0,0.0,0.0,0.0,0.0,0.0,0.0,0.0,0.0,0.0,0.0,0.0,0.0,0.0,0.0,0.0,1.4115,1.4386,1.513,1.5021,1.4995,1.5185,1.5674,0.0,0.0,0.0,1.6758,1.6703,1.7205,1.7571,1.7771,1.8304,1.8736,1.9119,1.9573,2.0178,2.0894,2.0326,1.9932,1.9692,1.8845,0.0,0.0,0.0,0.0,0.0,0.0,0.0,0.0,0.0,0.0,0.0,0.0,0.0,0.0,0.0,0.0,0.0,0.0,0.0,0.0,0.0,0.0,0.0,0.0,0.0,0.0,0.0,0.0,0.0,0.0,0.0,0.0,0.0,0.0,0.0,0.0,0.0,0.0,0.0,2.0189,2.1,2.1281,2.1819,2.2103,0.0,0.0,0.0,0.0,0.0,0.0,0.0,0.0,0.0,2.8885,2.9956,3.0551,3.066,3.1719,3.2483,3.2932,3.3466,3.3964,3.4402,3.4504,3.4602,3.4614,3.4436,3.3574,3.2187,3.0127,2.9022,2.8532,0.0,0.0,0.0,0.0,2.7642,2.7709,0.0,0.0,0.0,0.0,0.0,0.0,0.0,0.0,0.0,0.0,0.0,0.0,1.4452,1.4583,1.4949,1.5773,1.574,1.5701,1.583,1.6328,1.6586,1.6455,1.7002,1.7278,1.7214,1.7744,1.8304,1.8909,1.9356,1.9726,2.0015,2.0914,2.172,2.2402,2.2743,2.2231,2.1054,2.0143,1.9523,1.9079,0.0,0.0,0.0,0.0,0.0,0.0,0.0,0.0,0.0,0.0,0.0,0.0,0.0,0.0,0.0,0.0,0.0,0.0,0.0,0.0,0.0,0.0,0.0,0.0,0.0,0.0,0.0,0.0,0.0,0.0,0.0,0.0,0.0,0.0,0.0,0.0,0.0,2.1602,2.2147,2.2074,2.308,2.3491,0.0,0.0,0.0,0.0,0.0,0.0,2.8897,2.9499,3.0198,3.118,3.2331,3.2911,3.282,3.3738,3.4461,3.4993,3.56,3.6208,3.681,3.7171,3.7345,3.7387,3.7146,3.6823,3.6186,3.2575,3.0937,3.0594,2.9517,2.9246,2.9477,2.9477,2.9477,2.9569,0.0,0.0,0.0,0.0,0.0,0.0,0.0,0.0,0.0,0.0,0.0,1.3702,1.4424,1.5118,1.5773,1.6408,1.6915,1.698,1.6487,1.695,1.6983,1.6351,1.6947,1.72,1.7025,1.7651,1.8646,2.0025,2.0047,2.0783,2.2131,2.2261,2.3328,2.5088,2.4669,2.3675,2.2286,2.1779,2.1066,2.0235,1.9255,0.0,0.0,0.0,0.0,0.0,0.0,0.0,0.0,0.0,0.0,0.0,0.0,0.0,0.0,0.0,0.0,0.0,0.0,0.0,0.0,0.0,0.0,0.0,0.0,0.0,0.0,0.0,0.0,0.0,0.0,0.0,0.0,0.0,0.0,0.0,0.0,0.0,0.0,2.3603,2.5123,0.0,0.0,0.0,0.0,2.7235,2.771,2.8738,3.0572,3.2422,3.3678,3.426,3.5573,3.6162,3.5892,3.6353,3.6519,3.6316,3.7095,3.7519,3.7568,3.8407,3.8823,3.8796,3.8773,3.8748,3.8473,3.5182,3.3525,3.302,3.1937,3.1529,3.1553,3.1553,3.1553,3.1553,0.0,0.0,0.0,0.0,0.0,0.0,0.0,0.0,1.2754,1.2645,1.3484,1.4387,1.5117,1.6109,1.7004,1.7846,1.7802,1.7671,1.7497,1.7358,1.733,1.7376,1.7621,1.8144,1.8983,1.9578,2.0571,2.1957,2.2266,2.3055,2.4303,2.4719,2.5478,2.6513,2.6759,2.6307,2.5274,2.3935,2.269,2.1529,2.0343,1.9301,0.0,0.0,0.0,0.0,0.0,0.0,0.0,0.0,0.0,0.0,0.0,0.0,0.0,0.0,0.0,0.0,0.0,0.0,0.0,0.0,0.0,0.0,0.0,0.0,0.0,0.0,0.0,0.0,0.0,0.0,0.0,0.0,0.0,0.0,0.0,0.0,0.0,2.5808,2.6973,0.0,2.7353,2.7918,2.8812,3.005,3.0882,3.2066,3.3791,3.4871,3.5669,3.6226,3.7366,3.8052,3.8157,3.8615,3.9016,3.9283,3.9967,4.0362,4.049,4.0667,4.0536,4.015,3.96,3.9146,3.8715,3.7242,3.6235,3.5448,3.3807,3.3404,3.3739,3.3955,3.4236,3.4626,0.0,0.0,0.0,0.0,0.0,0.0,0.0,0.0,1.2541,1.2492,1.3583,1.4724,1.5688,1.6833,1.7861,1.8626,1.8429,1.8174,1.8021,1.7707,1.7671,1.7999,1.8364,1.9153,2.0342,2.0945,2.1945,2.3376,2.3664,2.4428,2.5554,2.613,2.6813,2.7523,2.8114,2.8099,2.7546,2.6362,2.4687,2.2719,2.1904,2.0816,1.9597,0.0,0.0,0.0,0.0,0.0,0.0,0.0,0.0,0.0,0.0,0.0,0.0,0.0,0.0,0.0,0.0,0.0,0.0,0.0,0.0,0.0,0.0,0.0,0.0,0.0,0.0,0.0,0.0,0.0,0.0,0.0,0.0,0.0,0.0,2.512,2.6356,2.7689,2.911,2.9956,2.9919,3.0651,3.1714,3.3125,3.378,3.4869,3.66,3.7386,3.7952,3.8289,3.918,3.9704,3.9839,4.0131,4.0548,4.1087,4.1759,4.2293,4.2704,4.2708,4.2652,4.2403,4.1441,4.0872,4.0539,3.9692,3.8989,3.8292,3.5991,3.5332,3.5697,3.6102,3.6614,3.7209,0.0,0.0,0.0,0.0,0.0,0.0,0.0,1.2203,1.2412,1.2754,1.3578,1.4663,1.6068,1.7297,1.8239,1.8698,1.8735,1.8523,1.8072,1.8021,1.8021,1.805,1.915,2.0152,2.0955,2.1653,2.2714,2.4155,2.4177,2.4787,2.5897,2.6429,2.7205,2.8215,2.873,2.8938,2.8938,2.8957,2.6968,2.391,2.3934,2.3024,2.1532,0.0,0.0,0.0,0.0,0.0,0.0,0.0,0.0,0.0,0.0,0.0,0.0,0.0,0.0,0.0,0.0,0.0,0.0,0.0,0.0,0.0,0.0,0.0,0.0,0.0,0.0,0.0,0.0,0.0,0.0,0.0,0.0,0.0,2.4508,2.6083,2.7735,2.9215,3.1506,3.3045,3.3212,3.3608,3.4582,3.636,3.6341,3.7018,3.8788,3.9943,4.0562,4.0562,4.1078,4.1241,4.1024,4.0999,4.1189,4.1512,4.2314,4.3153,4.3953,4.4436,4.4924,4.5418,4.4306,4.394,4.4027,4.2421,4.1732,4.1449,3.8537,3.7392,3.7467,3.8016,3.8616,3.9347,0.0,0.0,0.0,0.0,0.0,0.0,0.0,1.1776,1.2091,1.2716,1.3902,1.5198,1.6565,1.8092,1.9207,1.9671,1.9403,1.9141,1.901,1.8377,1.8465,1.9475,2.0517,2.1571,2.2606,2.3541,2.4434,2.5331,2.5728,2.6659,2.814,2.8258,2.9129,3.0483,3.0227,3.0136,3.0111,2.9729,2.8248,2.6118,2.5254,2.3792,2.2042,0.0,0.0,0.0,0.0,0.0,0.0,0.0,0.0,0.0,0.0,0.0,0.0,0.0,0.0,0.0,0.0,0.0,0.0,0.0,0.0,0.0,0.0,0.0,0.0,0.0,0.0,0.0,0.0,0.0,0.0,0.0,2.4429,2.5223,2.5462,2.7594,2.9749,3.1412,3.3373,3.4971,3.5985,3.6512,3.7187,3.8067,3.8623,3.9361,4.0283,4.1181,4.1843,4.2237,4.2749,4.3115,4.3283,4.3484,4.3755,4.4087,4.4943,4.5255,4.5082,4.5453,4.526,4.4589,4.4087,4.3674,4.336,4.2919,4.2735,4.2449,4.0016,3.9289,3.9717,4.0517,4.1769,4.3181,0.0,0.0,0.0,0.0,0.0,0.0,0.0,1.1663,1.2066,1.2865,1.4142,1.5442,1.6603,1.8151,1.9222,1.949,1.925,1.9144,1.9221,1.9089,1.9557,2.0808,2.1861,2.2958,2.4028,2.4904,2.5652,2.6269,2.6969,2.7936,2.9125,2.957,3.0351,3.1406,3.106,3.0789,3.0563,3.0281,2.9382,2.8064,2.7033,2.5382,2.3442,2.2894,2.224,2.1546,2.1084,2.0904,2.0789,2.0254,0.0,0.0,0.0,0.0,0.0,0.0,0.0,0.0,0.0,0.0,0.0,0.0,0.0,0.0,0.0,0.0,0.0,0.0,0.0,0.0,0.0,0.0,0.0,0.0,2.6457,2.764,2.8298,2.9984,3.1984,3.4045,3.5748,3.7086,3.8113,3.8479,3.9038,3.9947,4.0453,4.1107,4.2005,4.2635,4.3128,4.3449,4.424,4.4767,4.4965,4.5752,4.635,4.6822,4.7594,4.7973,4.7963,4.7778,4.745,4.7006,4.6114,4.5582,4.5395,4.4622,4.43,4.4089,0.0,0.0,0.0,0.0,4.3745,4.4746,0.0,0.0,0.0,0.0,0.0,0.0,0.0,1.1647,1.2137,1.3086,1.4306,1.5442,1.6403,1.7824,1.8735,1.8763,1.8794,1.8907,1.917,2.0027,2.0986,2.2062,2.3117,2.4172,2.5197,2.5871,2.6467,2.7026,2.7921,2.8737,2.9483,3.0433,3.1141,3.1607,3.1512,3.1235,3.0763,3.0733,3.0302,2.963,2.8887,2.7334,2.5433,2.4982,2.4425,2.3812,2.3351,2.2669,2.195,2.1825,0.0,0.0,0.0,0.0,0.0,0.0,0.0,0.0,0.0,0.0,0.0,0.0,0.0,0.0,0.0,0.0,0.0,0.0,0.0,0.0,0.0,0.0,0.0,0.0,2.8903,3.0622,3.2163,3.3079,3.438,3.6533,3.8041,3.9128,3.9785,3.9833,4.0431,4.1814,4.1968,4.2552,4.387,4.4234,0.0,0.0,0.0,4.6332,4.636,4.7857,4.8832,4.9335,4.9937,5.0574,5.1208,5.0325,5.0244,5.0668,4.9007,4.846,4.8625,4.701,4.631,4.6015,4.3503,4.2968,4.3677,4.4597,4.4957,4.5091,0.0,0.0,0.0,0.0,0.0,0.0,0.0,1.1154,1.1723,1.3034,1.4218,1.535,1.639,1.7824,1.8851,1.9228,1.9428,1.9738,2.0328,2.091,2.1833,2.3202,2.3903,2.478,2.5953,2.6495,2.7055,2.7699,2.8313,2.9278,3.0519,3.1143,3.1935,3.2763,3.2265,3.1989,3.1842,3.1436,3.0868,3.0184,2.9495,2.8428,2.7142,2.6483,2.5682,2.4856,2.4397,2.3998,2.3567,2.2584,2.236,2.234,2.1647,2.087,0.0,0.0,0.0,0.0,0.0,0.0,0.0,0.0,0.0,0.0,0.0,0.0,0.0,0.0,0.0,0.0,0.0,0.0,0.0,2.9324,3.0563,3.2283,3.5412,3.6537,3.6982,3.6823,3.835,3.9937,4.1185,4.131,4.1862,4.3203,4.3564,4.4209,4.5335,4.5705,4.6286,4.7163,4.7927,4.8472,4.8743,4.9849,5.031,5.0185,5.0545,0.0,5.0273,4.9791,4.9656,4.9731,4.9168,4.8951,4.9003,4.8653,4.8246,4.7619,4.5428,4.5334,4.6436,4.5953,4.6211,4.6777,0.0,0.0,0.0,0.0,0.0,0.0,0.0,1.1012,1.1559,1.283,1.4117,1.5154,1.5859,1.739,1.8466,1.8767,1.9505,2.0151,2.0667,2.166,2.2815,2.4092,2.4902,2.5746,2.6677,2.7276,2.7655,2.7901,2.8967,2.9947,3.0836,3.1542,3.2325,3.309,3.2767,3.2491,3.2169,3.1913,3.1626,3.1226,3.0574,2.9912,2.9106,2.7301,2.6453,2.6147,2.5448,2.5215,2.5073,2.3864,2.3476,2.3341,2.2435,2.1838,2.1325,0.0,0.0,0.0,0.0,0.0,0.0,0.0,0.0,0.0,0.0,0.0,0.0,0.0,0.0,2.5456,2.6649,0.0,2.9464,3.198,3.3408,3.507,3.7637,3.9078,3.9611,3.8895,4.0114,4.1375,4.2225,4.2523,4.3158,4.4265,4.4734,4.5435,4.6409,4.6862,4.7444,4.8187,4.8976,4.9725,5.0407,5.133,5.2041,5.2488,5.2659,5.277,5.2742,5.2267,5.2044,5.2044,5.157,5.1404,5.1348,5.0547,4.9913,4.9199,4.7832,4.7296,4.7242,4.6803,4.6925,4.7262,0.0,0.0,0.0,0.0,0.0,0.0,0.0,1.099,1.148,1.2657,1.3872,1.4837,1.5343,1.6772,1.7896,1.8378,1.9411,2.0347,2.105,2.2309,2.3582,2.4838,2.5773,2.6623,2.7371,2.7918,2.8219,2.8239,2.9651,3.0597,3.1063,3.188,3.2579,3.3154,3.3111,3.2839,3.2365,3.2365,3.2365,3.2327,3.1623,3.1262,3.0816,2.8005,2.7108,2.7195,2.6343,2.6063,2.5958,2.5037,2.4511,2.4115,2.3242,2.281,2.246,2.1603,2.1384,0.0,0.0,0.0,0.0,0.0,0.0,0.0,0.0,2.3826,2.4617,2.5482,2.6326,2.7435,2.9158,3.0643,3.2357,3.4665,3.626,3.7797,3.9515,4.093,4.1704,4.1512,4.2188,4.289,4.3275,4.3801,4.4462,4.5331,4.6095,4.6858,4.7707,4.8297,4.8887,4.9447,5.032,5.1233,5.2077,5.3019,5.395,5.4765,5.4765,5.4962,5.5299,5.4681,5.4429,5.44,5.3923,5.3641,5.3416,5.2153,5.1262,5.0601,4.9996,4.9035,4.7996,4.7789,4.7776,4.7828,0.0,0.0,0.0,0.0,0.0,0.0,0.0,0.0,1.1367,1.2626,1.3349,1.4175,1.5275,1.6114,1.731,1.9125,1.9402,2.0334,2.2353,2.2628,2.3608,2.5494,2.6132,2.6983,2.8055,2.8159,2.8633,2.9491,3.0222,3.1039,3.1964,3.232,3.2794,3.3368,3.3176,3.3065,3.3014,3.3014,3.3014,3.2925,3.2209,3.1906,3.1614,2.9129,2.7831,2.7217,2.6715,2.6016,2.5341,2.5439,2.5016,2.449,2.4598,2.3929,2.3101,2.2978,2.209,2.1286,2.2008,2.2235,2.24,2.2833,2.308,2.366,0.0,2.5962,2.6494,2.8038,2.8791,2.9676,3.1494,3.2878,3.4543,3.6941,3.8066,3.9392,4.1475,4.1931,4.2491,4.3689,4.3683,4.387,4.4685,4.5266,4.5933,4.6812,4.8197,4.9254,4.9904,5.0787,5.1785,5.2917,5.362,5.4202,5.4597,5.5814,5.6099,5.5412,5.5412,5.5159,5.4681,5.4091,5.381,5.381,5.3726,5.336,5.2798,5.2631,5.2211,5.1594,5.0978,5.0641,5.0392,4.9537,4.942,4.9659,0.0,0.0,0.0,0.0,0.0,0.0,0.0,0.0,0.0,1.2379,1.3148,1.3909,1.4742,1.6324,1.7887,1.9282,1.9757,2.0762,2.2587,2.3253,2.42,2.5647,2.6473,2.7304,2.8199,2.8534,2.9042,2.9704,3.0349,3.1149,3.2085,3.2214,3.2714,3.3577,3.3368,3.3283,3.3283,3.3154,3.309,3.3068,3.2742,3.2373,3.1768,2.9783,2.8624,2.7809,2.6582,2.5917,0.0,2.5512,2.5111,2.4697,2.4851,2.4388,2.3762,2.3639,2.3184,2.2811,2.3225,2.3617,2.3908,2.395,2.4886,2.5953,2.6702,2.7636,2.8669,2.9789,3.0799,3.2083,3.4005,3.5362,3.6855,3.8933,4.0106,4.1258,4.2662,4.3426,4.412,4.4857,4.5594,4.597,4.5779,4.624,4.707,4.8329,4.9353,5.0445,5.1606,5.235,5.327,5.4337,5.4644,5.513,5.5825,5.6011,5.6276,5.6592,5.5861,5.5552,5.5636,5.5018,5.4737,5.4737,5.4737,5.4372,5.381,5.381,5.322,5.2293,5.204,5.1731,5.1281,5.0165,4.9881,4.9987,0.0,0.0,0.0,0.0,0.0,0.0,0.0,0.0,0.0,0.0,1.28,1.3625,1.442,1.6475,1.8195,1.9201,1.9726,2.071,2.238,2.3299,2.4383,2.5688,2.6731,2.7716,2.8673,2.9126,2.9624,3.0207,3.0676,3.1448,3.2397,3.2356,3.2926,3.402,3.359,3.3487,3.3639,3.3273,3.309,3.309,3.309,3.2688,3.1853,3.0167,2.9136,2.8339,2.6469,2.5757,2.5658,2.5374,2.4978,2.4594,2.4658,2.4366,2.399,2.3992,2.4075,2.4179,2.4179,2.4766,2.5398,2.5497,2.6821,2.8178,2.8358,2.9454,3.0653,3.1536,3.2661,3.4095,3.5995,3.7422,3.8915,4.072,4.2004,4.3073,4.3871,4.5034,4.5834,4.5828,4.7022,4.7607,4.7091,4.7717,4.866,4.9933,5.1001,5.2125,5.3263,5.4132,5.5002,5.59,5.59,5.6151,5.6646,5.6423,5.6564,5.7097,5.6198,5.6002,5.6365,5.5973,5.5749,5.5749,5.5749,5.5299,5.4597,5.4597,5.395,5.2967,5.2967,5.2686,5.2236,5.1336,5.0802,5.0493,0.0,0.0,0.0,0.0,0.0,0.0,0.0,0.0,0.0,0.0,0.0,0.0,0.0,1.6254,1.7707,1.891,1.8972,1.9792,2.178,2.2432,2.3694,2.5795,2.6847,2.8179,2.9896,2.996,3.0451,3.1448,3.1468,3.2056,3.3168,3.2988,3.3579,3.4801,3.3832,3.3715,3.4219,3.3424,3.309,3.309,3.309,3.2742,3.1989,3.0257,2.9257,2.8525,2.6514,2.5558,2.5204,2.505,2.4565,2.4026,2.4119,2.3849,2.3612,2.4053,2.4514,2.4871,2.4871,2.574,2.6873,2.7768,2.8729,2.9742,3.0917,3.1573,3.2273,3.3475,3.441,3.5534,3.7164,3.8799,4.0514,4.2255,4.3637,4.474,4.5347,4.6674,4.736,4.6734,4.7514,4.8321,4.8875,4.9993,5.0927,5.1572,5.3636,5.4892,5.4923,5.6412,5.7571,5.8191,5.8219,5.791,5.7381,5.7912,5.7631,5.6421,5.6365,5.6365,5.6393,5.6365,5.6365,5.6365,5.6365,5.5693,5.4597,5.4597,5.4232,5.367,5.367,5.367,5.3641,5.3585,5.2826,5.1731,0.0,0.0,0.0,0.0,0.0,0.0,0.0,0.0,0.0,0.0,0.0,0.0,0.0,0.0,0.0,0.0,1.8585,1.9553,2.0879,2.2338,2.3646,2.4735,2.6467,2.7854,2.8847,2.9605,3.0311,3.0963,3.1116,3.1669,3.2665,3.2725,3.3404,3.4559,3.4082,3.3896,3.3879,3.3466,3.3219,3.3065,3.2667,3.239,3.1955,2.9881,2.8978,2.862,0.0,2.5456,2.4822,2.4911,2.4448,2.3829,2.4056,2.4048,2.4098,2.4743,2.5487,2.623,2.6845,2.7904,2.9074,3.0141,3.1222,3.2271,3.3133,3.3615,3.4143,3.5113,3.5491,3.6131,3.7798,3.9182,4.0564,4.2093,4.3607,4.4916,4.5899,4.7339,4.8056,4.7364,4.9077,5.038,5.0573,4.9993,5.0612,5.3043,5.3921,5.5172,5.7116,5.7673,5.8081,5.8278,5.8699,5.8615,5.7997,5.8615,5.8699,5.8247,5.7856,5.7463,5.7069,5.7069,5.6816,5.6393,5.6393,5.5945,5.5187,5.5187,5.4821,5.4316,5.4316,5.4063,5.3698,5.3698,5.3416,5.3051,0.0,0.0,0.0,0.0,0.0,0.0,0.0,0.0,0.0,0.0,0.0,0.0,0.0,0.0,0.0,0.0,0.0,1.9408,2.0407,2.1973,2.319,2.3944,2.5653,2.7035,2.8076,2.8965,2.9706,3.0275,3.0644,3.1241,3.1971,3.2396,3.3135,3.411,3.3612,3.3513,3.3658,3.2975,3.2613,3.2437,3.1863,3.1265,3.0548,2.8886,2.8039,0.0,2.6015,2.4993,2.4377,2.4655,2.4382,2.3922,2.3937,2.4313,2.4814,2.538,2.6385,2.7607,2.8895,3.0015,3.1113,3.2556,3.3424,3.4155,3.4834,3.52,3.5508,3.5893,3.6233,3.683,3.7899,3.8971,4.0216,4.1907,4.3388,4.4794,4.6125,4.7918,4.8914,4.8486,5.0459,5.1876,5.1876,5.115,5.1849,5.4633,5.5079,5.6129,5.8191,5.8502,5.8615,5.8615,5.9008,5.8924,5.8306,5.8699,5.8783,5.8559,5.8165,5.7884,5.7716,5.7716,5.7491,5.7069,5.6873,5.6395,5.5805,5.558,5.5271,5.4906,5.4906,5.4767,5.4515,5.4373,5.4401,5.4431,0.0,0.0,0.0,0.0,0.0,0.0,0.0,0.0,0.0,0.0,0.0,0.0,0.0,0.0,0.0,0.0,0.0,0.0,2.0236,2.1266,2.2343,2.3473,2.4504,2.585,2.7529,2.8075,2.8724,2.9409,3.0179,3.0746,3.1118,3.1913,3.2682,3.339,3.2461,3.2572,3.3406,3.1969,3.1331,3.126,3.0733,2.9559,2.8072,2.7451,2.6565,2.5498,2.4757,2.4214,2.3936,2.434,2.4438,2.4288,2.3993,2.4697,2.5743,2.6129,2.7376,2.9046,3.095,3.2019,3.3005,3.4862,3.5299,3.5408,3.5976,3.6299,3.6352,3.5908,3.6753,3.7545,3.7572,3.8336,3.9647,4.1861,4.3165,4.4493,4.62,4.8507,5.0028,4.9972,5.1701,5.2883,5.2854,5.3473,5.4569,5.6337,5.7041,5.7631,5.8306,5.8924,5.9202,5.9174,5.9202,5.898,5.8362,5.8362,5.8053,5.7463,5.7463,5.7772,5.8362,5.8362,5.8306,5.8221,5.7631,5.6985,5.6309,5.5749,5.5496,5.5525,5.5496,5.57,5.5961,5.5613,5.57,5.5791,0.0,0.0,0.0,0.0,0.0,0.0,0.0,0.0,0.0,0.0,0.0,0.0,0.0,0.0,0.0,0.0,0.0,0.0,1.874,2.0103,2.1306,2.2286,2.3773,2.4959,2.5758,2.7146,2.7994,2.8223,2.9173,2.9696,2.9814,3.0394,3.0896,3.1203,3.1106,3.1055,3.0998,3.0601,3.0337,3.0156,2.9559,2.9082,2.8518,2.6759,2.5938,2.555,2.4515,2.3787,2.3491,2.4129,2.4639,2.513,2.608,2.6606,2.7238,2.9106,3.0479,3.1792,3.3688,3.4637,3.5371,3.6552,3.6566,3.6524,3.7307,3.6945,3.668,3.7459,3.6941,3.6527,3.7171,3.8517,4.01,4.1911,4.3818,4.5773,4.7889,5.0362,5.1766,5.1223,5.3708,5.5299,5.485,5.5355,5.6311,5.7716,5.7097,5.735,5.8896,5.9539,5.9651,5.9202,5.9623,5.9567,5.898,5.898,5.8896,5.8755,5.8755,5.884,5.898,5.898,5.8474,5.7603,5.7463,5.676,5.5721,5.5552,5.5642,5.5845,5.5583,5.57,5.5961,5.5613,5.5554,5.5584,0.0,0.0,0.0,0.0,0.0,0.0,0.0,0.0,0.0,0.0,0.0,0.0,0.0,0.0,0.0,0.0,0.0,0.0,0.0,1.9344,2.0386,2.0896,2.2374,2.3477,2.4082,2.5319,2.6097,2.6401,2.743,2.804,2.8214,2.8821,2.9305,2.9644,2.9699,2.9697,2.9682,2.9378,2.9126,0.0,0.0,2.7739,2.7058,2.5477,2.4712,2.4348,2.3206,2.2953,2.3397,2.497,2.5638,2.6103,2.7741,2.8418,2.8964,3.0952,3.2394,3.3683,3.5408,3.6246,3.6852,3.7898,3.7687,3.7405,3.7913,3.7627,3.7234,3.7186,3.6822,3.6454,3.6463,3.7839,3.9572,4.148,4.3463,4.5698,4.8416,5.0431,5.1888,5.2682,5.477,5.6166,5.6337,5.6873,5.7547,5.825,5.7631,5.794,5.9511,5.9904,6.0072,6.0048,6.0385,6.0213,5.9595,5.9314,5.9174,5.9174,5.9174,5.9174,5.9174,5.9174,5.884,5.8165,5.7912,5.7378,5.6704,5.6451,5.6457,5.6605,5.6428,5.6546,5.6754,5.6457,5.64,5.6547,0.0,0.0,0.0,0.0,0.0,0.0,0.0,0.0,0.0,0.0,0.0,0.0,0.0,0.0,0.0,0.0,0.0,0.0,0.0,0.0,1.943,1.9672,2.0732,2.1721,2.2607,2.3213,2.3785,2.436,2.5373,2.6053,2.6451,2.7215,2.7804,2.817,2.8104,2.8243,2.8568,2.7907,2.7483,2.7216,2.6763,2.5881,2.4725,0.0,2.3152,2.2552,2.1593,2.2056,2.3486,2.6066,2.6866,2.715,2.909,3.0052,3.0724,3.2254,3.3699,3.5096,3.6588,3.7265,3.7841,3.8922,3.8559,3.7991,3.8161,3.8092,3.7612,3.6183,3.6479,3.6684,3.5683,3.6936,3.8868,4.1152,4.2858,4.5095,4.8542,4.9973,5.1575,5.4118,5.5518,5.6624,5.7571,5.8109,5.8418,5.8418,5.8502,5.9008,6.0044,6.0269,6.0578,6.1088,6.1088,6.075,5.9988,5.9455,5.9174,5.9174,5.9174,5.9174,5.9174,5.9174,5.9177,5.9064,5.8531,5.825,5.8137,5.7603,5.7439,5.7499,5.7324,5.7449,5.769,5.7304,5.7394,5.7869,0.0,0.0,0.0,0.0,0.0,0.0,0.0,0.0,0.0,0.0,1.0198,1.0913,0.0,0.0,0.0,0.0,0.0,0.0,0.0,0.0,0.0,1.9463,1.9751,2.0428,2.1627,2.2176,2.2645,2.3031,2.3831,2.4312,2.4501,2.5411,2.5703,2.5493,2.6097,2.5996,2.5386,2.5253,2.4937,2.4485,2.4388,2.3958,2.3273,2.2269,0.0,0.0,2.1146,2.1923,2.3466,2.5871,2.7151,2.8139,3.0245,3.1223,3.1957,3.3825,3.5301,3.6631,3.8042,3.8501,3.8722,3.9494,3.8627,3.7762,3.8442,3.7549,3.6492,3.6327,3.6014,3.5734,3.5533,3.7287,3.9622,4.2258,4.3689,4.5799,4.959,5.1797,5.3507,5.4885,5.713,5.8678,5.8865,5.898,5.9064,5.9064,5.9511,5.9876,6.01,6.1083,6.1509,6.1116,6.1088,6.0554,5.937,5.923,5.9174,5.9174,5.9174,5.9174,5.9174,5.9174,5.8952,5.8446,5.8362,5.8025,5.7547,5.7435,5.771,5.8042,5.6997,5.6948,5.7333,5.6208,5.6673,5.7743,0.0,0.0,0.0,0.0,0.0,0.0,0.0,0.0,0.8586,0.9033,0.9488,1.0082,1.0837,1.1735,0.0,0.0,0.0,0.0,0.0,0.0,0.0,0.0,1.8949,1.9742,2.0593,2.1206,2.1636,2.1876,0.0,2.2854,2.3222,2.3683,2.3944,2.4042,2.4385,2.4261,2.377,2.377,2.3521,2.3129,2.3313,2.3162,2.2739,0.0,0.0,0.0,2.1052,2.1736,2.2793,2.5231,2.6599,2.7797,3.0773,3.1886,3.2442,3.4354,3.5873,3.7272,3.8724,3.9463,3.9969,4.0616,3.9535,3.8278,3.8155,3.7081,3.5868,3.5054,3.5213,3.5408,3.5155,3.7161,3.9522,4.1379,4.2861,4.5121,4.9012,5.0885,5.2838,5.5353,5.7282,5.8581,5.9142,5.9174,5.9314,5.9623,6.0241,6.0638,6.0638,6.1509,6.2015,6.2043,6.1425,6.0807,6.0188,5.982,5.9511,5.9174,5.9174,5.9174,5.9174,5.9174,5.9064,5.8783,5.8783,5.8615,5.8306,5.7997,5.8236,5.8677,5.7753,5.7588,5.7888,5.8097,5.8225,5.8407,0.0,0.0,0.0,0.0,0.0,0.0,0.0,0.7826,0.8064,0.8571,0.8861,0.9277,0.9914,1.1058,1.2077,0.0,0.0,0.0,0.0,0.0,0.0,0.0,0.0,0.0,1.947,0.0,0.0,2.0583,2.0849,0.0,0.0,0.0,0.0,0.0,2.2968,2.2828,2.2551,2.2551,2.2317,0.0,0.0,2.2166,2.1851,0.0,0.0,0.0,0.0,2.1342,2.2052,2.4449,2.5673,2.6832,3.0149,3.1726,3.259,3.4161,3.5779,3.7376,3.8838,3.975,4.0518,4.1338,4.0151,3.8625,3.7802,3.6603,3.5218,3.3729,3.4404,3.5138,3.471,3.6786,3.8969,4.03,4.1706,4.4073,4.8226,4.9821,5.1883,5.5578,5.7075,5.8175,5.9017,5.9142,5.9426,6.0044,6.0863,6.134,6.1481,6.1959,6.2347,6.2684,6.179,6.1228,6.1088,6.0582,6.0104,5.9626,5.9486,5.937,5.937,5.9258,5.9174,5.9174,5.9174,5.9174,5.9177,5.8699,5.873,5.9045,5.8365,5.8055,5.8154,5.9343,5.9359,5.9103,0.0,0.0,0.0,0.0,0.0,0.0,0.0,0.7071,0.7425,0.8072,0.8346,0.8685,0.9237,1.016,1.1269,0.0,0.0,0.0,0.0,0.0,0.0,0.0,0.0,0.0,0.0,0.0,0.0,1.8914,1.8944,0.0,0.0,0.0,0.0,0.0,0.0,2.1675,2.1076,2.1076,0.0,0.0,0.0,0.0,0.0,0.0,0.0,0.0,0.0,2.0555,2.1545,2.3423,2.4486,2.5399,2.7417,3.0153,3.2744,3.3237,3.4912,3.6931,3.8304,3.8745,3.915,4.0592,3.9489,3.7929,3.7653,3.6014,3.4307,3.341,3.3905,3.4483,3.4433,3.6016,3.8065,4.0174,4.1026,4.3207,4.8181,5.0276,5.2404,5.5371,5.7432,5.8641,5.8735,5.9017,5.9426,6.0044,6.1224,6.2151,6.2712,6.2797,6.2572,6.2127,6.1987,6.165,6.1116,6.1031,6.0975,6.0919,6.0297,6.0016,5.9988,5.9426,5.9174,5.9174,5.9174,5.9174,5.9174,5.9149,5.8994,5.8762,5.7837,5.7306,5.7039,5.7111,5.7998,5.9222,0.0,0.0,0.0,0.0,0.0,0.0,0.0,0.6543,0.6872,0.7583,0.7885,0.8307,0.9001,0.9416,1.0192,0.0,0.0,0.0,0.0,0.0,0.0,0.0,0.0,0.0,0.0,0.0,1.8236,1.8403,1.8403,0.0,0.0,0.0,0.0,0.0,0.0,2.0041,1.9922,1.984,0.0,0.0,0.0,0.0,0.0,0.0,0.0,0.0,0.0,0.0,2.1366,2.2352,2.3059,2.3757,2.5079,2.7177,2.9554,3.1521,3.3514,3.5555,3.7664,3.9429,4.0678,4.0757,3.9841,3.8472,3.6776,3.509,3.363,3.2696,3.3385,3.416,3.416,3.5705,3.7343,3.8566,3.9368,4.1367,4.5764,4.7783,5.0265,5.4141,5.6182,5.7681,5.8617,5.8829,5.9406,6.0606,6.1842,6.2628,6.2881,6.2544,6.2403,6.2544,6.2179,6.1902,6.165,6.1284,6.1088,6.1088,6.0076,5.9735,6.0072,5.9483,5.9174,5.9205,5.884,5.8868,5.9089,5.7997,5.7889,5.8494,5.8326,5.8137,5.8231,5.9647,6.0084,6.0049,0.0,0.0,0.0,0.0,0.0,0.5911,0.5932,0.6058,0.6383,0.705,0.7437,0.7948,0.8738,0.8897,0.9348,1.0377,0.0,0.0,0.0,0.0,0.0,0.0,0.0,0.0,0.0,0.0,1.7396,1.7591,1.7726,1.7865,0.0,0.0,1.8179,1.8749,0.0,0.0,0.0,0.0,0.0,0.0,0.0,0.0,0.0,0.0,0.0,0.0,0.0,0.0,0.0,0.0,0.0,2.2433,2.3282,2.4555,2.6376,2.9597,3.2131,3.4382,3.6544,3.9047,4.0943,4.0413,3.9614,3.8368,3.6121,3.451,3.3224,3.2134,3.2944,3.3883,3.3883,3.5421,3.6899,3.7494,3.8391,4.0305,4.3974,4.5895,4.8446,5.2516,5.4463,5.6068,5.7723,5.8689,5.9719,6.087,6.2006,6.2712,6.2881,6.2319,6.2263,6.2881,6.2488,6.2263,6.2263,6.1846,6.1537,6.134,6.0273,5.9876,6.0072,5.9483,5.9174,5.9205,5.8755,5.8812,5.9121,5.8075,5.8055,5.8771,5.9041,5.9103,5.9131,6.0902,6.0976,6.0324,0.0,0.0,0.0,0.0,0.0,0.0,0.0,0.5587,0.5976,0.6438,0.6966,0.7577,0.8329,0.8646,0.891,0.9185,0.0,0.0,0.0,0.0,0.0,0.0,0.0,0.0,0.0,0.0,1.6124,1.6124,1.6602,1.7062,1.7503,1.717,1.7518,1.8398,0.0,0.0,0.0,0.0,0.0,0.0,0.0,0.0,0.0,0.0,0.0,0.0,0.0,0.0,0.0,0.0,0.0,0.0,0.0,2.2689,2.3938,2.7497,3.0896,3.372,3.4753,3.6892,3.8879,3.9146,3.838,3.7194,3.5877,3.4414,3.2994,3.1912,3.2718,3.3607,3.3607,3.5135,3.6678,3.7494,3.8563,4.0399,4.3568,4.5519,4.7681,5.0593,5.2284,5.3937,5.5744,5.874,6.0603,6.0603,6.1482,6.2263,6.2853,6.2319,6.2263,6.2881,6.2881,6.2881,6.2881,6.2881,6.2572,6.1987,6.1369,6.075,6.0072,5.9483,5.9174,5.9174,5.9205,5.9205,5.9267,6.0167,6.0219,5.9705,5.9974,5.9727,5.9218,5.9444,5.9526,5.966,0.0,0.0,0.0,0.0,0.0,0.0,0.0,0.5191,0.5447,0.638,0.6647,0.7172,0.8278,0.8474,0.8672,0.9028,0.0,0.0,0.0,0.0,0.0,0.0,0.0,0.0,0.0,0.0,1.478,1.5015,1.5483,1.5919,1.6332,1.628,1.6733,1.7565,1.7454,1.76,0.0,0.0,0.0,0.0,0.0,0.0,1.7097,0.0,0.0,0.0,0.0,0.0,0.0,0.0,0.0,0.0,0.0,0.0,0.0,2.4598,2.7725,3.0734,3.2154,3.4578,3.6564,3.6048,3.5958,3.56,3.4102,3.324,3.2539,3.1839,3.2583,3.34,3.34,3.458,3.6137,3.7874,3.8789,4.0413,4.3682,4.625,4.8701,5.1206,5.4318,5.6483,5.7058,5.8985,6.0282,6.057,6.1649,6.2452,6.2881,6.2712,6.2684,6.2881,6.2909,6.2909,6.2909,6.2488,6.2375,6.26,6.1112,6.0554,6.075,5.9683,5.9174,5.9208,5.9434,5.9765,6.0169,6.0266,6.0472,6.0677,6.0972,6.0948,6.0789,6.0997,6.1076,6.1068,0.0,0.0,0.0,0.0,0.0,0.0,0.0,0.5234,0.5467,0.6283,0.6583,0.7058,0.7961,0.8142,0.8302,0.8566,0.0,0.0,0.0,0.0,0.0,0.0,0.0,0.0,0.0,1.3799,1.3977,1.4201,1.4691,1.5144,1.5557,1.5488,1.592,1.6795,1.6717,1.6809,0.0,0.0,0.0,0.0,0.0,0.0,1.6572,0.0,0.0,0.0,0.0,0.0,0.0,0.0,0.0,0.0,0.0,0.0,0.0,0.0,2.5076,2.7661,2.993,3.2629,3.469,3.4238,3.4268,3.4142,3.3125,3.2621,3.2187,3.1658,3.2493,3.3261,3.3191,3.4511,3.6107,3.7568,3.8713,4.0388,4.3236,4.5938,4.8742,5.1767,5.4917,5.6923,5.7141,5.8776,6.0006,6.0484,6.1469,6.223,6.2682,6.2618,6.2656,6.2881,6.2909,6.2909,6.2909,6.2291,6.2071,6.2179,6.0775,6.0185,6.0357,5.957,5.9392,5.9735,5.9949,6.043,0.0,6.1317,6.163,6.1985,6.2259,6.2223,6.2004,6.212,6.1946,6.1651,0.0,0.0,0.0,0.0,0.0,0.0,0.0,0.0,0.0,0.6171,0.6702,0.7176,0.7465,0.7727,0.7875,0.7875,0.0,0.0,0.0,0.0,0.0,0.0,0.0,0.0,0.0,1.3373,1.3616,1.3616,1.4142,1.4666,1.5142,1.4813,1.5169,1.6074,1.5876,1.5708,0.0,0.0,0.0,0.0,0.0,0.0,0.0,0.0,0.0,0.0,0.0,0.0,0.0,0.0,0.0,0.0,0.0,0.0,0.0,0.0,0.0,0.0,0.0,3.0865,3.2974,3.3315,3.304,3.2673,3.2747,3.2364,0.0,3.1413,3.2379,3.3238,3.3005,3.4821,3.6463,3.6886,3.851,4.0458,4.2552,4.5223,4.8448,5.2501,5.4487,5.5762,5.6305,5.8227,5.9714,6.0295,6.1005,6.1707,6.2298,6.2155,6.2319,6.2881,6.2853,6.2853,6.2909,6.2319,6.179,6.1228,6.0494,5.9876,5.9345,5.9323,5.9766,6.0593,6.0745,6.1287,6.2174,6.3132,6.3503,6.3528,6.37,6.3414,6.286,6.2802,6.2212,6.1626,0.0,0.0,0.0,0.0,0.0,0.0,0.0,0.0,0.0,0.0,0.6502,0.6917,0.7439,0.7567,0.7593,0.0,0.0,0.0,0.0,0.0,0.0,0.0,0.0,0.0,0.0,1.2636,1.2858,1.2858,1.3193,1.3785,1.459,1.4403,1.4806,1.5724,1.5678,1.557,0.0,0.0,0.0,0.0,0.0,0.0,0.0,0.0,0.0,0.0,1.6645,1.7185,0.0,0.0,0.0,0.0,0.0,0.0,0.0,0.0,2.2534,2.3947,2.5915,0.0,2.9257,3.0238,3.0512,3.0646,0.0,3.1332,3.1461,3.1342,3.2379,3.3381,3.3695,3.4871,3.6338,3.8051,3.9811,4.1745,4.3923,4.8279,5.2304,5.5107,5.6224,5.6821,5.6956,5.8303,5.9279,5.9687,6.0971,6.1692,6.1713,6.2323,6.274,6.2909,6.2431,6.2431,6.2909,6.274,6.26,6.246,6.1397,6.0807,6.0642,6.0406,6.0409,6.0684,6.2116,6.2873,6.316,6.4129,6.4552,6.449,6.3978,6.3691,6.3479,6.2771,6.236,6.2184,0.0,0.0,0.0,0.0,0.0,0.0,0.0,0.0,0.0,0.0,0.0,0.0,0.0,0.0,0.0,0.0,0.0,0.0,0.0,0.0,0.0,0.0,0.0,0.0,1.1805,1.2038,1.221,1.2367,1.2674,1.3186,1.3912,1.3884,1.4264,1.4954,1.4894,1.4863,0.0,0.0,0.0,0.0,1.4005,0.0,0.0,0.0,0.0,0.0,1.6295,1.6669,0.0,1.7751,1.8284,1.8711,0.0,0.0,0.0,0.0,2.1849,2.287,2.4655,2.6374,2.7919,2.9075,2.9503,2.9841,3.0461,3.087,3.1233,3.1423,3.2455,3.3429,3.3791,3.5038,3.6435,3.7853,4.0166,4.3121,4.6992,5.0515,5.3619,5.6007,5.6577,5.7092,5.7933,5.8612,5.92,5.9645,6.0856,6.1467,6.1226,6.2147,6.2603,6.2488,6.2151,6.2263,6.2881,6.2347,6.2071,6.2071,6.1116,6.0657,6.0662,6.0479,6.0894,6.1762,6.2787,6.3533,6.4129,6.4694,6.4888,6.4857,6.4457,6.4091,6.3756,6.3425,6.3019,6.2695,0.0,0.0,0.0,0.0,0.0,0.0,0.0,0.0,0.0,0.0,0.0,0.0,0.0,0.0,0.0,0.0,0.0,0.0,0.0,0.0,0.0,0.0,0.0,1.0862,1.143,1.1491,1.1676,1.1981,1.2382,1.2797,1.3238,1.3441,1.3776,1.416,1.4025,1.4025,0.0,0.0,0.0,0.0,1.3802,0.0,0.0,0.0,0.0,0.0,0.0,0.0,0.0,1.7111,1.7543,1.7872,1.8629,0.0,0.0,0.0,0.0,0.0,2.3943,2.5989,2.7838,2.883,2.928,2.9685,3.0371,3.0758,3.1057,3.155,3.2507,3.3359,3.372,3.53,3.6699,3.7228,4.0442,4.4847,5.0513,5.2343,5.3917,5.6061,5.6468,5.7174,5.872,5.8937,5.9236,5.9833,6.0688,6.1088,6.0899,6.1736,6.2185,6.201,6.1818,6.2047,6.2765,6.1654,6.1152,6.1248,6.0568,6.0353,6.0492,6.0558,6.1464,6.3019,6.3163,6.3878,6.4888,6.4888,6.4888,6.4888,6.4888,6.4491,6.3947,6.4254,6.3794,6.309,0.0,0.0,0.0,0.0,0.0,0.0,0.0,0.0,0.0,0.0,0.0,0.0,0.0,0.0,0.0,0.0,0.0,0.0,0.0,0.0,0.0,0.0,0.9803,1.0647,1.0739,1.103,1.1266,1.1421,1.2089,1.2582,1.2903,1.3479,1.385,1.4025,1.389,1.3845,1.3845,0.0,0.0,0.0,1.3211,0.0,0.0,0.0,0.0,0.0,0.0,0.0,0.0,1.6611,1.7144,1.763,1.8093,0.0,0.0,0.0,0.0,0.0,2.3495,2.568,2.7809,2.8381,2.9029,2.9619,3.0146,3.0465,3.0808,3.1344,3.2229,3.3243,3.4124,3.5825,3.7252,3.7808,4.2404,4.7618,5.2485,5.4243,5.5328,5.6197,5.7206,5.7939,5.821,5.8693,5.9236,5.9833,6.0313,6.0621,6.0905,6.132,6.1677,6.1982,6.0943,6.0949,6.2146,6.1461,6.1376,6.1861,6.1234,6.1237,6.1797,6.2026,6.2467,6.3048,6.3847,6.4468,6.4888,6.4888,6.4888,6.4888,6.4888,6.4657,6.4287,6.4129,6.3761,6.3473,0.0,0.0,0.0,0.0,0.0,0.0,0.0,0.0,0.0,0.0,0.0,0.0,0.0,0.0,0.0,0.0,0.0,0.0,0.0,0.0,0.0,0.7716,0.8804,0.9626,1.0097,1.0405,1.0683,1.0928,1.1995,1.257,1.2712,1.3377,1.3623,1.3452,1.3407,1.3361,1.3361,1.3209,0.0,0.0,0.0,0.0,0.0,0.0,0.0,0.0,0.0,0.0,0.0,0.0,1.674,1.7273,1.7789,0.0,0.0,0.0,0.0,0.0,2.2815,2.4847,2.6948,2.7623,2.8944,3.0125,3.0193,3.0651,3.1251,3.2042,3.2795,3.3648,3.4646,3.6376,3.8732,4.2027,4.6039,4.9854,5.3112,5.4351,5.5383,5.6631,5.7287,5.7885,5.8503,5.8829,5.9127,5.9371,5.9865,6.0201,6.0402,6.0844,6.1062,6.0971,6.0762,6.0736,6.1022,6.1053,6.1411,6.2066,6.1778,6.1797,6.2112,6.2234,6.2642,6.3308,6.3906,6.4356,6.4635,6.4832,6.4888,6.4888,6.4888,6.4691,6.4326,6.3878,6.3538,6.3367,0.0,0.0,0.0,0.0,0.0,0.0,0.0,0.0,0.0,0.0,0.0,0.0,0.0,0.0,0.0,0.0,0.0,0.0,0.0,0.0,0.702,0.7087,0.7624,0.8414,0.9467,0.9756,1.006,1.0416,1.1774,1.2565,1.2835,1.3219,1.3244,1.295,1.2858,1.2843,1.2828,1.2797,1.2721,0.0,0.0,0.0,0.0,0.0,0.0,0.0,0.0,0.0,0.0,0.0,0.0,0.0,0.0,0.0,0.0,1.9529,2.0489,2.1709,2.2335,2.4166,2.6076,2.678,2.8699,3.0466,3.0537,3.1021,3.1831,3.3083,3.378,3.4454,3.5448,3.7539,4.0843,4.6068,4.9169,5.1709,5.3904,5.4731,5.5713,5.7233,5.7559,5.7988,5.891,5.8992,5.9073,5.9209,5.9371,5.9673,6.005,6.0347,6.031,6.0002,6.056,6.0743,6.0409,6.1016,6.1608,6.2073,6.2073,6.22,6.2322,6.2322,6.2759,6.3508,6.3795,6.4075,6.441,6.4663,6.4832,6.4888,6.4888,6.4666,6.4244,6.3679,6.3367,6.328,0.0,0.0,0.0,0.0,0.0,0.0,0.0,0.0,0.0,0.0,0.0,0.0,0.0,0.0,0.0,0.0,0.0,0.0,0.0,0.0,0.6205,0.6449,0.6517,0.7274,0.8831,0.9134,0.9467,0.9856,1.1261,1.2492,1.3522,1.3069,1.2845,1.2797,1.249,1.2351,1.2336,1.2212,1.2151,1.2166,0.0,0.0,0.0,0.0,0.0,0.0,0.0,0.0,0.0,0.0,0.0,0.0,0.0,0.0,1.9312,1.9312,2.0489,2.1881,2.2374,2.4024,2.5672,2.5852,2.7933,3.0238,3.1338,3.1638,3.2236,3.426,3.5093,3.5759,3.6767,3.9925,4.3639,4.7555,5.0433,5.3095,5.5718,5.6631,5.7287,5.7966,5.8503,5.891,5.8992,5.8992,5.9236,5.9778,5.8835,5.8864,6.0268,5.9664,5.9354,5.9623,6.0042,6.0528,6.1046,6.1702,6.2028,6.2086,6.2086,6.244,6.3021,6.3021,6.3194,6.351,6.3538,6.3849,6.4382,6.441,6.4607,6.4888,6.4888,6.4554,6.3993,6.3652,6.351,6.3537,0.0,0.0,0.0,0.0,0.0,0.0,0.0,0.0,0.0,0.0,0.0,0.0,0.0,0.0,0.0,0.0,0.0,0.0,0.0,0.0,0.5927,0.6023,0.6381,0.6932,0.7658,0.83,0.9043,0.9869,1.1321,1.2344,1.298,1.2774,1.257,1.2351,1.2228,1.2104,1.1996,1.1934,1.1794,1.1636,1.1881,0.0,0.0,0.0,0.0,0.0,0.0,0.0,0.0,0.0,1.5345,1.5716,1.6228,1.7607,1.9058,1.9396,2.0703,2.2137,2.2576,2.4448,2.6303,2.6295,2.8455,3.0777,3.152,3.2442,3.3637,3.5359,3.6157,3.7062,3.884,4.2124,4.5365,4.7842,5.1311,5.4144,5.5537,5.6902,5.7993,5.8585,5.8856,5.8992,5.8992,5.8639,5.8536,5.8781,5.8373,5.8456,5.9221,5.9164,5.9269,5.9636,6.0402,6.1046,6.1732,6.238,6.2701,6.2701,6.2701,6.2846,6.3108,6.3108,6.3165,6.328,6.3453,6.3622,6.3878,6.4272,6.4465,6.4579,6.4415,6.43,6.4188,6.3679,6.3652,6.388,0.0,0.0,0.0,0.0,0.0,0.0,0.0,0.0,0.0,0.0,0.0,0.0,0.0,0.0,0.0,0.0,0.0,0.0,0.5585,0.5585,0.5558,0.5517,0.6055,0.6506,0.6796,0.7699,0.8667,0.9673,1.1034,1.1897,1.2281,1.2217,1.2081,1.184,1.1794,1.1716,1.1591,1.1591,1.1451,1.126,1.164,1.1887,0.0,0.0,0.0,0.0,0.0,0.0,0.0,0.0,1.493,1.5221,1.591,1.7254,1.8703,1.9321,2.0741,2.2186,2.2599,2.4323,2.6108,2.6497,2.8652,3.0966,3.212,3.3462,3.4942,3.6535,3.766,3.897,4.1055,4.4059,4.6853,4.876,5.2261,5.5057,5.5871,5.7206,5.8265,5.8666,5.8883,5.8937,5.872,5.8346,5.8102,5.8102,5.7912,5.801,5.8401,5.8884,5.928,5.9519,6.0745,6.1643,6.2116,6.2759,6.3108,6.3108,6.3108,6.3108,6.3108,6.3108,6.3108,6.3108,6.3309,6.3424,6.3538,6.3963,6.4188,6.4272,6.416,6.4188,6.4244,6.3906,6.3934,6.416,0.0,0.0,0.0,0.0,0.0,0.0,0.0,0.0,0.0,0.0,0.0,0.0,0.0,0.0,0.0,0.0,0.0,0.0,0.5124,0.5097,0.5042,0.4911,0.5358,0.5856,0.6392,0.7378,0.8338,0.9214,1.0283,1.1075,1.1591,1.1388,1.131,1.1294,1.1153,1.109,1.109,1.109,1.1104,1.1147,1.1748,1.2,1.2081,0.0,0.0,0.0,0.0,0.0,0.0,0.0,1.4451,1.4994,1.5532,1.6814,1.826,1.9084,2.0543,2.2008,2.2403,2.3486,2.4867,2.6258,2.8295,3.0607,3.328,3.4725,3.6008,3.7787,3.9649,4.1579,4.3379,4.5733,4.8162,5.0507,5.3419,5.5817,5.7011,5.7722,5.8102,5.8102,5.8612,5.8747,5.8156,5.8102,5.8102,5.8102,5.7559,5.7477,5.8047,5.882,5.9208,5.9239,6.1105,6.2116,6.2116,6.2759,6.3108,6.3108,6.3108,6.3108,6.3108,6.3108,6.3108,6.3108,6.3108,6.3252,6.351,6.351,6.3709,6.4049,6.43,6.4244,6.4049,6.43,6.4382,6.4437,0.0,0.0,0.0,0.0,0.0,0.0,0.0,0.0,0.0,0.0,0.0,0.0,0.0,0.0,0.0,0.0,0.0,0.0,0.5111,0.5097,0.5179,0.5385,0.57,0.6041,0.6395,0.771,0.8912,0.9967,1.0672,1.109,1.1247,1.1185,1.1153,1.1167,1.1315,1.13,1.117,1.1073,1.1146,1.1316,1.139,1.1643,1.1978,0.0,0.0,0.0,0.0,0.0,0.0,0.0,0.0,0.0,1.5624,1.6814,1.8103,1.9184,2.0894,2.2453,2.2716,2.4619,2.6704,2.746,2.953,3.1813,3.3448,3.5087,3.7033,3.9633,4.1476,4.2973,4.4119,4.61,4.8291,5.0524,5.2855,5.4943,5.6355,5.745,5.8102,5.8102,5.8265,5.8319,5.8129,5.7722,5.7477,5.7477,5.7314,5.755,5.8423,5.8948,5.9707,6.0835,6.1673,6.2322,6.2788,6.2992,6.3108,6.3108,6.3108,6.3108,6.3108,6.3108,6.3108,6.3108,6.3108,6.3165,6.3252,6.3424,6.3793,6.4272,6.416,6.4331,6.461,6.4468,6.4552,6.4777,0.0,0.0,0.0,0.0,0.0,0.0,0.0,0.0,0.0,0.0,0.0,0.0,0.0,0.0,0.0,0.0,0.0,0.0,0.0,0.4973,0.5001,0.5152,0.5659,0.6376,0.7337,0.8181,0.9253,1.0583,1.0905,1.1065,1.1065,1.1065,1.1118,1.1212,1.128,1.1247,1.1169,1.1306,1.1284,1.1192,1.1414,1.158,1.1738,0.0,0.0,0.0,0.0,0.0,0.0,0.0,0.0,0.0,1.6182,1.7278,1.8374,1.9241,2.0951,2.2675,2.294,2.5013,2.7364,2.8412,3.0401,3.2765,3.5101,3.6659,3.8482,4.1586,4.2809,4.385,4.5582,4.704,4.8769,5.1224,5.2974,5.4548,5.6052,5.7119,5.7749,5.7749,5.7966,5.802,5.7776,5.7423,5.7206,5.7206,5.7532,5.8016,5.8589,5.9586,6.0593,6.1554,6.2175,6.2672,6.3108,6.3108,6.3108,6.3108,6.3108,6.3108,6.3108,6.3108,6.3108,6.3108,6.3108,6.3108,6.3137,6.3395,6.3651,6.3906,6.4075,6.4331,6.4554,6.4579,6.4749,6.4888,0.0,0.0,0.0,0.0,0.0,0.0,0.0,0.0,0.0,0.0,0.0,0.0,0.0,0.0,0.0,0.0,0.0,0.0,0.0,0.0,0.4664,0.456,0.538,0.6767,0.8718,0.8651,0.937,1.0915,1.0969,1.0995,1.0979,1.1006,1.1122,1.1301,1.1119,1.1067,1.1171,1.1629,1.1479,1.0974,1.1647,1.1681,1.1413,1.2181,0.0,0.0,0.0,0.0,0.0,0.0,0.0,0.0,1.7105,1.8041,1.8984,1.937,2.0988,2.2755,2.3199,2.5029,2.7279,2.9159,3.1214,3.3746,3.7537,3.8821,4.0142,4.3355,4.3812,4.4514,4.744,4.8407,4.9626,5.235,5.3458,5.4548,5.6052,5.6766,5.7092,5.7092,5.7667,5.7776,5.7174,5.7146,5.7206,5.7206,5.8079,5.8652,5.8746,6.0565,6.1643,6.1732,6.2614,6.3108,6.3108,6.3108,6.3108,6.3108,6.3108,6.3108,6.3108,6.3108,6.3108,6.3108,6.3108,6.3108,6.3108,6.3367,6.3338,6.3223,6.4047,6.4244,6.4106,6.4694,6.4888,6.4888,0.0,0.0,0.0,0.0,0.0,0.0,0.0,0.0,0.0,0.0,0.0,0.0,0.0,0.0,0.0,0.0,0.0,0.0,0.0,0.0,0.4788,0.4959,0.5754,0.6903,0.8452,0.8613,0.9217,1.0285,1.0768,1.0929,1.0764,1.0987,1.0898,1.0635,1.1054,1.137,1.1553,1.1297,1.1449,1.1784,1.1382,1.1393,1.1662,1.2037,1.2312,0.0,0.0,0.0,0.0,0.0,0.0,0.0,1.76,1.8836,2.0033,2.0621,2.187,2.3238,2.4089,2.6007,2.8239,3.0116,3.3079,3.602,3.797,3.925,4.0707,4.3067,4.484,4.6512,4.8283,4.9665,5.1153,5.3014,5.3695,5.4548,5.6052,5.6414,5.6495,5.6495,5.7011,5.7146,5.6549,5.6902,5.7206,5.7206,5.8079,5.8965,5.974,6.0956,6.1969,6.273,6.2992,6.3108,6.3108,6.3108,6.3108,6.3108,6.3108,6.3108,6.3108,6.3108,6.3108,6.3108,6.3108,6.3108,6.3108,6.3165,6.328,6.3481,6.3906,6.4188,6.4384,6.4749,6.4888,6.4888,0.0,0.0,0.0,0.0,0.0,0.0,0.0,0.0,0.0,0.0,0.0,0.0,0.0,0.0,0.0,0.0,0.0,0.0,0.0,0.0,0.4872,0.5452,0.5883,0.6904,0.861,0.8766,0.9398,1.0541,1.0738,1.0863,1.0906,1.1106,1.1134,1.1029,1.1351,1.1512,1.1558,1.1702,1.1708,1.162,1.1614,1.169,1.1841,1.2208,1.2486,1.2707,1.2962,0.0,0.0,0.0,0.0,0.0,0.0,0.0,2.0175,2.075,2.1855,2.3158,2.4291,2.6487,2.9165,3.2184,3.4694,3.6815,3.8395,3.9551,4.0953,4.3332,4.5191,4.6875,4.8489,4.9945,5.135,5.2828,5.3223,5.3931,5.5645,5.5871,5.598,5.6278,5.6577,5.6522,5.5925,5.6142,5.6523,5.6969,5.819,5.9316,6.0283,6.1586,6.2556,6.3079,6.3108,6.3108,6.3108,6.3108,6.3108,6.3108,6.3108,6.3108,6.3108,6.3108,6.3108,6.3108,6.3108,6.3108,6.3108,6.3108,6.3194,6.3338,6.3652,6.3934,6.4244,6.4552,6.4777,6.4888,0.0,0.0,0.0,0.0,0.0,0.0,0.0,0.0,0.0,0.0,0.0,0.0,0.0,0.0,0.0,0.0,0.0,0.0,0.0,0.0,0.0,0.5854,0.5936,0.683,0.8726,0.8923,0.957,1.0751,1.0741,1.0839,1.1088,1.1209,1.1373,1.1601,1.1595,1.1552,1.152,1.2104,1.1906,1.1286,1.1913,1.2053,1.1948,1.238,1.2701,0.0,1.3167,1.4159,1.5428,1.5725,0.0,0.0,0.0,0.0,2.0259,2.068,2.1737,2.3056,2.445,2.7027,3.0199,3.4009,3.5709,3.6925,3.8627,3.9863,4.1337,4.3719,4.524,4.6751,4.8598,5.0008,5.1251,5.2404,5.265,5.3324,5.5153,5.5328,5.5491,5.6061,5.6142,5.5898,5.5301,5.5512,5.6029,5.6912,5.8519,5.9764,6.056,6.2199,6.2988,6.2778,6.2988,6.3048,6.2928,6.3048,6.3108,6.3108,6.3108,6.3108,6.3108,6.3108,6.3108,6.3108,6.3108,6.3108,6.3108,6.3108,6.3108,6.3137,6.3395,6.3709,6.4049,6.43,6.4607,6.4888,0.0,0.0,0.0,0.0,0.0,0.0,0.0,0.0,0.0,0.0,0.0,0.0,0.0,0.0,0.0,0.0,0.0,0.0,0.4733,0.0,0.0,0.5862,0.6071,0.6808,0.8171,0.8725,0.9224,0.9701,1.043,0.0,0.0,0.0,0.0,1.118,1.1192,1.1409,1.1801,1.144,1.1494,1.1774,1.1668,1.1716,1.1942,1.2229,0.0,0.0,0.0,1.3891,1.465,1.5273,1.648,0.0,0.0,0.0,2.1336,2.1582,2.2465,2.3722,2.5309,2.8416,3.1677,3.3503,3.5422,3.7158,3.8393,4.0415,4.237,4.356,4.5417,4.7399,4.9234,5.0857,5.2059,5.2527,5.283,5.3597,5.5184,5.4948,5.484,5.5464,5.5545,5.5301,5.4677,5.5829,5.6907,5.762,5.9377,6.0472,6.0589,6.2199,6.2569,6.1403,6.248,6.2838,6.2241,6.2808,6.3108,6.3108,6.3108,6.3108,6.3108,6.3108,6.3108,6.3108,6.3108,6.3108,6.3108,6.3108,6.3108,6.3137,6.3395,6.3709,6.4049,6.43,6.4607,6.4888,0.0,0.0,0.0,0.0,0.0,0.0,0.0,0.0,0.0,0.0,0.0,0.0,0.0,0.0,0.0,0.5111,0.4918,0.4753,0.4601,0.4549,0.4955,0.5912,0.611,0.6822,0.8127,0.8522,0.8979,0.9508,0.996,0.0,0.0,1.104,1.1241,0.0,0.0,1.1737,1.1689,1.1737,1.1737,1.1682,1.187,1.2116,0.0,0.0,0.0,0.0,0.0,0.0,1.4643,1.5207,1.6458,1.7874,1.8413,0.0,0.0,0.0,2.2422,2.3747,2.6718,2.9155,3.142,3.3938,3.582,3.7446,3.9085,4.1194,4.3165,4.4437,4.6115,4.773,4.8999,5.0395,5.1659,5.2474,5.2738,5.3443,5.5153,5.4867,5.4704,5.5355,5.5111,5.465,5.4053,5.5069,5.6127,5.6974,5.8581,5.9766,6.0278,6.1357,6.1702,6.1134,6.1672,6.2002,6.2091,6.2391,6.2748,6.3108,6.3108,6.3108,6.3108,6.3108,6.3108,6.3108,6.3108,6.3108,6.3108,6.3108,6.3108,6.3108,6.3223,6.3567,6.4052,6.4558,6.5049,6.5503,0.0,0.0,0.0,0.0,0.0,0.0,0.0,0.0,0.0,0.0,0.0,0.0,0.0,0.0,0.0,0.0,0.4891,0.4726,0.4559,0.4563,0.4978,0.5891,0.6131,0.676,0.7847,0.8204,0.8695,0.9346,0.0,0.0,1.1138,1.1258,1.1581,0.0,1.2171,1.2015,0.0,0.0,1.2002,1.1737,1.2135,0.0,0.0,0.0,0.0,0.0,0.0,0.0,1.4676,1.5276,1.649,1.7875,1.8419,1.9498,0.0,0.0,0.0,2.4002,2.7488,2.9199,3.0738,3.3748,3.5702,3.7399,3.9325,4.1625,4.3757,4.5238,4.6722,4.8047,4.8957,5.0062,5.1185,5.2416,5.2588,5.3262,5.5153,5.4867,5.4758,5.5545,5.4948,5.442,5.4197,5.4904,5.5816,5.691,5.8283,5.9364,6.0059,6.0894,6.1134,6.0625,6.1104,6.1523,6.1852,6.2181,6.2629,6.3108,6.3108,6.3108,6.3108,6.3108,6.3108,6.3108,6.3108,6.3108,6.3108,6.3108,6.3108,6.3108,6.3108,6.3481,6.4054,6.4568,6.5242,6.5965,0.0,0.0,0.0,0.0,0.0,0.0,0.0,0.0,0.0,0.0,0.0,0.0,0.0,0.5069,0.4911,0.4911,0.467,0.4566,0.4681,0.4914,0.5257,0.5691,0.614,0.0,0.6958,0.7661,0.8318,0.0,0.0,0.0,1.1472,1.1737,1.2135,1.2638,1.2135,1.2051,1.2231,0.0,0.0,0.0,0.0,0.0,0.0,0.0,0.0,0.0,0.0,1.3982,1.4383,1.5348,1.6448,1.7541,1.8289,1.9557,2.0934,0.0,0.0,0.0,2.6922,2.8476,3.001,3.2028,3.4446,3.6768,3.8474,4.1403,4.4108,4.5345,4.6979,4.8505,4.9658,5.0394,5.1185,5.2416,5.2588,5.3262,5.5153,5.4867,5.4952,5.6115,5.522,5.4828,5.571,5.6098,5.6938,5.8487,5.9474,6.0059,6.0114,6.1343,6.1164,5.9279,6.1044,6.1762,6.1136,6.2391,6.3078,6.3108,6.3108,6.3108,6.3108,6.3108,6.3108,6.3108,6.3108,6.3108,6.3108,6.3108,6.3108,6.3108,6.3108,6.3481,6.3993,6.4023,6.4845,6.5903,0.0,0.0,0.0,0.0,0.0,0.0,0.0,0.0,0.0,0.0,0.0,0.0,0.0,0.5338,0.522,0.5225,0.4931,0.4775,0.4815,0.4917,0.5135,0.5484,0.5961,0.6448,0.6958,0.7563,0.8364,0.0,0.0,1.0295,1.152,1.1774,1.2087,1.2436,1.2412,1.2364,1.2292,1.2376,0.0,0.0,0.0,0.0,0.0,0.0,0.0,1.3187,1.3821,1.411,1.4403,1.5711,1.6773,1.7741,1.8952,2.0065,2.1139,2.2301,2.3735,2.5318,2.6964,2.8175,2.9655,3.2405,3.4546,3.6703,3.9447,4.2059,4.4291,4.5818,4.693,4.7989,4.9165,4.9845,5.0738,5.2336,5.2588,5.3128,5.4611,5.4654,5.4786,5.5627,5.5316,5.5312,5.5855,5.6563,5.7278,5.7988,5.8936,5.9458,5.9458,5.9907,5.9847,5.9129,6.0206,6.0894,6.1076,6.2002,6.245,6.245,6.2898,6.3108,6.3108,6.3108,6.3108,6.3108,6.3108,6.3108,6.3108,6.3108,6.3108,6.3108,6.3108,6.3338,6.38,6.4907,6.5677,6.6386,0.0,0.0,0.0,0.0,0.0,0.0,0.0,0.0,0.0,0.0,0.0,0.0,0.0,0.0,0.5699,0.5766,0.5448,0.5294,0.5432,0.5302,0.5447,0.592,0.6308,0.6755,0.7294,0.7622,0.8393,0.0,0.0,0.0,0.0,1.1822,1.2087,1.2436,1.2626,1.2602,0.0,0.0,1.2726,1.2593,1.2846,1.2976,1.3,1.3159,1.3276,1.3468,1.4133,1.4585,1.5088,1.6429,1.7508,1.8455,0.0,0.0,2.1691,2.2775,2.3987,2.5315,2.6964,2.8034,2.9512,3.2749,3.453,3.6301,3.9528,4.1845,4.3748,4.5232,4.6334,4.7388,4.8564,4.9117,4.9868,5.1573,5.1968,5.2429,5.3596,5.3992,5.4579,5.5613,5.5517,5.5761,5.6764,5.7111,5.75,5.8001,5.8719,5.9099,5.9099,5.9308,5.9428,5.9428,5.9847,6.0296,6.0775,6.1642,6.2091,6.2121,6.2778,6.3108,6.3108,6.3108,6.3108,6.3108,6.3108,6.3108,6.3108,6.3108,6.3108,6.3138,6.3347,6.3581,6.4019,6.5456,6.6291,6.6916,0.0,0.0,0.0,0.0,0.0,0.0,0.0,0.0,0.0,0.0,0.0,0.0,0.0,0.0,0.0,0.6491,0.6159,0.6101,0.6487,0.6148,0.6255,0.6958,0.7198,0.7484,0.7886,0.785,0.8408,0.9637,0.9437,1.0221,1.1918,0.0,1.2183,1.2699,1.2711,1.2723,1.2735,1.2991,1.3111,1.3147,1.3423,1.3532,1.3509,1.3532,1.3703,1.3989,1.4551,1.5381,1.6409,1.7541,1.8652,1.9697,0.0,0.0,0.0,0.0,0.0,2.495,0.0,0.0,0.0,3.2841,3.4221,3.5547,3.8518,4.0746,4.2491,4.3672,4.5248,4.6841,4.7937,4.8146,4.8655,5.0082,5.0651,5.1219,5.2137,5.3031,5.4242,5.6096,5.5767,5.6261,5.8431,5.7829,5.7696,5.8609,5.8936,5.9072,5.9099,5.9697,6.0084,6.0114,6.0084,6.0084,6.0114,6.1403,6.2061,6.2061,6.2778,6.3108,6.3108,6.3108,6.3108,6.3108,6.3108,6.3108,6.3108,6.3108,6.3108,6.3168,6.3737,6.4182,6.4622,6.5636,6.6596,6.7437,0.0,0.0,0.0,0.0,0.0,0.0,0.0,0.0,0.0,0.0,0.0,0.0,0.0,0.0,0.6631,0.6782,0.6868,0.6898,0.6873,0.6889,0.6892,0.6863,0.7284,0.7566,0.7679,0.8034,0.8945,1.0404,1.0153,1.076,1.2183,1.2183,1.2268,1.2433,1.281,1.3088,1.3262,1.3151,1.3316,1.3701,1.3958,1.3959,1.3844,1.4437,1.4582,1.4573,1.5314,1.6284,1.7363,1.8428,1.9493,2.0576,2.1737,0.0,0.0,0.0,0.0,0.0,2.6817,0.0,0.0,0.0,0.0,0.0,3.8262,4.0005,4.1516,4.3518,4.4937,4.6184,4.7333,4.7542,4.7675,4.8076,4.9708,5.0999,5.1246,5.226,5.3226,5.3944,5.4875,5.5952,5.7197,5.7536,5.7948,5.8666,5.8776,5.8912,5.9072,5.9279,5.9608,6.0057,5.9608,5.9608,6.0114,6.0954,6.1373,6.1403,6.254,6.3108,6.3108,6.3108,6.3108,6.3108,6.3108,6.3108,6.3108,6.3108,6.3108,6.3108,6.3287,6.3676,6.4301,6.5549,6.6479,6.7265,0.0,0.0,0.0,0.0,0.0,0.0,0.0,0.0,0.0,0.0,0.0,0.0,0.0,0.0,0.7396,0.7479,0.7658,0.7779,0.784,0.7654,0.7602,0.7717,0.7934,0.8125,0.8297,0.8627,0.9389,1.0668,1.0507,1.108,1.2292,1.2292,1.2412,1.2641,0.0,0.0,1.366,1.3627,1.3907,1.4394,1.4446,1.4724,1.5149,1.5509,1.5682,1.5854,1.6649,1.7503,1.8415,1.9601,2.0777,2.1852,2.2648,0.0,0.0,0.0,0.0,0.0,0.0,0.0,0.0,3.1946,0.0,0.0,3.7841,3.9372,4.0619,4.2158,4.3563,4.4799,4.5715,4.6053,4.6288,4.6549,4.8292,4.9648,4.9794,5.1219,5.2544,5.3257,5.4484,5.5623,5.6561,5.7065,5.7509,5.7896,5.8379,5.88,5.9072,5.9099,5.9279,5.9668,5.9308,5.9279,5.9668,6.0625,6.1076,6.1134,6.245,6.3108,6.3108,6.3108,6.3108,6.3108,6.3108,6.3108,6.3108,6.3108,6.3108,6.3168,6.3677,6.4126,6.4604,6.6246,6.7089,6.7542,0.0,0.0,0.0,0.0,0.0,0.0,0.0,0.0,0.0,0.0,0.6796,0.6664,0.0,0.0,0.0,0.0,0.8483,0.8695,0.9044,0.8488,0.8395,0.903,0.8864,0.8923,0.9252,0.9336,0.9806,1.063,1.0731,1.1301,1.2361,1.2364,1.2662,1.3165,0.0,0.0,0.0,1.4353,1.4823,1.5414,1.5084,1.5706,1.6842,1.6754,1.7018,1.7546,1.8319,1.8984,1.9685,2.1114,2.227,2.3184,2.3352,2.3617,2.3969,0.0,2.5421,0.0,0.0,0.0,0.0,3.2295,3.3431,0.0,3.729,3.8738,3.967,4.0286,4.1698,4.2997,4.3598,4.4147,4.4695,4.5217,4.6514,4.7642,4.8168,5.0151,5.2043,5.3276,5.4226,5.5177,5.6142,5.6505,5.6698,5.6755,5.789,5.8741,5.9045,5.9072,5.9099,5.9099,5.9099,5.9099,5.9099,6.0356,6.1044,6.1134,6.2361,6.3048,6.3108,6.3108,6.3108,6.3108,6.3108,6.3108,6.3108,6.3108,6.3138,6.3317,6.4455,6.4964,6.5353,6.7214,6.7939,6.809,0.0,0.0,0.0,0.0,0.0,0.0,0.0,0.0,0.0,0.0,0.719,0.0,0.0,0.0,0.0,0.0,0.9232,0.94,0.9479,0.9542,0.9512,0.933,0.9291,0.9193,0.9064,0.9636,1.027,1.0918,1.1519,1.2082,1.2638,1.2834,1.31,1.3441,1.3932,1.4618,1.5418,1.5301,1.6199,1.7601,1.6731,1.6681,1.724,1.8257,1.8782,1.9041,1.9642,2.0664,2.1933,2.3014,2.3372,2.3437,2.4079,2.4433,2.4841,2.5593,2.6363,0.0,0.0,0.0,0.0,3.1687,3.3027,0.0,3.6839,3.7849,3.8619,3.9645,4.0792,4.1821,4.2421,4.2971,4.3363,4.3493,4.4514,4.5888,4.756,4.9442,5.0906,5.1611,5.3164,5.4448,5.5131,5.5679,5.6106,5.6375,5.7345,5.8154,5.8773,5.8964,5.9099,5.9099,5.9099,5.9099,5.9099,5.9877,6.0565,6.1106,6.1912,6.2599,6.3108,6.3108,6.3108,6.3108,6.3108,6.3108,6.3108,6.3108,6.3407,6.3857,6.4096,6.4874,6.5922,6.6851,6.7544,6.809,0.0,0.0,0.0,0.0,0.0,0.0,0.0,0.0,0.0,0.0,0.0,0.0,0.0,0.0,0.0,0.0,0.0,0.0,0.0,1.0133,1.0017,0.9707,0.9706,0.9582,0.9316,0.9889,1.0584,1.1345,1.1691,1.2277,1.3099,1.3246,1.3632,1.4276,1.4822,1.5494,1.6192,1.6096,1.6911,1.8256,1.7491,1.7853,1.8946,1.9778,2.0229,2.058,2.1589,2.2695,2.3719,2.3859,2.3995,2.4176,2.4579,2.4775,2.5069,2.6038,2.656,2.6899,2.7228,2.8522,3.0185,3.18,3.31,0.0,0.0,3.7525,3.799,3.8723,3.958,4.0392,4.0803,4.135,4.1795,4.2109,4.3101,4.4494,4.6293,4.8513,5.0181,5.0859,5.2188,5.3204,5.371,5.4293,5.5068,5.6035,5.6761,5.7357,5.7654,5.828,5.8593,5.8593,5.8949,5.9099,5.9099,5.9757,6.0446,6.1106,6.1792,6.245,6.3108,6.3108,6.3108,6.3108,6.3108,6.3108,6.3108,6.3108,6.3438,6.4036,6.4366,6.4904,6.5652,6.7003,6.7696,6.809,1.0154,0.0,0.0,0.0,0.0,0.0,0.0,0.0,0.0,0.0,0.0,0.0,0.0,0.0,0.0,0.0,0.0,0.0,0.0,1.0593,1.0388,1.0141,1.0115,1.0002,0.9748,1.0282,1.0962,1.1771,1.1949,1.2546,1.357,1.3626,1.4115,1.4975,1.5606,1.6215,1.6781,1.6932,1.7705,1.8766,1.8535,1.9298,2.0632,2.1081,2.1491,2.2041,2.3478,2.4395,2.4868,2.4293,2.4425,2.4863,2.4895,2.493,2.5208,2.6203,2.6617,2.6907,2.7502,2.8771,3.0345,3.2199,3.3408,3.4627,0.0,0.0,0.0,3.7778,3.84,3.8949,3.9238,3.9705,4.0228,4.0698,4.1847,4.3145,4.4519,4.6918,4.9042,5.0338,5.1157,5.1854,5.2439,5.2911,5.3833,5.5331,5.5899,5.6308,5.6595,5.7514,5.7972,5.7905,5.868,5.9039,5.8919,5.9578,6.0296,6.1106,6.1642,6.2331,6.3108,6.3108,6.3108,6.3108,6.3108,6.3108,6.3108,6.3108,6.3438,6.4066,6.4725,6.5084,6.5413,6.7305,6.8,6.809,1.0533,1.0075,0.0,0.0,0.0,0.0,0.0,0.0,0.0,0.0,0.0,0.0,0.0,0.0,0.0,0.0,0.0,1.0748,1.1198,1.1209,0.0,1.0648,1.0612,1.0498,1.0238,1.1102,1.169,1.196,1.3019,1.3614,1.378,1.407,1.4402,1.4767,1.5738,1.6615,1.7443,1.8174,1.925,2.0584,2.1165,2.1199,2.0956,2.1801,2.2537,2.3274,2.4565,2.4889,2.4746,2.4763,2.4873,2.4954,2.4914,2.5138,2.557,2.6282,2.7084,2.7928,2.8767,3.0158,3.1611,3.2606,3.3808,3.4877,3.554,0.0,3.6881,3.7141,0.0,3.7782,3.8037,0.0,0.0,3.8974,4.0385,4.1648,4.2067,4.3828,4.6273,4.9424,5.0121,5.0788,5.1938,5.2113,5.2621,5.3698,5.4104,5.4916,5.6273,5.7247,5.7573,5.7214,5.8441,5.883,5.8205,5.889,5.9847,6.1076,6.1194,6.1882,6.3108,6.3108,6.3108,6.3108,6.3108,6.3108,6.3108,6.3108,6.3438,6.4066,6.4725,6.5353,6.6042,6.7487,6.8,6.809,1.0618,1.0287,0.0,0.0,0.0,0.0,0.0,0.0,0.0,0.0,0.0,0.0,0.0,0.0,0.0,0.0,0.0,1.1209,1.1725,1.1628,0.0,1.1287,1.127,1.1097,1.0715,1.1622,1.2215,1.2462,1.3405,1.409,1.4498,1.4513,1.489,1.5608,1.6354,1.7288,1.8414,1.8941,1.9968,2.1288,2.1561,2.1859,2.2276,2.3097,2.3937,2.4775,2.5308,2.5627,2.5748,2.5379,2.55,2.5803,2.5697,2.5876,2.6237,2.6705,2.7321,2.805,2.897,3.0187,3.1547,3.3007,3.4097,3.5,3.5839,3.6276,3.6593,3.6828,0.0,0.0,0.0,0.0,0.0,0.0,3.9311,4.0096,4.0985,4.2176,4.3901,4.6533,4.7322,4.815,4.9455,5.0364,5.1011,5.1261,5.2423,5.3271,5.3778,5.59,5.705,5.6858,5.833,5.8979,5.8683,5.8979,5.9787,6.1076,6.1076,6.1792,6.3108,6.3108,6.3108,6.3108,6.3108,6.3108,6.3108,6.3108,6.3438,6.4066,6.4725,6.5413,6.6162,6.7517,6.8,6.809,1.0895,0.0,0.0,0.0,0.0,0.0,0.0,1.0484,1.1054,1.1065,1.1659,1.2025,1.1908,1.194,1.2026,0.0,1.1824,1.1789,1.2267,1.205,1.1873,1.1808,1.1744,1.1636,1.1497,1.2172,1.273,1.3181,1.3879,1.4511,1.5114,1.4983,1.5313,1.6032,1.6706,1.768,1.8887,1.9495,2.0571,2.1913,2.2067,2.2718,2.3693,2.4059,2.484,2.5773,2.5838,2.6242,2.6692,2.6127,2.6287,2.667,2.6406,2.6506,2.6859,2.7367,2.795,2.8674,2.9821,3.0931,3.2062,3.3434,3.4408,3.5173,3.5787,3.6281,3.6628,3.6689,3.7049,0.0,0.0,0.0,3.8031,3.8423,0.0,3.8976,3.9824,4.068,4.2081,4.4298,4.5516,4.6436,4.7147,4.8579,4.945,4.9432,5.0647,5.1581,5.1959,5.4333,5.5919,5.6407,5.7928,5.8749,5.883,5.9009,5.9787,6.1076,6.1076,6.1792,6.3108,6.3108,6.3108,6.3108,6.3108,6.3108,6.3108,6.3287,6.3707,6.4366,6.5203,6.5862,6.6401,6.7457,6.794,6.809,1.1597,1.13,0.0,0.0,1.0821,1.1089,1.1464,1.1496,1.1663,1.2189,1.2266,1.2388,1.2641,1.2671,1.2882,1.3406,1.2773,1.2479,1.2751,1.2522,1.2285,1.2105,1.183,1.2015,1.2735,1.2767,1.3227,1.415,1.4707,1.5114,1.5381,1.545,1.5486,1.5571,1.656,1.7532,1.8513,1.9828,2.1264,2.2729,2.3362,2.4238,2.5051,2.4432,2.4903,2.5926,2.619,2.6721,2.7249,2.7031,2.7223,2.7463,2.6779,2.6872,2.7363,2.8288,2.9259,3.0399,3.2042,3.318,3.3943,3.3974,3.4786,3.5444,3.4865,3.6006,3.7083,3.6765,3.7331,3.7822,3.7539,3.7716,3.7926,0.0,3.837,0.0,0.0,3.9066,4.0877,4.3602,4.5608,4.6495,4.5846,4.7035,4.8125,4.8687,4.8798,4.9761,5.19,5.2712,5.3936,5.5668,5.7027,5.7874,5.8115,5.88,5.9787,6.1076,6.1076,6.1792,6.3108,6.3108,6.3108,6.3108,6.3108,6.3108,6.3168,6.3707,6.4366,6.5084,6.643,6.6939,6.703,6.7366,6.7729,6.806,0.0,0.0,0.0,0.0,1.1619,1.2012,1.2067,1.2038,1.2216,1.2769,1.3298,1.3728,1.4004,1.4188,1.4219,1.4047,1.3477,1.3393,1.4027,1.3317,1.3144,1.3775,1.3209,1.3014,1.3258,1.3774,1.4316,1.4788,1.5305,1.5777,1.6259,1.591,1.5952,1.6332,1.7387,1.8365,1.9305,2.0902,2.2121,2.3056,2.4274,2.528,2.5992,2.5401,2.5533,2.6121,2.6678,2.6975,2.7124,2.7335,2.7599,2.7763,2.7538,2.7791,2.8358,2.909,3.0174,3.1434,3.2935,3.4057,3.4918,3.5454,3.5867,3.6086,3.5887,3.6557,3.7084,3.66,3.7143,3.761,3.7281,3.7459,0.0,0.0,0.0,0.0,0.0,3.8648,3.9681,4.1019,4.2554,4.3437,4.3267,4.4772,4.5889,4.614,4.7729,4.9025,4.979,5.2263,5.4137,5.5145,5.6627,5.7648,5.8144,5.8409,5.9262,6.0765,6.0765,6.1594,6.3108,6.3108,6.3108,6.3108,6.3108,6.3347,6.3707,6.3917,6.4665,6.5772,6.664,6.6999,6.709,6.7877,6.8092,6.809,1.3149,1.3041,1.2701,1.2151,1.2376,1.2674,1.276,1.2833,1.3055,1.3574,1.4194,1.4676,1.4968,1.5319,1.5458,1.5208,1.4983,1.5025,1.5445,1.4757,1.4575,1.5153,1.4581,1.4288,1.4345,1.4874,1.5282,1.5539,1.5936,1.6315,1.67,1.6365,1.6513,1.7213,1.7971,1.9105,2.0474,2.1605,2.2765,2.3913,2.5166,2.6113,2.6756,2.6412,2.6545,2.7012,2.746,2.7734,2.794,2.8267,2.847,2.8589,2.8626,2.9048,2.9662,3.0626,3.1775,3.2959,3.4192,3.5216,3.6042,3.6527,3.6924,3.7122,3.7013,3.7562,3.7889,3.7135,3.7454,3.7823,3.7585,3.7531,0.0,0.0,0.0,0.0,0.0,3.8285,3.8686,3.9062,4.0768,4.1876,4.193,4.3448,4.4569,4.4886,4.6417,4.7729,4.8658,5.1092,5.3224,5.4852,5.6153,5.7376,5.8549,5.8578,5.9311,6.0782,6.0782,6.1545,6.2934,6.2934,6.2992,6.3108,6.3347,6.3617,6.4036,6.4515,6.5233,6.6131,6.7268,6.7418,6.7089,6.7995,6.8212,6.809,1.3794,1.3873,1.3802,1.3373,1.3121,1.31,1.3559,1.3813,1.4122,1.4596,1.4961,1.527,1.5547,1.6133,1.6607,1.6815,1.7169,1.7257,1.7013,1.6729,1.642,1.6137,1.5847,1.5783,1.597,1.6019,1.6157,1.6386,1.663,1.6752,1.6754,1.6765,1.7216,1.8052,1.8394,1.9796,2.1927,2.2025,2.3253,2.5235,2.6054,2.6775,2.738,2.7409,2.7907,2.8564,2.8469,2.8883,2.9514,2.9719,2.9814,2.9832,2.9987,3.046,3.1237,3.2733,3.3915,3.4956,3.5834,3.6639,3.7261,3.7313,3.7913,3.844,3.8166,3.8944,3.9396,3.8241,3.8263,3.846,3.8409,3.7903,3.7666,0.0,0.0,0.0,3.79,3.79,3.7926,3.7952,4.0304,4.1884,4.1676,4.3083,4.4211,4.4748,4.4937,4.6069,4.8513,4.9349,5.13,5.4709,5.5499,5.6952,5.9141,5.9171,5.9819,6.1085,6.1085,6.1613,6.2585,6.2585,6.279,6.3169,6.3708,6.4036,6.4186,6.5473,6.6041,6.6311,6.8196,6.8166,6.7149,6.7779,6.8029,6.812,1.4171,1.4276,1.4434,1.4715,1.4258,1.3903,1.4025,1.4297,1.4674,1.5195,1.5902,1.6434,1.6662,1.7626,1.8026,1.7456,1.7937,1.8317,1.8442,1.7775,1.7524,1.7834,1.7171,1.678,1.68,1.6802,1.707,1.756,1.7432,1.7473,1.7654,1.7463,1.7821,1.8649,1.9877,2.1065,2.2284,2.3692,2.4955,2.6089,2.71,2.7919,2.8593,2.884,2.9361,2.9864,2.9018,2.8934,2.926,2.9671,2.9878,3.0035,3.0528,3.1073,3.1897,3.3564,3.4687,3.5607,3.6597,3.732,3.8012,3.8857,3.8893,3.8803,3.9193,3.9798,3.9873,3.8316,3.8718,3.9171,3.8537,3.7947,3.7658,0.0,0.0,0.0,3.7877,3.79,3.8057,3.8449,4.0074,4.0764,3.9753,4.2113,4.36,4.3443,4.5197,4.6824,4.7956,4.9577,5.149,5.378,5.4943,5.6483,5.8519,5.8519,5.9304,6.0794,6.0794,6.1292,6.2234,6.2234,6.2676,6.3475,6.3624,6.4397,6.5533,6.5862,6.658,6.7538,6.8077,6.8047,6.778,6.794,6.8121,6.8358,1.4885,1.4948,1.5116,1.5423,1.5255,1.5029,1.4916,1.5068,1.538,1.5946,1.6916,1.7595,1.7701,1.9011,1.9649,1.9006,1.9554,1.9962,1.9948,1.9375,1.914,1.9455,1.8851,1.8319,1.7912,1.801,1.8033,1.8,1.7958,1.8035,1.816,1.8021,1.8469,1.9477,2.0719,2.1988,2.326,2.5207,2.6403,2.7072,2.8166,2.8943,0.0,3.0036,3.0573,3.0997,3.0768,3.0509,3.0355,3.0726,3.1167,3.164,3.2114,3.2757,3.3606,3.4875,3.5825,3.6617,3.7357,3.7863,3.841,3.9423,3.951,3.9499,3.9944,4.0449,4.0449,3.9044,3.9245,3.9548,3.9045,3.8412,3.7948,3.791,3.768,3.7551,3.7716,3.7831,3.8109,3.8658,3.9428,3.9661,3.8884,4.1823,4.3545,4.2943,4.5078,4.6824,4.7747,4.9635,5.1556,5.3442,5.5039,5.6781,5.8726,5.9016,5.9713,6.0909,6.0909,6.1262,6.1909,6.2203,6.2705,6.3417,6.4129,6.4933,6.5829,6.625,6.6879,6.7568,6.7723,6.8026,6.8391,6.8212,6.8179,6.8298,1.5807,1.5773,1.5793,1.5855,1.6206,1.646,1.637,1.627,1.643,1.704,1.8127,1.883,1.8746,2.0302,2.1233,2.0859,2.1521,2.1795,2.1421,2.1128,2.0895,2.0765,2.0488,1.9954,1.9089,1.9266,1.8976,1.8255,1.8492,1.8579,1.8475,1.8674,1.9266,2.026,2.1344,2.2808,2.4639,2.6488,2.7578,2.8115,2.9161,2.9875,3.0377,3.1142,3.1661,3.2057,3.3015,3.2779,3.2102,3.2448,3.3137,3.3933,3.4272,3.4973,3.5801,3.6488,3.7219,3.789,3.8163,3.843,3.8841,3.975,4.0141,4.0356,4.0572,4.1026,4.1076,3.9948,3.9747,3.9772,3.9697,3.902,3.8357,3.8015,3.779,3.7645,3.7715,3.7924,3.8272,3.8843,3.8961,0.0,3.8919,4.1914,4.3536,4.2826,4.4717,4.6469,4.7747,4.949,5.1381,5.3442,5.5215,5.7216,5.9393,5.9858,6.0526,6.1454,6.1367,6.1489,6.1817,6.2401,6.2874,6.3382,6.4777,6.5493,6.5704,6.6576,6.6968,6.7029,6.7425,6.8031,6.8698,6.8452,6.8209,6.8119,1.6615,1.6378,1.6257,1.6714,1.7519,1.8357,1.9153,1.8791,1.8645,1.9177,2.0104,2.0555,2.0042,2.1408,2.2121,2.1569,2.2581,2.3013,2.2468,2.2378,2.1993,2.1145,2.1072,2.0707,1.9995,1.9791,1.9657,1.9488,1.9699,1.9465,1.8843,2.0061,2.0465,2.0302,2.2505,2.4499,2.6263,2.7269,2.8073,2.8793,2.9643,3.0577,3.1523,3.2423,3.2985,3.3405,3.4386,3.4134,3.3428,3.4303,3.4888,3.5381,3.6159,3.6673,3.7263,3.838,3.8797,3.9045,3.9516,3.9679,3.9965,4.1076,4.1392,4.135,4.1197,4.163,4.1607,4.0023,4.0049,4.0198,3.9772,3.9221,3.8717,3.8358,3.8253,3.8397,3.8855,3.8951,3.9254,3.9995,4.0251,4.0287,4.0118,4.1824,4.2706,4.2114,4.4469,4.6469,4.7747,4.8595,5.0399,5.3387,5.4371,5.652,6.0003,5.9655,6.0584,6.2761,6.2209,6.224,6.2853,6.2969,6.3475,6.425,6.4546,6.5298,6.6327,6.6508,6.6753,6.7059,6.769,6.7846,6.7759,6.8,6.8179,6.8387,1.7296,1.7321,1.7486,1.8095,1.8734,1.9615,2.0899,2.1272,2.1265,2.0926,2.1214,2.1433,2.1365,2.2563,2.32,2.2731,2.309,2.3229,2.2931,2.2617,2.2216,2.173,2.1554,2.1159,2.0473,2.034,2.0342,2.0462,2.0563,2.0419,2.0077,2.1268,2.1585,2.1287,2.3567,2.5526,2.716,2.8002,2.8779,2.9527,3.0744,3.1876,3.2898,3.3709,3.4461,3.5188,3.6148,3.6178,3.5742,3.5482,3.6139,3.7035,3.7189,3.7732,3.8442,3.903,3.9304,3.9474,3.9892,4.0001,4.0212,4.1084,4.1295,4.1303,4.1297,4.1503,4.143,4.035,4.0299,4.0399,4.0174,3.9446,3.8919,3.907,3.869,3.8482,3.8751,3.9018,3.9443,4.0112,4.0154,4.019,4.0381,4.1448,4.2281,4.259,4.462,4.6471,4.7975,4.8789,5.0515,5.3387,5.4432,5.652,5.9713,5.9742,6.07,6.2558,6.2238,6.2441,6.3109,6.3428,6.381,6.4258,6.4767,6.5465,6.6257,6.6629,6.6876,6.7059,6.7543,6.7758,6.7819,6.8089,6.8417,6.8714,1.8318,1.8586,1.896,1.9578,2.0183,2.1032,2.2327,2.3364,2.361,2.2488,2.2396,2.2477,2.2665,2.3607,2.4107,2.3824,2.3634,2.3459,2.3322,2.287,2.2495,2.2286,2.2037,2.1628,2.1014,2.0868,2.0998,2.1389,2.1372,2.1418,2.1526,2.2549,2.302,2.3019,2.4614,2.6222,2.7809,2.8622,2.9481,3.043,3.1976,3.3203,3.4135,3.5149,3.6013,3.6837,3.7856,3.8246,3.8045,3.6908,3.7446,3.8581,3.8251,3.8807,3.9526,3.961,3.9778,4.0002,4.0283,4.0397,4.0587,4.1109,4.13,4.1384,4.1449,4.1478,4.1327,4.0775,4.0675,4.0625,4.0524,3.9898,3.9471,3.9672,3.9322,3.9019,3.8942,3.9288,3.9739,4.0303,3.9956,3.9918,4.0541,4.1048,4.1866,4.3152,4.4701,4.6324,4.7947,4.902,5.073,5.3135,5.4492,5.6549,5.9277,5.9771,6.0845,6.2499,6.2354,6.2732,6.3516,6.4009,6.421,6.427,6.5049,6.5601,6.6039,6.6722,6.6999,6.7029,6.7304,6.7608,6.794,6.8361,6.875,6.9108,2.0234,2.028,2.0427,2.0857,2.2156,2.3332,2.3841,2.4721,2.4961,2.394,2.4362,2.456,2.3993,2.4295,2.4531,2.4501,2.4756,2.4655,2.4054,2.3946,2.3518,2.2593,2.2519,2.2374,2.2082,2.1467,2.1557,2.2373,2.2314,2.2424,2.2772,2.4186,2.5172,2.5735,2.5661,2.6606,2.8276,2.8983,3.0126,3.1656,3.3111,3.4104,3.5015,3.6816,3.7616,3.7856,3.9131,3.9626,3.9562,3.9254,3.9365,3.975,4.0232,4.0487,4.0621,4.0913,4.1028,4.1114,4.1375,4.1659,4.1966,4.228,4.256,4.2685,4.221,4.211,4.1959,4.1352,4.1227,4.1076,4.0575,4.0826,4.0775,3.9848,4.045,4.0958,4.0691,4.0692,4.0951,4.1466,4.0586,4.0296,4.1117,4.0772,4.1225,4.291,4.447,4.5864,4.7048,4.8546,5.0252,5.2266,5.3803,5.6113,5.9277,5.9364,6.0903,6.3803,6.3283,6.3632,6.4822,6.488,6.4909,6.4909,6.4999,6.5409,6.6039,6.6722,6.6999,6.6999,6.7029,6.7274,6.7668,6.8607,6.9123,6.9485,2.1399,2.1573,2.1996,2.2711,2.3562,2.4383,2.5072,2.5691,2.5864,2.5289,2.5136,2.5062,2.5022,2.4939,2.4897,2.4897,2.484,2.4703,2.4425,2.4208,2.384,2.3217,2.3202,2.3052,2.2796,2.2878,2.3184,2.3634,2.3444,2.359,2.4044,2.4624,2.5546,2.6655,2.6784,2.7568,2.8861,2.9919,3.1118,3.242,3.386,3.5108,3.6227,3.7374,3.8306,3.9072,3.9596,3.9919,4.0077,4.0156,4.0256,4.0316,4.0297,4.0976,4.1726,4.1527,4.2039,4.2578,4.2058,4.2389,4.2818,4.2556,4.2737,4.2939,4.2738,4.2411,4.211,4.1909,4.1528,4.1352,4.148,4.1128,4.0876,4.1155,4.0978,4.0877,4.1111,4.127,4.1328,4.1232,4.1234,4.1261,4.1312,4.1232,4.1769,4.3144,4.408,4.5257,4.6803,4.7877,4.9592,5.2099,5.3557,5.5687,5.8668,5.9451,6.1048,6.3457,6.3225,6.3748,6.4996,6.4996,6.4996,6.5028,6.5441,6.5756,6.6039,6.6506,6.6814,6.6999,6.6784,6.7269,6.8151,6.8759,6.9428,7.0098,2.2911,2.3107,2.3546,2.453,2.4961,2.5384,2.6121,2.6481,2.6602,2.635,2.5854,2.5561,2.5609,2.5396,2.5211,2.5103,2.4888,2.4703,2.461,2.4487,2.4332,2.4208,2.4301,2.4393,2.4386,2.4601,2.491,2.5319,2.4782,2.4867,2.5506,2.5589,2.6212,2.7299,2.794,2.8851,2.993,3.1101,3.2253,3.3466,3.4903,3.6312,3.7631,3.8327,3.9247,4.0158,4.0247,4.0329,4.0415,4.093,4.1065,4.0999,4.0502,4.1331,4.2418,4.2,4.2743,4.3541,4.2774,4.3078,4.3511,4.291,4.3112,4.3413,4.3263,4.2939,4.2612,4.2462,4.2082,4.1882,4.2135,4.1683,4.1329,4.1658,4.1331,4.1078,4.1277,4.1463,4.1523,4.1401,4.1738,4.187,4.154,4.1931,4.2527,4.3334,4.4242,4.5338,4.657,4.7906,4.9655,5.1864,5.3608,5.5669,5.8118,5.9595,6.1277,6.308,6.3283,6.3951,6.4996,6.4996,6.4996,6.506,6.5725,6.6007,6.6007,6.6351,6.6691,6.6968,6.6629,6.7264,6.842,6.9062,6.9702,7.0343,2.5074,2.4944,2.5091,2.6174,2.6422,2.6592,2.6934,2.7056,2.7103,2.7103,2.6783,2.6327,2.5672,2.561,2.5457,2.5134,2.5103,2.4949,2.461,2.4906,2.5266,2.5674,2.6009,2.6487,2.7234,2.6521,2.6581,2.7474,2.6325,2.6274,2.716,2.7447,2.7676,2.7944,2.9191,3.0479,3.1714,3.2391,3.3527,3.4994,3.6319,3.7758,3.9182,4.0193,4.0754,4.1028,4.1377,4.1133,4.0835,4.171,4.1995,4.1899,4.1341,4.1793,4.2491,4.2491,4.3061,4.3688,4.3688,4.3919,4.4053,4.3535,4.3986,4.4439,4.3915,4.379,4.3639,4.3115,4.2989,4.2813,4.2313,4.2612,4.2409,4.0802,4.1456,4.1984,4.1378,4.1302,4.1611,4.2464,4.206,4.1785,4.2076,4.2866,4.3386,4.3386,4.5256,4.6374,4.6298,4.8895,5.0634,5.1286,5.4,5.6251,5.7772,5.9731,6.1498,6.3109,6.3687,6.4326,6.4996,6.4996,6.4996,6.506,6.5725,6.6007,6.6007,6.6351,6.6691,6.6968,6.6629,6.7109,6.8171,6.9484,7.0005,7.0066,2.6593,2.665,2.6753,2.7087,2.7369,2.7467,2.7347,2.7361,2.7384,2.7429,2.7769,2.7935,2.773,2.6658,2.5907,2.5872,2.5586,2.5564,2.5884,2.629,2.6891,2.7631,2.8088,2.842,2.8654,2.8333,2.819,2.8182,2.7111,2.6614,2.6672,2.7914,2.8602,2.8911,3.0119,3.1461,3.2874,3.3849,3.5283,3.7002,3.8397,3.9495,4.0396,4.1147,4.1599,4.1899,4.2013,4.2072,4.219,4.2659,4.2796,4.2831,4.2896,4.3183,4.3387,4.2657,4.3693,4.4912,4.3964,4.4363,4.4919,4.4136,4.4286,4.4539,4.4364,4.4367,4.4317,4.4141,4.379,4.3489,4.3313,4.2838,4.2386,4.2208,4.2185,4.2261,4.2434,4.2459,4.2439,4.2347,4.2471,4.2501,4.2204,4.3068,4.3834,4.4254,4.559,4.6399,4.6374,4.8768,5.0676,5.1883,5.4459,5.6679,5.8463,6.0364,6.1901,6.3109,6.3687,6.4326,6.4996,6.4996,6.4996,6.506,6.5725,6.6007,6.6007,6.6351,6.6691,6.6998,6.7137,6.7795,6.8859,7.018,7.0672,7.0735,2.7506,2.7508,2.7576,2.7836,2.8074,2.8202,2.8112,2.8005,2.8106,2.8518,2.8862,2.93,2.982,2.8663,2.7668,2.7154,2.7025,2.7078,2.7274,2.7847,2.8546,2.9398,2.9856,3.0216,3.0468,3.0129,2.98,2.9544,2.8469,2.7635,2.7029,2.8744,2.9627,2.9927,3.1491,3.2771,3.3897,3.5259,3.6761,3.8301,3.9566,4.0731,4.1775,4.2117,4.2475,4.2747,4.2747,4.2778,4.2873,4.3341,4.3503,4.3563,4.389,4.4228,4.4317,4.3438,4.4521,4.5759,4.4759,4.5137,4.5618,4.4861,4.4974,4.5167,4.4995,4.4945,4.4819,4.4392,4.4192,4.4041,4.384,4.3413,4.309,4.3014,4.2713,4.2537,4.2688,4.2688,4.2637,4.2512,4.2788,4.2864,4.2537,4.3897,4.4862,4.4993,4.6718,4.7731,4.7731,4.9408,5.1079,5.2709,5.4968,5.7097,5.9112,6.0897,6.2294,6.327,6.4033,6.459,6.4996,6.4996,6.4996,6.506,6.5725,6.6007,6.6007,6.6351,6.6691,6.6998,6.7107,6.7884,6.9098,6.9938,7.0368,7.0582,2.7896,2.7764,2.7801,2.8451,2.8629,2.8788,2.9099,2.8973,2.9172,3.0142,3.0062,3.0444,3.1816,3.1451,3.0531,2.9146,2.9212,2.9168,2.8776,2.9485,3.023,3.0912,3.1317,3.1827,3.2453,3.1753,3.132,3.127,3.0199,2.9174,2.8229,2.9923,3.0813,3.103,3.3124,3.4302,3.492,3.6703,3.807,3.9132,4.0206,4.1676,4.3174,4.3174,4.3357,4.3577,4.3577,4.3265,4.3042,4.3802,4.4062,4.4098,4.4454,4.4888,4.5208,4.4661,4.5335,4.618,4.5878,4.6029,4.6175,4.5673,4.5924,4.6175,4.5673,4.5547,4.5246,4.4192,4.4342,4.4489,4.4016,4.4238,4.4213,4.3212,4.3011,4.2785,4.2311,4.2263,4.2436,4.2939,4.3039,4.3065,4.3065,4.5188,4.6302,4.5662,4.8341,5.0041,5.0125,5.0746,5.1926,5.3782,5.5636,5.7614,5.9727,6.1383,6.2644,6.3622,6.4547,6.4996,6.4996,6.4996,6.4996,6.506,6.5725,6.6007,6.6007,6.6382,6.6722,6.6968,6.675,6.7616,6.9008,6.9121,6.9457,6.9914,2.8721,2.868,2.8778,2.927,2.9356,2.9398,2.9521,2.9939,3.0321,3.0633,3.1483,3.2455,3.3449,3.3862,3.3839,3.3216,3.1033,2.9834,3.0187,3.071,3.1414,3.2277,3.2712,3.3007,3.3165,3.2445,3.1676,3.086,3.0562,3.0309,3.0094,3.1304,3.209,3.2543,3.3858,3.5336,3.6908,3.8434,3.9983,4.1547,4.2576,4.3417,4.4,4.4,4.4062,4.4124,4.4124,4.4051,4.4017,4.4444,4.4615,4.4676,4.5012,4.536,4.5536,4.4752,4.5184,4.5908,4.5817,4.6029,4.6276,4.615,4.6225,4.6276,4.615,4.6125,4.6024,4.5773,4.5472,4.5246,4.5121,4.4319,4.3683,4.3636,4.304,4.2656,4.2785,4.2813,4.2864,4.2989,4.3338,4.3614,4.3614,4.5733,4.7048,4.6887,4.881,5.038,5.1336,5.2433,5.367,5.5018,5.735,5.9135,6.0382,6.1978,6.3399,6.4668,6.4877,6.4996,6.4996,6.4996,6.4996,6.506,6.5725,6.6007,6.6039,6.666,6.6937,6.7089,6.8042,6.8671,6.9128,7.0087,7.0216,7.0065,2.928,2.9574,2.9819,2.9886,3.0198,3.0468,3.0629,3.0996,3.1527,3.2351,3.2953,3.365,3.4567,3.488,3.488,3.4532,3.316,3.2289,3.2276,3.2498,3.2854,3.3379,3.3418,3.3386,3.3386,3.2857,3.2123,3.1208,3.1396,3.1396,3.1239,3.2364,3.304,3.3354,3.4764,3.6213,3.763,3.9379,4.0992,4.2388,4.3396,4.4013,4.4285,4.4285,4.4285,4.4316,4.447,4.444,4.4378,4.4871,4.5202,4.5459,4.5792,4.6303,4.6673,4.619,4.6027,4.6049,4.6146,4.6229,4.6301,4.6301,4.6301,4.6301,4.6301,4.6301,4.6225,4.5974,4.5779,4.5595,4.5518,4.4761,4.4145,4.4159,4.3572,4.3065,4.3011,4.3014,4.309,4.3341,4.3614,4.389,4.4141,4.6306,4.7608,4.7314,4.9747,5.1645,5.2629,5.4091,5.5355,5.6339,5.8221,5.9858,6.1231,6.2712,6.3884,6.4772,6.4932,6.4996,6.4996,6.4996,6.4996,6.506,6.5725,6.6007,6.6039,6.6722,6.7178,6.7538,6.8256,6.8734,6.9067,6.9755,6.976,6.961,2.9702,3.0222,3.0607,3.0332,3.0941,3.1577,3.1847,3.2093,3.2797,3.4204,3.4235,3.4474,3.5397,3.5242,3.495,3.4656,3.5131,3.5099,3.4166,3.4114,3.4114,3.4114,3.3711,3.3464,3.3386,3.3147,3.2708,3.2061,3.2466,3.2517,3.2188,3.3251,3.3811,3.4005,3.5778,3.7061,3.8028,4.0126,4.1591,4.261,4.349,4.4123,4.4498,4.4498,4.4608,4.4743,4.5022,4.496,4.4805,4.5361,4.5847,4.6278,4.6551,4.7215,4.7845,4.7845,4.7193,4.6592,4.6761,4.6659,4.6552,4.6552,4.6552,4.6527,4.6451,4.6426,4.6245,4.5664,4.5705,4.5814,4.5579,4.5176,4.4813,4.4607,4.4034,4.3457,4.3037,4.309,4.3291,4.374,4.394,4.4267,4.479,4.6892,4.8186,4.798,5.0931,5.3164,5.4035,5.5664,5.6957,5.7772,5.8896,6.0357,6.2193,6.3415,6.416,6.4512,6.4836,6.4996,6.4996,6.4996,6.4996,6.5028,6.575,6.6033,6.6068,6.6869,6.7536,6.8017,6.8107,6.8495,6.8977,6.8938,6.8971,6.9154,3.0094,3.0204,3.0369,3.0644,3.1295,3.1873,3.2238,3.3284,3.411,3.436,3.4859,3.5376,3.5924,3.5934,3.5815,3.5594,3.598,3.5612,3.4185,3.4114,3.4114,3.4114,3.4036,3.3809,3.3406,3.3469,3.3431,3.3322,3.3712,3.3885,3.386,3.4322,3.4903,3.5587,3.6795,3.8243,3.9877,4.1418,4.2641,4.3615,4.4044,4.4736,4.5466,4.5466,4.5946,4.6588,4.6651,4.662,4.6588,4.6714,4.6795,4.6869,4.6932,4.7232,4.7558,4.7558,4.7589,4.7651,4.7695,4.767,4.7657,4.7657,4.7657,4.7531,4.7074,4.6973,4.6731,4.5914,4.601,4.6125,4.5809,4.4977,4.4365,4.4585,4.3537,4.2753,4.2958,4.3388,4.3714,4.379,4.4644,4.5447,4.5999,4.7491,4.9172,5.0907,5.2267,5.3894,5.5858,5.6788,5.7997,5.9623,6.0413,6.1554,6.3173,6.3712,6.416,6.4512,6.4836,6.4996,6.4996,6.4996,6.4996,6.5057,6.5964,6.6224,6.6096,6.7599,6.8124,6.8047,6.8615,6.8914,6.8977,6.8938,6.9275,6.9914,3.0516,3.0864,3.1253,3.1599,3.2085,3.2696,3.3355,3.4215,3.4911,3.5258,3.6035,3.6618,3.6825,3.7074,3.7008,3.6554,3.6656,3.6296,3.5223,3.4902,3.4785,3.4785,3.4583,3.4316,3.4121,3.4154,3.4186,3.4186,3.438,3.4477,3.4477,3.5073,3.5554,3.5951,3.7662,3.9235,4.0716,4.233,4.348,4.4285,4.51,4.5542,4.5737,4.6218,4.6644,4.7023,4.7181,4.7149,4.7023,4.7212,4.7473,4.7689,4.7689,4.811,4.8646,4.8646,4.8516,4.8309,4.7983,4.8134,4.8309,4.7983,4.7908,4.7857,4.7575,4.7401,4.7196,4.6984,4.6556,4.6265,4.6479,4.549,4.4743,4.5037,4.4026,4.3344,4.3786,4.384,4.4141,4.5045,4.5623,4.625,4.7079,4.8854,5.0462,5.1599,5.3509,5.5293,5.6871,5.7856,5.9064,6.061,6.1561,6.2418,6.3145,6.3704,6.4095,6.4224,6.4772,6.4996,6.4996,6.5344,6.5489,6.5548,6.6543,6.6747,6.6568,6.786,6.8449,6.8555,6.8884,6.9004,6.9068,6.9362,6.9488,6.9641,3.0919,3.1626,3.2301,3.2624,3.327,3.3997,3.4828,3.5407,3.5958,3.6475,3.7161,3.7627,3.7665,3.7964,3.7937,3.7301,3.7213,3.6944,3.6287,3.5992,3.5689,3.5391,3.4941,3.4707,3.4707,3.4805,3.4863,3.4863,3.4961,3.5033,3.5132,3.5884,3.6282,3.657,3.8798,4.0375,4.1518,4.3276,4.4403,4.5111,4.6028,4.6419,4.655,4.7097,4.7495,4.7788,4.7918,4.7805,4.7615,4.7925,4.8262,4.8636,4.8761,4.9246,4.9816,4.9941,4.969,4.9296,4.8812,4.8912,4.9038,4.8611,4.8385,4.8228,4.8065,4.7851,4.7707,4.7677,4.7053,4.6656,4.7114,4.6154,4.5375,4.5643,4.4719,4.4141,4.4539,4.4464,4.4869,4.615,4.6527,4.7104,4.8184,4.9821,5.1259,5.2302,5.4478,5.631,5.7619,5.8778,5.9992,6.1284,6.2319,6.2909,6.2909,6.3638,6.3997,6.403,6.4676,6.4996,6.4996,6.5602,6.5893,6.5983,6.7058,6.7357,6.7216,6.8299,6.8861,6.9004,6.9004,6.9004,6.9068,6.9575,6.964,6.9701,3.1373,3.216,3.2982,3.3444,3.4804,3.6046,3.6534,3.7212,3.7721,3.7853,3.7914,3.8026,3.8121,3.8171,3.8058,3.767,3.7603,3.7415,3.7045,3.6991,3.6489,3.5444,3.4941,3.4707,3.4707,3.5117,3.5351,3.5351,3.5742,3.6068,3.6372,3.6876,3.7471,3.8208,4.0488,4.1915,4.2693,4.4514,4.5637,4.6277,4.6357,4.739,4.8792,4.8377,4.9017,5.0102,4.9633,4.9432,4.94,4.9432,4.9457,4.9583,5.011,5.0285,5.0469,5.0996,5.1155,5.113,5.1046,5.067,5.0293,5.0243,4.9841,4.9243,4.8448,4.8514,4.8371,4.721,4.7383,4.7702,4.7508,4.6765,4.622,4.625,4.5267,4.4539,4.4589,4.5468,4.6175,4.6301,4.7179,4.8234,4.9364,4.9643,5.1049,5.4252,5.4954,5.6237,5.8474,5.9522,6.0606,6.187,6.2544,6.2909,6.2909,6.3638,6.3997,6.403,6.4676,6.4996,6.4996,6.5602,6.5893,6.598,6.7293,6.7863,6.7921,6.9254,6.95,6.9004,6.9004,6.9004,6.9008,6.906,6.9822,7.0948,3.2596,3.3052,3.3797,3.5324,3.6111,3.6851,3.775,3.8411,3.8804,3.8853,3.9387,3.9657,3.9468,3.9433,3.9399,3.9304,3.9044,3.8688,3.8341,3.8079,3.7479,3.6509,3.6276,3.621,3.621,3.6356,3.6435,3.6435,3.6614,3.6742,3.6876,3.7273,3.7753,3.8412,4.081,4.236,4.3343,4.5324,4.648,4.6956,4.7523,4.8304,4.9162,4.9481,5.017,5.0921,5.072,5.0645,5.0645,5.0645,5.0645,5.067,5.0896,5.0946,5.1071,5.1624,5.18,5.1875,5.2201,5.1649,5.0946,5.0946,5.0355,4.9749,4.9614,4.912,4.866,4.8597,4.8146,4.7866,4.8239,4.7583,4.7053,4.7274,4.6647,4.6271,4.6597,4.6722,4.7174,4.8234,4.8711,4.954,5.1021,5.2279,5.364,5.5123,5.6731,5.809,5.9197,6.0558,6.1673,6.2516,6.2769,6.2909,6.2909,6.3638,6.3997,6.403,6.4676,6.5199,6.5606,6.6244,6.6738,6.7202,6.8073,6.8502,6.8572,6.9073,6.9408,6.9572,6.9153,6.937,6.9953,7.0183,7.0706,7.1442,3.3597,3.4303,3.528,3.6919,3.7579,3.824,3.9184,3.9644,3.9894,3.999,4.0359,4.0473,4.0234,4.0199,4.0218,4.0264,3.9962,3.961,3.9257,3.8795,3.8104,3.7153,3.7253,3.7253,3.7079,3.7394,3.7475,3.7334,3.7475,3.7523,3.7503,3.8024,3.8623,3.9312,4.166,4.3275,4.4391,4.6485,4.757,4.7979,4.8903,4.9562,5.0098,5.0521,5.1046,5.1523,5.1348,5.1306,5.1306,5.1306,5.1306,5.1322,5.1498,5.1649,5.1875,5.2251,5.2352,5.2452,5.2795,5.2377,5.1724,5.1373,5.0581,4.9909,4.9833,4.9207,4.8674,4.9007,4.858,4.8276,4.8814,4.8332,4.7926,4.8153,4.7732,4.7525,4.8109,4.8033,4.8353,4.969,5.0167,5.0845,5.2,5.3731,5.4946,5.5386,5.7526,5.9248,6.0309,6.1407,6.2263,6.2881,6.2909,6.2909,6.2909,6.3507,6.3953,6.4283,6.4868,6.5509,6.6244,6.6912,6.7501,6.8065,6.8571,6.8886,6.906,6.8929,6.923,6.9632,6.9183,6.9614,7.0564,7.0881,7.1347,7.1934,3.4313,3.5893,3.7486,3.8013,3.9314,4.0454,4.0935,4.1058,4.1139,4.1265,4.0602,4.0117,4.0207,4.0199,4.0185,4.0206,4.0185,3.9999,3.9544,3.9089,3.8309,3.7186,3.7555,3.7575,3.7132,3.8033,3.8275,3.7831,3.8275,3.8448,3.833,3.9263,4.0229,4.1281,4.3313,4.4823,4.6038,4.8041,4.912,4.9478,5.0355,5.1238,5.2051,5.1498,5.1624,5.2051,5.1498,5.1297,5.1297,5.1297,5.1297,5.1431,5.195,5.2477,5.2895,5.2895,5.2895,5.2895,5.2895,5.2895,5.2619,5.1574,5.0614,4.9702,4.8821,4.86,4.8502,4.8116,4.8584,4.9105,4.9105,4.8971,4.8818,4.8818,4.8309,4.8134,4.8743,4.9264,4.9816,5.0336,5.1423,5.2101,5.2126,5.3284,5.4275,5.4953,5.6935,5.9248,6.1865,6.2015,6.2263,6.2881,6.2909,6.2909,6.2909,6.3244,6.389,6.4879,6.5241,6.5918,6.6945,6.7613,6.8069,6.8397,6.8672,6.9019,6.9384,6.9027,6.8964,6.9004,6.9004,6.9645,7.0564,7.0881,7.1621,7.2577,3.6754,3.7434,3.8335,3.9886,4.0247,4.0498,4.1036,4.0892,4.0633,4.0488,4.0275,4.0117,4.0193,3.9895,3.9957,4.0634,4.0406,4.0143,3.9999,3.9854,3.9481,3.8801,3.8596,3.8452,3.8309,3.8576,3.8801,3.8986,3.913,3.9199,3.9158,3.9447,4.0312,4.1757,4.3092,4.4721,4.6503,4.8209,4.9307,4.9986,5.0504,5.1238,5.2076,5.1925,5.2201,5.2619,5.2468,5.2427,5.2427,5.2427,5.2427,5.2477,5.2594,5.277,5.2895,5.2895,5.2895,5.2895,5.2895,5.2895,5.282,5.2528,5.1729,5.101,5.0702,5.0321,5.0016,4.9916,5.0082,5.0315,5.0572,5.0356,5.0231,5.0511,5.0393,5.0343,5.0552,5.067,5.0971,5.1523,5.19,5.2402,5.3155,5.4072,5.4843,5.54,5.7837,6.0093,6.1889,6.2375,6.2712,6.2881,6.2909,6.2909,6.2909,6.3244,6.3691,6.4283,6.5044,6.5918,6.6945,6.7613,6.8198,6.8672,6.8774,6.9182,6.971,6.9136,6.9468,7.029,6.9871,7.0464,7.1577,7.1642,7.2174,7.2859,3.8199,3.8665,3.9346,4.0508,4.0629,4.0661,4.088,4.0712,4.043,4.0148,3.995,3.9882,3.993,3.9833,3.9999,4.0572,4.0365,4.0282,4.0468,4.0288,4.0061,3.9792,3.9502,3.9275,3.9089,3.944,3.9668,3.9771,3.9957,3.9937,3.9771,4.0389,4.1348,4.2604,4.4074,4.5757,4.7614,4.9121,5.0155,5.0814,5.1352,5.1922,5.2427,5.2427,5.2594,5.2895,5.2895,5.2895,5.2895,5.2895,5.2895,5.2895,5.2895,5.2895,5.2895,5.2895,5.2895,5.2895,5.2895,5.2895,5.2861,5.2757,5.2126,5.1517,5.1234,5.0835,5.0486,5.0486,5.0587,5.0779,5.1039,5.098,5.1039,5.1239,5.1306,5.1348,5.1574,5.1599,5.18,5.2377,5.2603,5.298,5.3632,5.4606,5.5554,5.6539,5.8159,5.9887,6.1597,6.2025,6.242,6.2909,6.2909,6.2993,6.3251,6.3451,6.3957,6.4769,6.5568,6.6565,6.7667,6.8073,6.8518,6.8997,6.8862,6.9124,6.9654,6.9139,6.9557,7.05,7.0141,7.0829,7.2007,7.2007,7.242,7.3014,3.8913,3.9637,4.0334,4.0377,4.0672,4.0857,4.0611,4.0553,4.0422,4.0156,3.9744,3.9523,3.9564,3.9937,4.0206,4.0247,4.0261,4.0427,4.0877,4.051,4.0247,4.0247,4.0247,4.0061,3.9626,4.0427,4.0634,4.0247,4.0675,4.0675,4.0303,4.1805,4.2913,4.3725,4.5748,4.7535,4.9139,5.0499,5.1284,5.1725,5.2591,5.2895,5.2895,5.2895,5.2895,5.2895,5.2895,5.2895,5.2895,5.2895,5.2895,5.2895,5.2895,5.2895,5.2895,5.2895,5.2895,5.2895,5.2895,5.2895,5.2792,5.2481,5.2029,5.1557,5.1001,5.0675,5.0496,5.0546,5.0817,5.1053,5.1053,5.1347,5.1582,5.1498,5.1498,5.1649,5.2126,5.2176,5.2377,5.2845,5.3381,5.3708,5.3708,5.4857,5.626,5.7903,5.8052,5.8974,6.1009,6.1234,6.1798,6.2883,6.3016,6.3335,6.3869,6.3926,6.4606,6.5912,6.6507,6.7481,6.8707,6.8765,6.8963,6.9236,6.8929,6.9048,6.9441,6.9116,6.9438,7.0083,7.0115,7.0889,7.2007,7.2009,7.2451,7.3014,3.9986,4.0149,4.0421,4.0782,4.0629,4.0596,4.0967,4.0488,4.0041,4.0093,3.9744,3.9647,3.9999,4.0123,4.0365,4.0717,4.0773,4.0794,4.0897,4.0779,4.0737,4.0737,4.0737,4.0696,4.0593,4.0427,4.0468,4.0737,4.0856,4.0856,4.0773,4.1933,4.3263,4.4748,4.6356,4.8188,5.0127,5.1058,5.1771,5.2272,5.2707,5.2895,5.2895,5.2895,5.2895,5.2895,5.2895,5.2895,5.2895,5.2895,5.2895,5.2895,5.2895,5.2895,5.2895,5.2895,5.2895,5.2895,5.2895,5.2723,5.2481,5.2412,5.2391,5.2344,5.2231,5.2381,5.267,5.3091,5.3483,5.3728,5.3728,5.3823,5.3743,5.3256,5.3181,5.308,5.2744,5.2719,5.277,5.287,5.3381,5.3708,5.3708,5.4754,5.5954,5.7232,5.7718,5.8709,6.048,6.1449,6.2282,6.2956,6.3905,6.4465,6.4578,6.5056,6.5482,6.585,6.6507,6.7252,6.8102,6.8596,6.8828,6.8895,6.8828,6.9178,6.9795,6.9729,7.0091,7.0742,7.1,7.1473,7.2039,7.2294,7.2671,7.3014,4.0312,4.0312,4.0465,4.0913,4.0804,4.077,4.1139,4.0795,4.0494,4.0388,4.0242,4.0195,4.0445,4.0512,4.0634,4.0897,4.0918,4.0918,4.0918,4.0918,4.0918,4.0918,4.0918,4.0918,4.0918,4.0897,4.0897,4.0918,4.0918,4.1307,4.2067,4.3179,4.4566,4.6194,4.7942,4.9463,5.0744,5.16,5.2241,5.2654,5.2826,5.2895,5.2895,5.2895,5.2895,5.2895,5.2895,5.2895,5.2895,5.2895,5.3046,5.3306,5.3306,5.3482,5.3708,5.3708,5.3708,5.3623,5.3173,5.3088,5.3002,5.2379,5.2441,5.2677,5.2621,5.3123,5.3644,5.3942,5.4313,5.4597,5.4597,5.4597,5.4426,5.3913,5.3828,5.3753,5.3453,5.3428,5.3498,5.3673,5.3959,5.421,5.4486,5.529,5.602,5.6642,5.7152,5.8094,5.9496,6.0429,6.154,6.2957,6.3612,6.4366,6.5224,6.5562,6.6047,6.6707,6.705,6.7596,6.8334,6.8649,6.8794,6.8794,6.8794,6.9232,6.9903,6.9903,7.0298,7.0891,7.0914,7.1356,7.1978,7.196,7.2396,7.3014,4.0312,4.0377,4.052,4.0935,4.1066,4.1184,4.1392,4.1377,4.1262,4.1053,4.1002,4.099,4.099,4.1009,4.0989,4.0989,4.0954,4.0918,4.0918,4.0918,4.0918,4.0918,4.098,4.1057,4.1129,4.1586,4.157,4.1022,4.1284,4.2101,4.345,4.4811,4.6204,4.7726,4.9662,5.0768,5.1304,5.2119,5.2654,5.2895,5.2895,5.2895,5.2895,5.2895,5.2895,5.2895,5.2895,5.2895,5.2895,5.2995,5.3356,5.3708,5.3808,5.422,5.4597,5.4597,5.4561,5.4319,5.3551,5.3573,5.3511,5.24,5.2477,5.2804,5.2714,5.339,5.4094,5.4265,5.4588,5.4873,5.4873,5.4802,5.4634,5.4213,5.4069,5.4045,5.4017,5.3992,5.4135,5.4561,5.4672,5.4949,5.5465,5.6018,5.6344,5.6344,5.6835,5.7606,5.8639,5.9334,6.0644,6.2755,6.3144,6.4059,6.5635,6.5802,6.6471,6.7679,6.7679,6.8085,6.8794,6.8794,6.8828,6.8895,6.8895,6.9303,7.0002,7.0002,7.0305,7.0712,7.0556,7.0966,7.1645,7.1412,7.1967,7.286,4.0312,4.0607,4.0935,4.1,4.1328,4.1765,4.2177,4.199,4.1934,4.2287,4.2066,4.1862,4.1862,4.1608,4.1402,4.1402,4.1096,4.0918,4.0918,4.0918,4.0918,4.0918,4.1291,4.1679,4.2003,4.2465,4.234,4.1519,4.2888,4.3702,4.3947,4.6068,4.7609,4.8686,5.0222,5.1403,5.2218,5.2663,5.2861,5.2895,5.2895,5.2895,5.2895,5.2895,5.2895,5.2895,5.2895,5.2895,5.297,5.3457,5.3632,5.3783,5.4321,5.4547,5.4597,5.4597,5.4348,5.4039,5.3953,5.3416,5.2901,5.2719,5.2877,5.3043,5.3045,5.3619,5.4412,5.5236,5.5701,5.5993,5.5993,5.5701,5.5296,5.4787,5.4422,5.4141,5.4031,5.3992,5.4135,5.4561,5.5024,5.5491,5.6043,5.6559,5.6885,5.6885,5.7449,5.8052,5.8681,5.9749,6.0866,6.1995,6.3685,6.483,6.5411,6.6139,6.6895,6.7679,6.7679,6.8085,6.8794,6.8794,6.8963,6.9236,6.9236,6.9637,7.0331,7.0331,7.0233,7.0175,7.0629,7.0579,7.034,7.0801,7.1444,7.2214,4.0629,4.0869,4.1175,4.1699,4.1961,4.2267,4.2769,4.2718,4.2679,4.2909,4.2581,4.2335,4.2335,4.1983,4.1721,4.1508,4.1331,4.1132,4.0918,4.1167,4.1291,4.1291,4.1965,4.2413,4.2595,4.322,4.3589,4.3668,4.4113,4.4836,4.575,4.7158,4.8674,5.0182,5.1045,5.1783,5.2446,5.2757,5.2895,5.2895,5.2895,5.3071,5.3296,5.2995,5.3071,5.3356,5.3356,5.3557,5.3884,5.411,5.4386,5.4687,5.4938,5.5239,5.5454,5.5238,5.502,5.4728,5.3971,5.3729,5.3606,5.3095,5.3249,5.3485,5.3485,5.3908,5.45,5.5115,5.5411,5.5595,5.5816,5.5558,5.509,5.466,5.4451,5.4279,5.4218,5.4438,5.4802,5.5418,5.5691,5.6068,5.6584,5.686,5.7136,5.7499,5.8052,5.8453,5.8704,5.9516,6.0531,6.1846,6.3353,6.4554,6.5407,6.6426,6.7188,6.7679,6.7679,6.8085,6.8794,6.8794,6.8997,6.9303,6.9303,6.9704,7.0397,7.0397,7.0238,7.0027,7.0269,7.0189,7.0006,7.0676,7.1352,7.2059]}]]